ftp/pub/palmer/observations_modified/2019/August/original_files/AR190804_BASE.txt

Download

Sample DateTime	Unit Id	WS Avg 2min	WD Avg 2min	WGS 10min	WGD 10min	Air Temp	Rel Humidity	Dew Point	Pyranometer	Quantum	Air Pressure	Snow Level	Rainfall	PW Current	Visibility	CBase 1	CBase 2	CBase 3	Vert Vis
2019/08/04 00:00:00	BASE	23.51	128	29.17	118	0.0	76	-3.7	0	0	963.8	NA	0.0000	UP	9999	0	0	0	3510
2019/08/04 00:01:00	BASE	23.39	125	29.17	118	-0.0	77	-3.6	0	0	964.0	NA	0.0000	UP	9000	2490	0	0	0
2019/08/04 00:02:00	BASE	19.78	125	29.17	118	0.0	77	-3.6	0	0	963.9	NA	0.0000	UP	9999	3150	0	0	0
2019/08/04 00:03:00	BASE	17.94	128	29.17	118	0.0	76	-3.6	0	0	964.0	NA	0.0000	UP	9999	0	0	0	8040
2019/08/04 00:04:00	BASE	18.97	130	29.17	118	0.1	76	-3.7	0	0	963.8	NA	0.0000	UP	9999	4330	0	0	0
2019/08/04 00:05:00	BASE	19.93	130	29.17	118	0.1	76	-3.7	0	0	963.8	NA	0.0000	UP	9999	0	0	0	7810
2019/08/04 00:06:00	BASE	21.04	132	29.17	118	0.0	75	-3.8	0	0	963.7	NA	0.0000	UP	9999	3840	0	0	0
2019/08/04 00:07:00	BASE	22.81	133	29.17	118	-0.0	75	-3.9	0	0	963.6	NA	0.0000	UP	9999	3710	0	0	0
2019/08/04 00:08:00	BASE	25.50	132	33.49	131	-0.1	75	-3.9	0	0	963.3	NA	0.0000	UP	9999	2820	0	0	0
2019/08/04 00:09:00	BASE	29.33	131	33.49	131	-0.1	76	-3.9	0	0	963.2	NA	0.0000	UP	9999	3350	0	0	0
2019/08/04 00:10:00	BASE	29.00	131	33.49	131	-0.2	76	-3.8	0	0	963.2	NA	0.0000	UP	9999	3220	0	0	0
2019/08/04 00:11:00	BASE	26.49	130	33.49	131	-0.2	77	-3.8	0	0	963.3	NA	0.0000	UP	9999	0	0	0	3710
2019/08/04 00:12:00	BASE	25.89	128	33.49	131	-0.2	77	-3.8	0	0	963.2	NA	0.0000	UP	9999	0	0	0	3810
2019/08/04 00:13:00	BASE	26.22	130	33.49	131	-0.2	77	-3.7	0	0	963.2	NA	0.0000		9999	0	0	0	3670
2019/08/04 00:14:00	BASE	25.77	131	33.49	131	-0.2	77	-3.7	0	0	963.3	NA	0.0000		9999	3670	0	0	0
2019/08/04 00:15:00	BASE	25.19	129	33.49	131	-0.2	77	-3.8	0	0	963.3	NA	0.0000		9999	0	0	0	3970
2019/08/04 00:16:00	BASE	25.57	129	33.49	131	-0.3	77	-3.8	0	0	963.1	NA	0.0000		9999	0	0	0	4130
2019/08/04 00:17:00	BASE	27.63	130	33.49	131	-0.3	77	-3.8	0	0	962.9	NA	0.0000		9999	3840	0	0	0
2019/08/04 00:18:00	BASE	28.16	131	33.28	132	-0.3	78	-3.7	0	0	962.9	NA	0.0000		9999	0	0	0	4200
2019/08/04 00:19:00	BASE	26.53	129	32.41	137	-0.3	78	-3.8	0	0	963.0	NA	0.0000		9999	3640	0	0	0
2019/08/04 00:20:00	BASE	27.16	128	32.15	132	-0.4	78	-3.8	0	0	962.8	NA	0.0000		9999	4130	0	0	0
2019/08/04 00:21:00	BASE	28.22	127	32.15	132	-0.4	77	-3.8	0	0	962.9	NA	0.0000		9999	0	0	0	3810
2019/08/04 00:22:00	BASE	27.42	126	32.15	132	-0.4	77	-3.9	0	0	962.9	NA	0.0000		9999	0	0	0	3840
2019/08/04 00:23:00	BASE	25.96	124	32.15	132	-0.4	77	-3.9	0	0	963.0	NA	0.0000		9999	4000	0	0	0
2019/08/04 00:24:00	BASE	24.82	122	32.15	132	-0.4	77	-3.9	0	0	962.9	NA	0.0000	UP	9000	0	0	0	3810
2019/08/04 00:25:00	BASE	24.94	126	32.15	132	-0.4	77	-3.9	0	0	962.8	NA	0.0000	UP	9000	0	0	0	3740
2019/08/04 00:26:00	BASE	25.80	129	32.15	132	-0.4	77	-3.9	0	0	962.7	NA	0.0000	UP	9000	3580	0	0	0
2019/08/04 00:27:00	BASE	25.95	128	32.15	132	-0.5	77	-3.9	0	0	962.8	NA	0.0000	UP	9000	0	0	0	3250
2019/08/04 00:28:00	BASE	25.34	127	32.15	132	-0.5	77	-4.0	0	0	962.8	NA	0.0000	UP	9000	3150	0	0	0
2019/08/04 00:29:00	BASE	25.00	124	32.15	132	-0.5	77	-4.0	0	0	962.8	NA	0.0000	UP	9000	6860	0	0	0
2019/08/04 00:30:00	BASE	25.16	119	30.51	126	-0.5	77	-4.1	0	0	962.8	NA	0.0000	UP	9000	6400	0	0	0
2019/08/04 00:31:00	BASE	26.03	118	28.96	126	-0.5	77	-4.1	0	0	962.6	NA	0.0000	UP	9000	0	0	0	2490
2019/08/04 00:32:00	BASE	26.50	117	28.96	126	-0.5	76	-4.2	0	0	962.6	NA	0.0000	UP	9000	2460	0	0	0
2019/08/04 00:33:00	BASE	26.50	117	28.96	126	-0.5	76	-4.2	0	0	962.6	NA	0.0000	UP	9000	0	0	0	8600
2019/08/04 00:34:00	BASE	25.44	122	28.96	126	-0.5	76	-4.3	0	0	962.7	NA	0.0000	HZ	9000	3510	0	0	0
2019/08/04 00:35:00	BASE	24.94	126	28.96	126	-0.5	75	-4.3	0	0	962.6	NA	0.0000	HZ	9000	3280	0	0	0
2019/08/04 00:36:00	BASE	26.63	124	29.37	127	-0.5	75	-4.4	0	0	962.6	NA	0.0000	HZ	9000	8530	0	0	0
2019/08/04 00:37:00	BASE	27.17	119	30.76	113	-0.5	74	-4.5	0	0	962.7	NA	0.0000	HZ	9000	7970	0	0	0
2019/08/04 00:38:00	BASE	26.06	116	30.76	113	-0.5	74	-4.6	0	0	962.6	NA	0.0000	HZ	9000	7910	0	0	0
2019/08/04 00:39:00	BASE	24.98	117	30.76	113	-0.5	74	-4.7	0	0	962.5	NA	0.0000	HZ	9000	6690	0	0	0
2019/08/04 00:40:00	BASE	24.12	120	30.76	113	-0.5	73	-4.7	0	0	962.5	NA	0.0000	HZ	9999	7970	0	0	0
2019/08/04 00:41:00	BASE	24.06	125	30.76	113	-0.5	73	-4.8	0	0	962.4	NA	0.0000	HZ	9999	7940	0	0	0
2019/08/04 00:42:00	BASE	24.82	127	30.76	113	-0.5	72	-4.9	0	0	962.3	NA	0.0000	HZ	9999	7740	0	0	0
2019/08/04 00:43:00	BASE	24.59	127	30.76	113	-0.5	72	-5.0	0	0	962.3	NA	0.0000		9999	8270	0	0	0
2019/08/04 00:44:00	BASE	22.65	124	30.76	113	-0.5	71	-5.1	0	0	962.4	NA	0.0000		9999	8630	0	0	0
2019/08/04 00:45:00	BASE	22.75	119	30.76	113	-0.5	71	-5.1	0	0	962.4	NA	0.0000		9999	8270	0	0	0
2019/08/04 00:46:00	BASE	23.63	116	30.76	113	-0.5	71	-5.1	0	0	962.2	NA	0.0000		9999	7380	0	0	0
2019/08/04 00:47:00	BASE	27.05	123	39.51	122	-0.5	71	-5.1	0	0	961.6	NA	0.0000		9999	3870	0	0	0
2019/08/04 00:48:00	BASE	30.19	117	39.51	122	-0.4	71	-5.1	0	0	962.0	NA	0.0000		9999	0	0	0	3080
2019/08/04 00:49:00	BASE	27.91	103	39.51	122	-0.3	70	-5.1	0	0	962.2	NA	0.0000	UP	9999	0	0	0	920
2019/08/04 00:50:00	BASE	24.48	103	39.51	122	-0.2	69	-5.2	0	0	962.3	NA	0.0000	UP	9999	6820	0	0	0
2019/08/04 00:51:00	BASE	21.53	111	39.51	122	-0.1	68	-5.3	0	0	962.3	NA	0.0000	UP	9999	0	0	0	1740
2019/08/04 00:52:00	BASE	20.80	106	39.51	122	-0.1	67	-5.5	0	0	962.3	NA	0.0000	UP	9999	8460	0	0	0
2019/08/04 00:53:00	BASE	20.91	94	39.51	122	-0.1	66	-5.6	0	0	962.2	NA	0.0000	UP	9999	9060	0	0	0
2019/08/04 00:54:00	BASE	19.77	94	39.51	122	-0.1	66	-5.7	0	0	962.2	NA	0.0000	UP	9999	3410	0	0	0
2019/08/04 00:55:00	BASE	18.26	101	39.51	122	-0.2	66	-5.8	0	0	962.3	NA	0.0000	UP	9999	8890	0	0	0
2019/08/04 00:56:00	BASE	16.25	109	39.51	122	-0.3	66	-5.8	0	0	962.3	NA	0.0000	UP	9999	6690	0	0	0
2019/08/04 00:57:00	BASE	16.41	120	33.75	102	-0.3	66	-5.8	0	0	962.1	NA	0.0000	UP	9999	8170	0	0	0
2019/08/04 00:58:01	BASE	19.13	125	30.30	109	-0.4	67	-5.8	0	0	962.0	NA	0.0000	UP	9999	8170	0	0	0
2019/08/04 00:59:00	BASE	18.91	117	26.03	91	-0.4	67	-5.8	0	0	962.2	NA	0.0000	UP	9999	8830	0	0	0
2019/08/04 01:00:00	BASE	17.05	109	26.03	91	-0.5	68	-5.7	0	0	962.2	NA	0.0000	UP	9999	8730	0	0	0
2019/08/04 01:01:00	BASE	17.47	112	26.03	91	-0.5	69	-5.6	0	0	962.1	NA	0.0000	UP	9999	8430	0	0	0
2019/08/04 01:02:00	BASE	19.95	118	25.57	90	-0.6	69	-5.5	0	0	962.0	NA	0.0000		9999	8010	0	0	0
2019/08/04 01:03:00	BASE	21.90	120	25.21	114	-0.6	69	-5.5	0	0	961.9	NA	0.0000		9999	8560	0	0	0
2019/08/04 01:04:00	BASE	23.72	121	27.68	127	-0.6	69	-5.5	0	0	961.8	NA	0.0000		9999	8040	0	0	0
2019/08/04 01:05:00	BASE	25.51	119	27.68	127	-0.6	69	-5.5	0	0	961.8	NA	0.0000		9999	8140	0	0	0
2019/08/04 01:06:00	BASE	24.13	117	27.68	127	-0.5	69	-5.6	0	0	961.9	NA	0.0000		9999	3670	0	0	0
2019/08/04 01:07:00	BASE	22.95	119	27.68	127	-0.5	68	-5.7	0	0	961.8	NA	0.0000		9999	8200	0	0	0
2019/08/04 01:08:00	BASE	21.11	119	27.68	127	-0.5	68	-5.7	0	0	961.9	NA	0.0000		9999	8100	0	0	0
2019/08/04 01:09:00	BASE	17.39	120	27.68	127	-0.5	68	-5.7	0	0	962.0	NA	0.0000		9999	8200	0	0	0
2019/08/04 01:10:00	BASE	15.78	119	27.68	127	-0.5	68	-5.6	0	0	962.0	NA	0.0000		9999	7870	0	0	0
2019/08/04 01:11:00	BASE	15.20	120	27.68	127	-0.6	69	-5.6	0	0	962.0	NA	0.0000		9000	7870	0	0	0
2019/08/04 01:12:00	BASE	14.73	119	27.68	127	-0.6	69	-5.6	0	0	962.0	NA	0.0000		9999	8270	0	0	0
2019/08/04 01:13:00	BASE	16.94	120	27.68	127	-0.6	69	-5.6	0	0	961.8	NA	0.0000		9999	7680	0	0	0
2019/08/04 01:14:00	BASE	20.07	119	27.42	114	-0.6	69	-5.7	0	0	961.8	NA	0.0000		9999	7610	0	0	0
2019/08/04 01:15:00	BASE	20.97	108	25.36	113	-0.6	68	-5.7	0	0	961.8	NA	0.0000		9999	7680	0	0	0
2019/08/04 01:16:00	BASE	19.96	109	25.36	113	-0.6	68	-5.8	0	0	961.9	NA	0.0000	HZ	9999	8040	0	0	0
2019/08/04 01:17:00	BASE	20.44	120	23.97	123	-0.6	67	-5.9	0	0	961.7	NA	0.0000	HZ	9999	8100	0	0	0
2019/08/04 01:18:00	BASE	22.31	122	24.23	127	-0.6	67	-5.9	0	0	961.7	NA	0.0000	HZ	9000	8040	0	0	0
2019/08/04 01:19:00	BASE	21.54	121	24.23	127	-0.6	67	-6.0	0	0	961.7	NA	0.0000	HZ	9000	8010	0	0	0
2019/08/04 01:20:00	BASE	19.92	117	24.23	127	-0.6	67	-5.9	0	0	961.8	NA	0.0000	HZ	9000	7610	0	0	0
2019/08/04 01:21:00	BASE	18.47	108	24.23	127	-0.7	68	-5.8	0	0	961.7	NA	0.0000	HZ	9000	7840	0	0	0
2019/08/04 01:22:00	BASE	16.86	108	24.23	127	-0.7	68	-5.8	0	0	961.7	NA	0.0000	HZ	9000	8140	0	0	0
2019/08/04 01:23:00	BASE	17.07	107	24.23	127	-0.7	68	-5.8	0	0	961.7	NA	0.0000	HZ	9000	8200	0	0	0
2019/08/04 01:24:00	BASE	17.97	104	24.23	127	-0.6	68	-5.8	0	0	961.7	NA	0.0000	HZ	9000	8170	0	0	0
2019/08/04 01:25:00	BASE	18.20	114	24.23	127	-0.6	67	-5.9	0	0	961.6	NA	0.0000	HZ	9000	7610	0	0	0
2019/08/04 01:26:00	BASE	18.47	115	24.23	127	-0.6	67	-6.0	0	0	961.6	NA	0.0000	HZ	9000	7380	0	0	0
2019/08/04 01:27:00	BASE	19.24	111	24.23	127	-0.6	67	-6.1	0	0	961.5	NA	0.0000	HZ	9000	7480	0	0	0
2019/08/04 01:28:00	BASE	18.76	119	22.17	131	-0.6	66	-6.1	0	0	961.5	NA	0.0000	HZ	9000	7610	0	0	0
2019/08/04 01:29:00	BASE	17.30	119	21.92	115	-0.6	66	-6.2	0	0	961.5	NA	0.0000	HZ	8000	7810	0	0	0
2019/08/04 01:30:00	BASE	18.71	111	25.10	105	-0.7	66	-6.2	0	0	961.5	NA	0.0000	HZ	9000	7740	0	0	0
2019/08/04 01:31:00	BASE	22.04	113	25.31	115	-0.7	67	-6.1	0	0	961.4	NA	0.0000	HZ	9000	7380	0	0	0
2019/08/04 01:32:00	BASE	21.99	115	25.31	115	-0.7	67	-6.1	0	0	961.6	NA	0.0000	HZ	8000	6690	0	0	0
2019/08/04 01:33:00	BASE	19.35	114	25.31	115	-0.7	67	-6.1	0	0	961.5	NA	0.0000	HZ	9000	7450	0	0	0
2019/08/04 01:34:00	BASE	18.83	117	25.31	115	-0.8	67	-6.0	0	0	961.5	NA	0.0000	HZ	8000	7480	0	0	0
2019/08/04 01:35:00	BASE	18.39	119	25.31	115	-0.7	67	-6.1	0	0	961.5	NA	0.0000	HZ	8000	7050	0	0	0
2019/08/04 01:36:00	BASE	19.00	117	25.31	115	-0.7	67	-6.1	0	0	961.5	NA	0.0000	HZ	8000	7610	0	0	0
2019/08/04 01:37:00	BASE	22.10	115	27.78	122	-0.7	66	-6.2	0	0	961.4	NA	0.0000	HZ	8000	7380	0	0	0
2019/08/04 01:38:00	BASE	24.33	120	27.78	120	-0.8	66	-6.3	0	0	961.3	NA	0.0000	HZ	8000	6530	0	0	0
2019/08/04 01:39:00	BASE	23.78	122	27.78	120	-0.8	66	-6.3	0	0	961.3	NA	0.0000	HZ	8000	6430	0	0	0
2019/08/04 01:40:00	BASE	22.02	120	27.78	120	-0.8	67	-6.3	0	0	961.4	NA	0.0000	HZ	8000	7380	0	0	0
2019/08/04 01:41:00	BASE	22.18	114	27.78	120	-0.9	67	-6.2	0	0	961.3	NA	0.0000	HZ	7000	6660	0	0	0
2019/08/04 01:42:00	BASE	23.90	115	27.88	122	-0.9	67	-6.2	0	0	961.2	NA	0.0000	HZ	8000	7190	0	0	0
2019/08/04 01:43:00	BASE	24.35	120	27.88	122	-0.9	68	-6.2	0	0	961.1	NA	0.0000	HZ	9000	6270	0	0	0
2019/08/04 01:44:00	BASE	22.51	125	27.88	122	-0.9	68	-6.2	0	0	961.2	NA	0.0000	HZ	9999	7280	0	0	0
2019/08/04 01:45:00	BASE	19.85	124	27.88	122	-0.9	68	-6.1	0	0	961.3	NA	0.0000	HZ	9999	7450	0	0	0
2019/08/04 01:46:00	BASE	19.03	108	27.88	122	-0.9	67	-6.2	0	0	961.3	NA	0.0000	HZ	9999	7550	0	0	0
2019/08/04 01:47:00	BASE	19.58	95	27.88	122	-0.9	67	-6.3	0	0	961.2	NA	0.0000	HZ	9999	7350	0	0	0
2019/08/04 01:48:00	BASE	18.81	104	27.88	122	-0.8	66	-6.4	0	0	961.2	NA	0.0000	HZ	9999	6820	0	0	0
2019/08/04 01:49:00	BASE	18.76	114	27.88	122	-0.8	66	-6.4	0	0	961.1	NA	0.0000	HZ	9999	6760	0	0	0
2019/08/04 01:50:00	BASE	20.24	116	27.88	122	-0.9	66	-6.5	0	0	961.0	NA	0.0000	HZ	9999	7050	0	0	0
2019/08/04 01:51:00	BASE	20.04	119	27.88	122	-0.9	66	-6.5	0	0	961.0	NA	0.0000		9999	6990	0	0	0
2019/08/04 01:52:00	BASE	20.42	115	27.11	134	-0.9	66	-6.5	0	0	961.0	NA	0.0000		9000	7610	0	0	0
2019/08/04 01:53:00	BASE	19.75	104	24.95	96	-0.9	66	-6.5	0	0	961.2	NA	0.0000		9999	7510	0	0	0
2019/08/04 01:54:00	BASE	16.33	95	24.95	96	-0.9	66	-6.4	0	0	961.2	NA	0.0000		9999	7680	0	0	0
2019/08/04 01:55:00	BASE	15.29	99	24.95	96	-0.9	66	-6.4	0	0	961.2	NA	0.0000		9999	7740	0	0	0
2019/08/04 01:56:00	BASE	15.52	107	24.95	96	-0.9	66	-6.5	0	0	961.1	NA	0.0000		9999	7320	0	0	0
2019/08/04 01:57:00	BASE	15.23	105	24.74	106	-1.0	66	-6.5	0	0	961.1	NA	0.0000		9999	7350	0	0	0
2019/08/04 01:58:00	BASE	14.20	102	24.74	106	-1.0	67	-6.5	0	0	961.1	NA	0.0000	HZ	9999	7190	0	0	0
2019/08/04 01:59:00	BASE	13.63	99	24.74	106	-1.1	67	-6.4	0	0	961.1	NA	0.0000	HZ	9999	7420	0	0	0
2019/08/04 02:00:00	BASE	15.38	98	24.74	106	-1.2	68	-6.4	0	0	961.1	NA	0.0000	HZ	9999	7610	0	0	0
2019/08/04 02:01:00	BASE	16.46	100	24.74	106	-1.2	68	-6.3	0	0	961.1	NA	0.0000	HZ	9000	7350	0	0	0
2019/08/04 02:02:00	BASE	16.26	105	19.75	93	-1.3	69	-6.3	0	0	961.1	NA	0.0000	HZ	9000	7220	0	0	0
2019/08/04 02:03:00	BASE	17.07	102	21.25	93	-1.3	69	-6.2	0	0	961.1	NA	0.0000	HZ	9000	7220	0	0	0
2019/08/04 02:04:00	BASE	16.73	100	21.25	93	-1.2	69	-6.2	0	0	961.2	NA	0.0000	HZ	9000	7420	0	0	0
2019/08/04 02:05:00	BASE	14.82	97	21.25	93	-1.2	69	-6.2	0	0	961.2	NA	0.0000	HZ	9000	7480	0	0	0
2019/08/04 02:06:00	BASE	16.02	91	21.40	91	-1.1	68	-6.3	0	0	961.1	NA	0.0000	HZ	9000	7640	0	0	0
2019/08/04 02:07:00	BASE	17.56	90	21.40	91	-1.1	68	-6.3	0	0	961.1	NA	0.0000	HZ	9000	7320	0	0	0
2019/08/04 02:08:00	BASE	17.02	96	21.40	91	-1.1	67	-6.4	0	0	961.0	NA	0.0000	HZ	9000	7320	0	0	0
2019/08/04 02:09:00	BASE	17.31	104	21.40	91	-1.1	67	-6.5	0	0	961.1	NA	0.0000	HZ	9000	7280	0	0	0
2019/08/04 02:10:00	BASE	15.84	102	21.40	91	-1.2	67	-6.6	0	0	961.1	NA	0.0000	HZ	9000	7150	0	0	0
2019/08/04 02:11:00	BASE	16.05	106	21.40	91	-1.2	67	-6.6	0	0	961.0	NA	0.0000	HZ	9000	7350	0	0	0
2019/08/04 02:12:00	BASE	19.29	110	21.56	105	-1.2	66	-6.6	0	0	960.9	NA	0.0000	HZ	9000	7050	0	0	0
2019/08/04 02:13:00	BASE	20.10	109	21.56	105	-1.1	66	-6.7	0	0	961.0	NA	0.0000	HZ	9000	7350	0	0	0
2019/08/04 02:14:00	BASE	18.86	111	22.17	125	-1.1	66	-6.7	0	0	961.0	NA	0.0000	HZ	9000	7480	0	0	0
2019/08/04 02:15:00	BASE	19.44	109	30.09	115	-1.1	65	-6.8	0	0	961.0	NA	0.0000	HZ	9000	7190	0	0	0
2019/08/04 02:16:00	BASE	22.31	113	30.09	115	-1.1	65	-6.8	0	0	960.7	NA	0.0000	HZ	9000	7250	0	0	0
2019/08/04 02:17:00	BASE	21.00	116	30.09	115	-1.1	65	-6.9	0	0	960.9	NA	0.0000	HZ	9000	7090	0	0	0
2019/08/04 02:18:00	BASE	19.03	108	30.09	115	-1.1	65	-6.9	0	0	960.9	NA	0.0000	HZ	9999	6860	0	0	0
2019/08/04 02:19:00	BASE	20.80	104	30.09	115	-1.1	65	-7.0	0	0	960.8	NA	0.0000	HZ	9999	6860	0	0	0
2019/08/04 02:20:00	BASE	21.17	108	30.09	115	-1.2	65	-7.0	0	0	960.9	NA	0.0000	HZ	9999	6560	0	0	0
2019/08/04 02:21:00	BASE	19.70	106	30.09	115	-1.2	65	-7.0	0	0	960.9	NA	0.0000	HZ	9999	7190	0	0	0
2019/08/04 02:22:00	BASE	19.14	104	30.09	115	-1.3	65	-7.0	0	0	960.8	NA	0.0000		9999	7150	0	0	0
2019/08/04 02:23:00	BASE	20.23	104	30.09	115	-1.3	65	-7.0	0	0	960.7	NA	0.0000		9999	6730	0	0	0
2019/08/04 02:24:00	BASE	20.47	104	30.09	115	-1.3	65	-7.1	0	0	960.6	NA	0.0000		9999	6630	0	0	0
2019/08/04 02:25:00	BASE	18.65	109	27.93	110	-1.4	65	-7.1	0	0	960.7	NA	0.0000		9999	6860	0	0	0
2019/08/04 02:26:00	BASE	15.57	111	25.46	105	-1.4	65	-7.1	0	0	960.8	NA	0.0000		9999	6820	0	0	0
2019/08/04 02:27:00	BASE	16.71	106	25.46	105	-1.4	65	-7.1	0	0	960.6	NA	0.0000		9999	7580	0	0	0
2019/08/04 02:28:00	BASE	19.51	101	25.46	105	-1.4	65	-7.1	0	0	960.6	NA	0.0000		9999	7450	0	0	0
2019/08/04 02:29:00	BASE	20.51	105	24.54	99	-1.4	65	-7.2	0	0	960.6	NA	0.0000		9999	7420	0	0	0
2019/08/04 02:30:00	BASE	24.03	117	31.33	117	-1.4	65	-7.2	0	0	960.3	NA	0.0000		9999	7550	0	0	0
2019/08/04 02:31:00	BASE	23.57	119	31.33	117	-1.4	64	-7.2	0	0	960.5	NA	0.0000		9999	7320	0	0	0
2019/08/04 02:32:00	BASE	19.06	108	31.33	117	-1.4	64	-7.3	0	0	960.6	NA	0.0000		9999	7150	0	0	0
2019/08/04 02:33:00	BASE	16.46	106	31.33	117	-1.4	64	-7.4	0	0	960.7	NA	0.0000		9999	7120	0	0	0
2019/08/04 02:34:00	BASE	14.56	109	31.33	117	-1.5	64	-7.4	0	0	960.8	NA	0.0000		9999	6040	0	0	0
2019/08/04 02:35:00	BASE	15.76	110	31.33	117	-1.5	64	-7.4	0	0	960.6	NA	0.0000		9999	7640	0	0	0
2019/08/04 02:36:00	BASE	19.14	107	31.33	117	-1.6	65	-7.4	0	0	960.6	NA	0.0000		9999	5810	0	0	0
2019/08/04 02:37:00	BASE	22.62	101	31.33	117	-1.7	65	-7.3	0	0	960.5	NA	0.0000		9999	7350	0	0	0
2019/08/04 02:38:00	BASE	23.93	104	31.33	117	-1.7	66	-7.3	0	0	960.4	NA	0.0000		9999	7150	0	0	0
2019/08/04 02:39:00	BASE	20.44	105	31.33	117	-1.7	66	-7.2	0	0	960.5	NA	0.0000		9999	5870	0	0	0
2019/08/04 02:40:00	BASE	17.94	106	26.75	102	-1.7	66	-7.2	0	0	960.6	NA	0.0000		9999	6730	0	0	0
2019/08/04 02:41:00	BASE	19.62	113	28.04	104	-1.7	66	-7.2	0	0	960.4	NA	0.0000		9999	5050	0	0	0
2019/08/04 02:42:00	BASE	22.78	115	28.50	105	-1.7	66	-7.1	0	0	960.4	NA	0.0000		9999	5770	0	0	0
2019/08/04 02:43:00	BASE	25.28	110	28.50	107	-1.6	66	-7.2	0	0	960.2	NA	0.0000		9999	6960	0	0	0
2019/08/04 02:44:00	BASE	25.36	109	30.87	109	-1.6	66	-7.2	0	0	960.2	NA	0.0000		9999	7250	0	0	0
2019/08/04 02:45:00	BASE	24.66	110	30.87	109	-1.6	65	-7.2	0	0	960.2	NA	0.0000		9999	7020	0	0	0
2019/08/04 02:46:00	BASE	23.50	115	30.87	109	-1.6	65	-7.3	0	0	960.3	NA	0.0000		9999	7320	0	0	0
2019/08/04 02:47:00	BASE	24.94	117	33.85	105	-1.6	65	-7.3	0	0	960.0	NA	0.0000		9999	7020	0	0	0
2019/08/04 02:48:00	BASE	27.91	111	33.85	105	-1.6	65	-7.4	0	0	960.1	NA	0.0000		9999	7320	0	0	0
2019/08/04 02:49:00	BASE	25.97	103	33.85	105	-1.6	65	-7.3	0	0	960.2	NA	0.0000		9999	7420	0	0	0
2019/08/04 02:50:00	BASE	21.27	103	33.85	105	-1.7	65	-7.3	0	0	960.3	NA	0.0000		9999	5180	0	0	0
2019/08/04 02:51:00	BASE	19.01	107	33.85	105	-1.7	66	-7.3	0	0	960.3	NA	0.0000		9999	4130	0	0	0
2019/08/04 02:52:00	BASE	21.64	108	33.85	105	-1.8	66	-7.2	0	0	960.2	NA	0.0000		9999	6430	0	0	0
2019/08/04 02:53:00	BASE	22.05	101	33.85	105	-1.8	67	-7.1	0	0	960.4	NA	0.0000		9999	6500	0	0	0
2019/08/04 02:54:00	BASE	18.74	102	33.85	105	-1.8	67	-7.0	0	0	960.5	NA	0.0000		9999	4330	0	0	0
2019/08/04 02:55:00	BASE	19.55	112	33.85	105	-1.8	67	-7.0	0	0	960.4	NA	0.0000		9999	5510	0	0	0
2019/08/04 02:56:00	BASE	19.61	110	33.85	105	-1.7	67	-7.0	0	0	960.6	NA	0.0000		9999	5410	0	0	0
2019/08/04 02:57:00	BASE	16.36	96	31.95	116	-1.6	67	-7.0	0	0	960.6	NA	0.0000		9999	6990	0	0	0
2019/08/04 02:58:00	BASE	15.86	89	27.11	101	-1.7	67	-7.1	0	0	960.5	NA	0.0000		9999	7020	0	0	0
2019/08/04 02:59:00	BASE	14.63	97	26.65	110	-1.7	67	-7.1	0	0	960.6	NA	0.0000		9999	6660	0	0	0
2019/08/04 03:00:00	BASE	11.81	107	26.65	110	-1.7	67	-7.1	0	0	960.6	NA	0.0000		9999	6860	0	0	0
2019/08/04 03:01:00	BASE	12.99	108	26.65	110	-1.7	67	-7.1	0	0	960.6	NA	0.0000		9999	6920	0	0	0
2019/08/04 03:02:00	BASE	18.39	104	23.72	108	-1.8	67	-7.1	0	0	960.4	NA	0.0000		9999	7480	0	0	0
2019/08/04 03:03:00	BASE	20.19	111	23.72	108	-1.7	67	-7.1	0	0	960.5	NA	0.0000	SQ	9999	5450	0	0	0
2019/08/04 03:04:00	BASE	18.46	123	23.72	108	-1.7	66	-7.1	0	0	960.5	NA	0.0000		9999	5320	0	0	0
2019/08/04 03:05:00	BASE	17.88	120	23.72	108	-1.6	66	-7.2	0	0	960.7	NA	0.0000		9999	5410	0	0	0
2019/08/04 03:06:00	BASE	15.60	109	23.72	108	-1.6	65	-7.3	0	0	960.9	NA	0.0000		9999	5180	0	0	0
2019/08/04 03:07:00	BASE	14.59	106	23.72	108	-1.7	65	-7.4	0	0	960.9	NA	0.0000		9999	5910	0	0	0
2019/08/04 03:08:00	BASE	14.17	105	23.72	108	-1.8	65	-7.5	0	0	960.9	NA	0.0000		9999	6100	0	0	0
2019/08/04 03:09:00	BASE	15.18	105	23.72	108	-2.0	66	-7.4	0	0	960.7	NA	0.0000		9999	5680	0	0	0
2019/08/04 03:10:00	BASE	17.37	104	23.72	108	-2.1	68	-7.3	0	0	960.6	NA	0.0000		9999	6500	0	0	0
2019/08/04 03:11:00	BASE	18.03	109	23.72	108	-2.2	69	-7.2	0	0	960.5	NA	0.0000	UP	9999	5840	0	0	0
2019/08/04 03:12:00	BASE	18.77	117	22.74	138	-2.3	70	-7.0	0	0	960.5	NA	0.0000	UP	9999	5180	6300	0	0
2019/08/04 03:13:00	BASE	21.39	113	27.06	118	-2.2	70	-6.9	0	0	960.4	NA	0.0000	UP	9999	7280	0	0	0
2019/08/04 03:14:00	BASE	22.75	107	27.06	118	-2.1	70	-6.9	0	0	960.5	NA	0.0000	UP	9999	6300	0	0	0
2019/08/04 03:15:00	BASE	20.96	109	27.06	118	-2.1	69	-7.0	0	0	960.4	NA	0.0000	UP	9999	4460	0	0	0
2019/08/04 03:16:00	BASE	21.25	115	27.06	118	-2.0	68	-7.1	0	0	960.4	NA	0.0000	UP	9999	6790	0	0	0
2019/08/04 03:17:00	BASE	21.56	113	27.06	118	-2.0	67	-7.2	0	0	960.5	NA	0.0000	UP	9999	5090	0	0	0
2019/08/04 03:18:00	BASE	19.19	108	27.06	118	-2.0	67	-7.4	0	0	960.6	NA	0.0000	UP	9999	4720	0	0	0
2019/08/04 03:19:00	BASE	17.24	107	27.06	118	-2.0	66	-7.4	0	0	960.5	NA	0.0000	UP	9999	6370	0	0	0
2019/08/04 03:20:00	BASE	18.20	109	27.06	118	-2.0	66	-7.4	0	0	960.4	NA	0.0000	UP	9999	5710	0	0	0
2019/08/04 03:21:00	BASE	18.22	110	27.06	118	-2.0	66	-7.4	0	0	960.4	NA	0.0000	UP	9999	5450	0	0	0
2019/08/04 03:22:00	BASE	18.28	111	27.06	118	-2.0	66	-7.4	0	0	960.4	NA	0.0000	UP	9999	6990	0	0	0
2019/08/04 03:23:00	BASE	20.39	110	27.01	114	-2.0	66	-7.4	0	0	960.4	NA	0.0000	UP	9999	6560	0	0	0
2019/08/04 03:24:00	BASE	19.99	105	27.01	114	-2.0	66	-7.4	0	0	960.5	NA	0.0000	UP	9999	6760	0	0	0
2019/08/04 03:25:00	BASE	19.48	97	27.01	114	-2.0	66	-7.4	0	0	960.5	NA	0.0000	UP	9999	4760	0	0	0
2019/08/04 03:26:00	BASE	20.54	94	25.21	93	-2.0	67	-7.3	0	0	960.5	NA	0.0000	UP	9999	4990	0	0	0
2019/08/04 03:27:00	BASE	21.09	93	25.62	84	-2.0	67	-7.3	0	0	960.4	NA	0.0000	UP	9999	4760	0	0	0
2019/08/04 03:28:00	BASE	22.37	91	25.62	84	-2.0	67	-7.3	0	0	960.4	NA	0.0000	UP	9999	4790	0	0	0
2019/08/04 03:29:00	BASE	21.79	92	25.62	84	-2.1	68	-7.2	0	0	960.4	NA	0.0000	UP	9999	4760	0	0	0
2019/08/04 03:30:00	BASE	18.42	94	25.62	84	-2.1	68	-7.2	0	0	960.5	NA	0.0000	UP	9999	4760	0	0	0
2019/08/04 03:31:00	BASE	17.60	96	25.62	84	-2.2	69	-7.2	0	0	960.5	NA	0.0000	UP	9999	4300	0	0	0
2019/08/04 03:32:00	BASE	18.30	100	25.62	84	-2.3	69	-7.1	0	0	960.4	NA	0.0000	UP	9999	3540	0	0	0
2019/08/04 03:33:00	BASE	19.07	96	25.62	84	-2.3	69	-7.1	0	0	960.4	NA	0.0000	UP	9999	3580	4330	0	0
2019/08/04 03:34:00	BASE	18.63	92	25.62	84	-2.3	69	-7.1	0	0	960.4	NA	0.0000	UP	9999	3380	4200	0	0
2019/08/04 03:35:00	BASE	15.43	96	25.62	84	-2.3	69	-7.1	0	0	960.4	NA	0.0000	UP	9999	4330	0	0	0
2019/08/04 03:36:00	BASE	15.44	101	25.62	84	-2.3	69	-7.1	0	0	960.4	NA	0.0000	UP	9999	3510	0	0	0
2019/08/04 03:37:00	BASE	18.13	100	24.64	91	-2.3	69	-7.1	0	0	960.4	NA	0.0000	UP	9999	3870	0	0	0
2019/08/04 03:38:00	BASE	18.60	94	23.46	98	-2.3	69	-7.2	0	0	960.3	NA	0.0000	UP	9999	3840	0	0	0
2019/08/04 03:39:00	BASE	17.09	91	23.46	98	-2.2	69	-7.2	0	0	960.3	NA	0.0000	UP	9999	4530	0	0	0
2019/08/04 03:40:00	BASE	14.87	97	23.46	98	-2.1	68	-7.2	0	0	960.4	NA	0.0000	UP	9999	4360	0	0	0
2019/08/04 03:41:00	BASE	14.87	105	23.46	98	-2.0	67	-7.3	0	0	960.3	NA	0.0000	UP	9999	6140	0	0	0
2019/08/04 03:42:00	BASE	15.65	100	23.46	98	-1.9	67	-7.3	0	0	960.4	NA	0.0000		9999	5580	0	0	0
2019/08/04 03:43:00	BASE	17.50	100	23.46	113	-1.9	66	-7.4	0	0	960.3	NA	0.0000	UP	9999	5320	0	0	0
2019/08/04 03:44:00	BASE	20.09	105	23.46	113	-1.9	65	-7.5	0	0	960.2	NA	0.0000	UP	9999	0	0	0	5540
2019/08/04 03:45:00	BASE	19.43	105	23.46	113	-1.9	65	-7.6	0	0	960.3	NA	0.0000	UP	9999	5320	0	0	0
2019/08/04 03:46:00	BASE	18.87	103	23.46	113	-1.9	64	-7.7	0	0	960.2	NA	0.0000	UP	9999	5320	0	0	0
2019/08/04 03:47:00	BASE	17.78	105	23.46	113	-1.9	64	-7.8	0	0	960.3	NA	0.0000	UP	9999	4820	0	0	0
2019/08/04 03:48:00	BASE	19.39	109	28.45	108	-1.9	64	-7.8	0	0	960.1	NA	0.0000	UP	9999	3310	0	0	0
2019/08/04 03:49:00	BASE	23.77	108	28.45	108	-1.9	64	-7.8	0	0	960.0	NA	0.0000	UP	9999	4230	0	0	0
2019/08/04 03:50:00	BASE	24.02	106	28.45	108	-1.9	64	-7.8	0	0	960.1	NA	0.0000	UP	9999	5770	0	0	0
2019/08/04 03:51:00	BASE	21.35	105	28.45	108	-1.9	64	-7.8	0	0	960.1	NA	0.0000	UP	9999	3710	0	0	0
2019/08/04 03:52:00	BASE	19.44	112	28.45	108	-1.9	63	-8.0	0	0	960.1	NA	0.0000	UP	9999	3410	0	0	0
2019/08/04 03:53:00	BASE	21.08	116	28.45	108	-1.9	63	-8.1	0	0	959.9	NA	0.0000	UP	9999	2790	0	0	0
2019/08/04 03:54:00	BASE	22.41	115	28.45	108	-1.8	62	-8.1	0	0	960.0	NA	0.0000	UP	9999	3350	0	0	0
2019/08/04 03:55:00	BASE	18.82	108	28.45	108	-1.8	62	-8.1	0	0	960.1	NA	0.0000	UP	9999	3610	4860	0	0
2019/08/04 03:56:00	BASE	15.82	101	28.45	108	-1.8	62	-8.1	0	0	960.0	NA	0.0000	UP	9999	4000	4890	0	0
2019/08/04 03:57:00	BASE	15.55	97	28.45	108	-1.8	62	-8.1	0	0	960.0	NA	0.0000	UP	9999	3120	0	0	0
2019/08/04 03:58:00	BASE	16.08	104	28.24	108	-1.8	62	-8.2	0	0	959.9	NA	0.0000	UP	9999	3770	0	0	0
2019/08/04 03:59:00	BASE	18.27	117	25.41	118	-1.9	62	-8.2	0	0	959.8	NA	0.0000	UP	9999	5510	0	0	0
2019/08/04 04:00:00	BASE	21.06	117	26.24	115	-1.9	62	-8.3	0	0	959.7	NA	0.0000	UP	9999	3310	0	0	0
2019/08/04 04:01:00	BASE	23.43	115	26.24	115	-2.0	62	-8.3	0	0	959.6	NA	0.0000		9999	3410	0	0	0
2019/08/04 04:02:00	BASE	22.64	113	26.60	108	-2.0	63	-8.2	0	0	959.8	NA	0.0000		9999	3310	0	0	0
2019/08/04 04:03:00	BASE	23.27	109	29.17	107	-2.0	63	-8.1	0	0	959.6	NA	0.0000		9999	3740	0	0	0
2019/08/04 04:04:00	BASE	23.21	107	29.17	107	-2.0	63	-8.1	0	0	959.8	NA	0.0000		9999	3080	4330	0	0
2019/08/04 04:05:00	BASE	23.54	107	29.17	107	-2.1	64	-8.1	0	0	959.5	NA	0.0000		9999	3310	0	0	0
2019/08/04 04:06:00	BASE	28.20	110	31.07	116	-2.1	64	-8.1	0	0	959.4	NA	0.0000		9999	5970	0	0	0
2019/08/04 04:07:00	BASE	28.22	115	31.07	116	-2.1	64	-8.1	0	0	959.5	NA	0.0000		9999	3640	0	0	0
2019/08/04 04:08:00	BASE	27.52	117	31.95	113	-2.1	63	-8.2	0	0	959.5	NA	0.0000		9999	3740	0	0	0
2019/08/04 04:09:00	BASE	26.53	116	31.95	113	-2.1	63	-8.2	0	0	959.6	NA	0.0000		9999	6370	0	0	0
2019/08/04 04:10:00	BASE	25.19	113	31.95	113	-2.1	63	-8.3	0	0	959.5	NA	0.0000		9999	3310	0	0	0
2019/08/04 04:11:00	BASE	25.99	108	31.95	113	-2.1	62	-8.3	0	0	959.5	NA	0.0000		9999	5910	0	0	0
2019/08/04 04:12:00	BASE	26.75	103	31.95	113	-2.1	62	-8.4	0	0	959.5	NA	0.0000		9999	5740	0	0	0
2019/08/04 04:13:00	BASE	25.87	101	31.95	113	-2.2	63	-8.4	0	0	959.5	NA	0.0000		9999	5680	0	0	0
2019/08/04 04:14:00	BASE	25.38	102	31.95	113	-2.3	63	-8.4	0	0	959.5	NA	0.0000		9999	5910	0	0	0
2019/08/04 04:15:00	BASE	24.83	99	31.95	113	-2.4	63	-8.4	0	0	959.5	NA	0.0000		9999	5350	0	0	0
2019/08/04 04:16:00	BASE	22.87	98	31.95	113	-2.5	64	-8.4	0	0	959.5	NA	0.0000		9999	5740	0	0	0
2019/08/04 04:17:00	BASE	21.77	102	31.95	113	-2.5	64	-8.4	0	0	959.4	NA	0.0000		9999	6070	0	0	0
2019/08/04 04:18:00	BASE	23.83	104	29.94	115	-2.6	65	-8.3	0	0	959.2	NA	0.0000		9999	5580	0	0	0
2019/08/04 04:19:00	BASE	25.90	103	29.94	115	-2.6	66	-8.2	0	0	959.3	NA	0.0000		9999	6300	0	0	0
2019/08/04 04:20:00	BASE	25.36	100	29.84	97	-2.7	66	-8.2	0	0	959.3	NA	0.0000		9999	6890	0	0	0
2019/08/04 04:21:00	BASE	24.96	98	29.58	106	-2.7	66	-8.1	0	0	959.2	NA	0.0000		9999	6660	0	0	0
2019/08/04 04:22:00	BASE	24.46	100	29.48	104	-2.7	66	-8.1	0	0	959.2	NA	0.0000		9999	7150	0	0	0
2019/08/04 04:23:00	BASE	24.59	103	29.48	104	-2.8	66	-8.2	0	0	959.2	NA	0.0000		9999	7740	0	0	0
2019/08/04 04:24:00	BASE	25.62	105	29.63	107	-2.8	66	-8.2	0	0	959.1	NA	0.0000		9999	7910	0	0	0
2019/08/04 04:25:00	BASE	26.38	106	29.63	107	-2.9	66	-8.3	0	0	959.1	NA	0.0000		9999	8300	0	0	0
2019/08/04 04:26:00	BASE	25.90	107	29.63	107	-2.9	67	-8.2	0	0	959.2	NA	0.0000		9999	7740	0	0	0
2019/08/04 04:27:00	BASE	25.67	105	29.63	107	-2.9	67	-8.2	0	0	959.2	NA	0.0000		9999	7740	0	0	0
2019/08/04 04:28:00	BASE	24.19	107	29.63	107	-2.9	67	-8.2	0	0	959.2	NA	0.0000		9999	7640	0	0	0
2019/08/04 04:29:00	BASE	25.15	105	32.56	106	-2.9	67	-8.1	0	0	959.0	NA	0.0000		9999	7510	0	0	0
2019/08/04 04:30:00	BASE	26.64	103	32.56	106	-2.8	67	-8.1	0	0	959.0	NA	0.0000		9999	7280	0	0	0
2019/08/04 04:31:00	BASE	25.99	104	32.56	106	-2.8	67	-8.1	0	0	959.0	NA	0.0000		9999	8040	0	0	0
2019/08/04 04:32:00	BASE	26.48	107	32.56	106	-2.8	67	-8.1	0	0	958.9	NA	0.0000		9999	7870	0	0	0
2019/08/04 04:33:00	BASE	27.66	105	32.56	106	-2.7	66	-8.1	0	0	958.9	NA	0.0000		9999	8240	0	0	0
2019/08/04 04:34:00	BASE	27.59	101	32.56	106	-2.7	66	-8.2	0	0	959.0	NA	0.0000		9999	8270	0	0	0
2019/08/04 04:35:00	BASE	26.26	102	32.56	106	-2.7	65	-8.2	0	0	959.0	NA	0.0000		9999	8330	0	0	0
2019/08/04 04:36:00	BASE	27.25	107	32.56	106	-2.6	65	-8.3	0	0	958.9	NA	0.0000		9999	8140	0	0	0
2019/08/04 04:37:00	BASE	25.97	111	32.56	106	-2.6	65	-8.4	0	0	959.0	NA	0.0000		9999	8070	0	0	0
2019/08/04 04:38:00	BASE	22.56	110	32.56	106	-2.6	64	-8.4	0	0	959.1	NA	0.0000		9999	8240	0	0	0
2019/08/04 04:39:00	BASE	22.93	109	31.33	107	-2.7	65	-8.4	0	0	959.0	NA	0.0000		9999	8100	0	0	0
2019/08/04 04:40:00	BASE	25.30	107	31.33	107	-2.7	65	-8.4	0	0	959.0	NA	0.0000		9999	7940	0	0	0
2019/08/04 04:41:00	BASE	27.61	106	31.54	101	-2.8	65	-8.4	0	0	958.9	NA	0.0000		9999	7910	0	0	0
2019/08/04 04:42:00	BASE	27.56	110	31.54	101	-2.8	66	-8.4	0	0	959.0	NA	0.0000		9999	7740	0	0	0
2019/08/04 04:43:00	BASE	25.57	113	31.54	101	-2.9	66	-8.4	0	0	959.0	NA	0.0000		9999	4100	0	0	0
2019/08/04 04:44:00	BASE	26.04	112	31.54	109	-2.9	66	-8.4	0	0	959.0	NA	0.0000		9999	4560	0	0	0
2019/08/04 04:45:00	BASE	24.13	110	31.54	109	-2.9	66	-8.4	0	0	959.1	NA	0.0000		9999	4490	0	0	0
2019/08/04 04:46:00	BASE	22.38	107	31.54	109	-2.9	66	-8.4	0	0	959.1	NA	0.0000		9999	4430	0	0	0
2019/08/04 04:47:00	BASE	23.98	107	31.54	109	-2.9	66	-8.3	0	0	959.0	NA	0.0000		9999	4690	0	0	0
2019/08/04 04:48:00	BASE	25.65	109	31.54	109	-2.9	67	-8.3	0	0	958.9	NA	0.0000		9999	4360	7710	0	0
2019/08/04 04:49:00	BASE	28.24	106	32.98	103	-3.0	67	-8.3	0	0	958.8	NA	0.0000		9999	7910	0	0	0
2019/08/04 04:50:00	BASE	29.23	101	32.98	103	-3.0	67	-8.3	0	0	958.8	NA	0.0000		9999	7740	0	0	0
2019/08/04 04:51:00	BASE	27.41	102	32.98	103	-3.0	67	-8.3	0	0	958.8	NA	0.0000		9999	7510	0	0	0
2019/08/04 04:52:00	BASE	25.95	105	32.98	103	-3.0	67	-8.3	0	0	958.8	NA	0.0000		9999	7510	0	0	0
2019/08/04 04:53:00	BASE	25.65	107	32.98	103	-3.0	67	-8.4	0	0	958.8	NA	0.0000		9999	7510	0	0	0
2019/08/04 04:54:00	BASE	25.36	107	32.98	103	-3.0	67	-8.4	0	0	958.8	NA	0.0000		9999	7420	0	0	0
2019/08/04 04:55:00	BASE	26.83	106	32.98	103	-3.1	67	-8.4	0	0	958.6	NA	0.0000		9999	3840	0	0	0
2019/08/04 04:56:00	BASE	27.69	106	32.98	103	-3.1	67	-8.5	0	0	958.7	NA	0.0000		9999	3810	0	0	0
2019/08/04 04:57:00	BASE	26.72	108	32.98	103	-3.2	67	-8.5	0	0	958.7	NA	0.0000		9999	7780	0	0	0
2019/08/04 04:58:00	BASE	24.97	108	32.98	103	-3.2	67	-8.4	0	0	958.8	NA	0.0000		9999	7610	0	0	0
2019/08/04 04:59:00	BASE	24.15	109	31.18	108	-3.2	67	-8.4	0	0	958.8	NA	0.0000		9999	3870	0	0	0
2019/08/04 05:00:00	BASE	26.04	108	30.40	107	-3.1	67	-8.4	0	0	958.8	NA	0.0000		9999	7610	0	0	0
2019/08/04 05:01:00	BASE	27.11	109	30.40	107	-3.1	67	-8.4	0	0	958.8	NA	0.0000		9999	3740	0	0	0
2019/08/04 05:02:00	BASE	26.47	113	30.25	107	-3.0	66	-8.4	0	0	958.8	NA	0.0000		9999	4100	0	0	0
2019/08/04 05:03:00	BASE	26.24	114	30.25	107	-3.0	66	-8.5	0	0	958.7	NA	0.0000		9999	7910	0	0	0
2019/08/04 05:04:00	BASE	25.39	113	30.25	107	-3.0	66	-8.5	0	0	958.8	NA	0.0000		9999	7970	0	0	0
2019/08/04 05:05:00	BASE	25.58	113	29.63	108	-3.0	65	-8.6	0	0	958.7	NA	0.0000		9999	7910	0	0	0
2019/08/04 05:06:00	BASE	25.36	114	29.63	108	-3.0	65	-8.7	0	0	958.8	NA	0.0000		9999	7780	0	0	0
2019/08/04 05:07:00	BASE	23.38	114	29.63	108	-3.0	65	-8.7	0	0	958.9	NA	0.0000		9999	7450	0	0	0
2019/08/04 05:08:00	BASE	23.99	110	29.63	108	-2.9	65	-8.6	0	0	958.8	NA	0.0000		9999	7510	0	0	0
2019/08/04 05:09:00	BASE	26.02	108	31.07	103	-2.9	65	-8.6	0	0	958.7	NA	0.0000	HZ	9000	7150	0	0	0
2019/08/04 05:10:00	BASE	26.75	109	31.07	103	-2.9	65	-8.6	0	0	958.7	NA	0.0000	HZ	9000	7380	0	0	0
2019/08/04 05:11:00	BASE	26.07	112	31.07	103	-2.9	65	-8.6	0	0	958.7	NA	0.0000	HZ	9999	7220	0	0	0
2019/08/04 05:12:00	BASE	26.55	113	31.07	103	-2.9	65	-8.6	0	0	958.7	NA	0.0000	HZ	9999	7280	0	0	0
2019/08/04 05:13:00	BASE	25.74	114	31.07	103	-2.9	65	-8.7	0	0	958.8	NA	0.0000	HZ	9999	7050	0	0	0
2019/08/04 05:14:00	BASE	23.17	116	31.07	103	-2.9	64	-8.7	0	0	958.9	NA	0.0000	HZ	9000	7020	0	0	0
2019/08/04 05:15:00	BASE	21.22	116	31.07	103	-2.9	64	-8.7	0	0	959.0	NA	0.0000	HZ	9999	7120	0	0	0
2019/08/04 05:16:00	BASE	17.82	118	31.07	103	-2.8	64	-8.7	0	0	959.1	NA	0.0000	HZ	9999	6960	0	0	0
2019/08/04 05:17:00	BASE	17.33	122	31.07	103	-2.9	64	-8.6	0	0	959.0	NA	0.0000	HZ	9000	6790	0	0	0
2019/08/04 05:18:00	BASE	19.80	122	31.07	103	-2.8	65	-8.6	0	0	958.9	NA	0.0000	HZ	9999	6760	0	0	0
2019/08/04 05:19:00	BASE	22.04	118	29.84	107	-2.8	65	-8.6	0	0	958.9	NA	0.0000	HZ	9999	6760	0	0	0
2019/08/04 05:20:00	BASE	24.71	114	29.84	107	-2.8	64	-8.6	0	0	958.9	NA	0.0000	HZ	9000	6430	0	0	0
2019/08/04 05:21:00	BASE	24.62	114	29.84	107	-2.7	64	-8.6	0	0	958.9	NA	0.0000	HZ	9999	6330	0	0	0
2019/08/04 05:22:00	BASE	23.38	119	28.65	115	-2.7	63	-8.7	0	0	958.9	NA	0.0000	HZ	9999	6070	0	0	0
2019/08/04 05:23:00	BASE	22.36	123	28.65	115	-2.7	63	-8.8	0	0	959.0	NA	0.0000	HZ	9999	6100	0	0	0
2019/08/04 05:24:00	BASE	22.18	120	28.65	115	-2.8	63	-8.9	0	0	958.9	NA	0.0000	HZ	9000	6270	0	0	0
2019/08/04 05:25:00	BASE	23.34	116	28.65	115	-2.8	63	-8.9	0	0	958.9	NA	0.0000	HZ	9999	6200	0	0	0
2019/08/04 05:26:00	BASE	24.79	114	28.86	110	-2.8	63	-8.9	0	0	958.8	NA	0.0000	HZ	9999	5770	0	0	0
2019/08/04 05:27:00	BASE	26.07	114	29.07	118	-2.8	63	-8.9	0	0	958.8	NA	0.0000	HZ	9999	5480	0	0	0
2019/08/04 05:28:00	BASE	25.60	115	29.07	118	-2.9	63	-8.9	0	0	958.8	NA	0.0000	HZ	9000	5410	0	0	0
2019/08/04 05:29:00	BASE	24.97	115	29.07	118	-2.9	63	-9.0	0	0	958.7	NA	0.0000	HZ	9000	5380	0	0	0
2019/08/04 05:30:00	BASE	23.31	119	29.07	118	-2.9	63	-9.0	0	0	958.8	NA	0.0000	HZ	9000	5640	0	0	0
2019/08/04 05:31:00	BASE	20.26	122	29.07	118	-2.9	63	-9.0	0	0	958.9	NA	0.0000	HZ	9000	5380	0	0	0
2019/08/04 05:32:00	BASE	17.78	125	29.07	118	-2.8	63	-9.0	0	0	959.0	NA	0.0000	HZ	9000	5770	0	0	0
2019/08/04 05:33:00	BASE	17.25	130	29.07	118	-2.8	63	-8.9	0	0	958.9	NA	0.0000	HZ	9000	5510	0	0	0
2019/08/04 05:34:00	BASE	19.06	128	29.07	118	-2.7	63	-8.8	0	0	958.8	NA	0.0000	HZ	9000	5180	0	0	0
2019/08/04 05:35:00	BASE	21.23	117	29.07	118	-2.7	63	-8.8	0	0	958.8	NA	0.0000	HZ	9000	5090	0	0	0
2019/08/04 05:36:00	BASE	21.35	111	29.07	118	-2.7	63	-8.7	0	0	958.8	NA	0.0000	HZ	9000	5250	0	0	0
2019/08/04 05:37:00	BASE	20.80	116	28.40	113	-2.7	63	-8.7	0	0	958.8	NA	0.0000	HZ	9000	5320	0	0	0
2019/08/04 05:38:00	BASE	19.47	123	28.40	113	-2.8	63	-8.8	0	0	958.8	NA	0.0000	HZ	9000	5280	0	0	0
2019/08/04 05:39:00	BASE	17.96	130	23.77	107	-2.8	63	-8.9	0	0	958.7	NA	0.0000	HZ	9000	5350	0	0	0
2019/08/04 05:40:00	BASE	17.75	131	23.77	107	-2.8	62	-9.0	0	0	958.7	NA	0.0000	HZ	9000	5350	0	0	0
2019/08/04 05:41:00	BASE	18.06	119	23.77	107	-2.8	62	-9.0	0	0	958.7	NA	0.0000	HZ	9000	5280	0	0	0
2019/08/04 05:42:00	BASE	19.12	113	23.77	107	-2.8	62	-9.0	0	0	958.6	NA	0.0000	HZ	9000	5120	0	0	0
2019/08/04 05:43:00	BASE	19.63	118	23.77	107	-2.8	63	-8.9	0	0	958.6	NA	0.0000	HZ	9000	4690	0	0	0
2019/08/04 05:44:00	BASE	20.50	122	23.77	107	-2.8	63	-8.8	0	0	958.5	NA	0.0000	HZ	9000	5020	0	0	0
2019/08/04 05:45:00	BASE	20.39	126	23.41	124	-2.8	64	-8.7	0	0	958.6	NA	0.0000	HZ	9000	4860	0	0	0
2019/08/04 05:46:00	BASE	17.77	130	23.41	124	-2.8	64	-8.7	0	0	958.6	NA	0.0000	HZ	9000	2260	0	0	0
2019/08/04 05:47:00	BASE	18.05	132	23.41	124	-2.9	64	-8.7	0	0	958.5	NA	0.0000	HZ	9999	4760	0	0	0
2019/08/04 05:48:00	BASE	19.50	128	23.41	124	-2.9	65	-8.6	0	0	958.5	NA	0.0000	HZ	9999	5020	0	0	0
2019/08/04 05:49:00	BASE	20.00	126	23.77	134	-2.9	65	-8.6	0	0	958.4	NA	0.0000	HZ	9999	4790	0	0	0
2019/08/04 05:50:00	BASE	21.02	126	23.77	134	-2.8	65	-8.5	0	0	958.4	NA	0.0000		9999	4660	0	0	0
2019/08/04 05:51:00	BASE	19.95	128	23.77	134	-2.8	65	-8.5	0	0	958.5	NA	0.0000		9999	5090	0	0	0
2019/08/04 05:52:00	BASE	18.95	132	23.77	134	-2.8	65	-8.5	0	0	958.5	NA	0.0000		9999	5020	0	0	0
2019/08/04 05:53:00	BASE	18.34	134	23.77	134	-2.8	65	-8.5	0	0	958.4	NA	0.0000		9999	5150	0	0	0
2019/08/04 05:54:00	BASE	18.55	134	23.77	134	-2.8	65	-8.5	0	0	958.4	NA	0.0000		9999	4920	0	0	0
2019/08/04 05:55:00	BASE	19.07	134	23.77	134	-2.7	65	-8.4	0	0	958.3	NA	0.0000		9999	5090	0	0	0
2019/08/04 05:56:00	BASE	18.59	132	23.77	134	-2.6	65	-8.4	0	0	958.4	NA	0.0000		9999	5640	0	0	0
2019/08/04 05:57:00	BASE	18.14	133	23.77	134	-2.5	65	-8.3	0	0	958.5	NA	0.0000		9999	5250	0	0	0
2019/08/04 05:58:00	BASE	18.32	133	23.77	134	-2.5	65	-8.2	0	0	958.4	NA	0.0000		9999	5150	0	0	0
2019/08/04 05:59:00	BASE	17.76	131	23.51	123	-2.4	64	-8.2	0	0	958.5	NA	0.0000		9999	4990	0	0	0
2019/08/04 06:00:00	BASE	15.62	128	21.61	139	-2.5	64	-8.3	0	0	958.5	NA	0.0000		9999	5120	0	0	0
2019/08/04 06:01:00	BASE	13.95	126	21.61	139	-2.5	64	-8.4	0	0	958.5	NA	0.0000		9999	5450	0	0	0
2019/08/04 06:02:00	BASE	14.08	124	21.61	139	-2.6	65	-8.4	0	0	958.4	NA	0.0000		9999	5090	0	0	0
2019/08/04 06:03:00	BASE	15.99	126	21.61	139	-2.7	65	-8.4	0	0	958.4	NA	0.0000		9999	4820	0	0	0
2019/08/04 06:04:00	BASE	16.94	129	20.89	128	-2.8	66	-8.3	0	0	958.4	NA	0.0000		9999	5090	0	0	0
2019/08/04 06:05:00	BASE	15.74	132	20.78	131	-2.8	67	-8.2	0	0	958.3	NA	0.0000		9999	4860	0	0	0
2019/08/04 06:06:00	BASE	14.30	138	20.78	131	-2.8	67	-8.1	0	0	958.3	NA	0.0000		9999	4630	0	0	0
2019/08/04 06:07:00	BASE	14.90	141	20.78	131	-2.8	67	-8.1	0	0	958.2	NA	0.0000		9999	4460	0	0	0
2019/08/04 06:08:00	BASE	17.17	136	20.63	131	-2.8	67	-8.0	0	0	958.2	NA	0.0000		9999	4660	0	0	0
2019/08/04 06:09:00	BASE	17.70	131	20.63	131	-2.6	67	-8.0	0	0	958.2	NA	0.0000		9999	4590	0	0	0
2019/08/04 06:10:00	BASE	17.09	131	20.63	131	-2.5	66	-7.9	0	0	958.3	NA	0.0000		9999	4890	0	0	0
2019/08/04 06:11:00	BASE	15.69	129	20.63	131	-2.4	66	-8.0	0	0	958.4	NA	0.0000		9999	4790	0	0	0
2019/08/04 06:12:00	BASE	12.38	127	20.63	131	-2.4	65	-8.0	0	0	958.5	NA	0.0000		9999	4720	0	0	0
2019/08/04 06:13:00	BASE	11.29	127	20.63	131	-2.3	65	-8.1	0	0	958.5	NA	0.0000		9999	4530	0	0	0
2019/08/04 06:14:00	BASE	12.88	130	20.63	131	-2.4	64	-8.2	0	0	958.3	NA	0.0000		9999	4560	0	0	0
2019/08/04 06:15:00	BASE	14.03	134	20.63	131	-2.4	65	-8.2	0	0	958.3	NA	0.0000		9999	4300	0	0	0
2019/08/04 06:16:00	BASE	15.84	133	20.63	131	-2.4	65	-8.1	0	0	958.2	NA	0.0000		9999	4400	0	0	0
2019/08/04 06:17:00	BASE	16.26	128	20.63	131	-2.4	65	-8.0	0	0	958.3	NA	0.0000		9999	4300	0	0	0
2019/08/04 06:18:00	BASE	15.51	124	19.24	132	-2.4	66	-7.9	0	0	958.3	NA	0.0000		9999	4200	0	0	0
2019/08/04 06:19:00	BASE	14.90	122	19.24	132	-2.4	66	-7.9	0	0	958.4	NA	0.0000		9999	4300	0	0	0
2019/08/04 06:20:00	BASE	12.66	119	19.24	132	-2.3	66	-7.8	0	0	958.4	NA	0.0000		9999	4130	0	0	0
2019/08/04 06:21:00	BASE	11.92	119	19.24	132	-2.3	66	-7.8	0	0	958.4	NA	0.0000		9999	4200	0	0	0
2019/08/04 06:22:00	BASE	12.53	118	19.24	132	-2.2	66	-7.7	0	0	958.5	NA	0.0000		9999	4400	0	0	0
2019/08/04 06:23:00	BASE	12.32	116	19.24	132	-2.2	66	-7.7	0	0	958.5	NA	0.0000		9999	4360	0	0	0
2019/08/04 06:24:00	BASE	12.28	116	19.24	132	-2.2	66	-7.7	0	0	958.5	NA	0.0000		9999	4590	0	0	0
2019/08/04 06:25:00	BASE	12.11	115	19.24	132	-2.2	66	-7.8	0	0	958.5	NA	0.0000		9999	4490	0	0	0
2019/08/04 06:26:00	BASE	10.89	116	18.88	125	-2.2	66	-7.8	0	0	958.4	NA	0.0000		9999	3900	0	0	0
2019/08/04 06:27:00	BASE	10.05	120	18.88	125	-2.3	66	-7.8	0	0	958.5	NA	0.0000		9999	4100	0	0	0
2019/08/04 06:28:00	BASE	8.84	115	16.41	130	-2.3	66	-7.8	0	0	958.5	NA	0.0000		9999	4130	0	0	0
2019/08/04 06:29:00	BASE	8.86	104	14.46	134	-2.4	67	-7.7	0	0	958.4	NA	0.0000		9999	4200	0	0	0
2019/08/04 06:30:00	BASE	11.11	97	15.28	99	-2.4	68	-7.6	0	0	958.4	NA	0.0000		9999	4270	0	0	0
2019/08/04 06:31:00	BASE	11.73	98	15.28	99	-2.4	68	-7.5	0	0	958.4	NA	0.0000		9999	4130	0	0	0
2019/08/04 06:32:00	BASE	11.53	107	15.28	99	-2.3	68	-7.4	0	0	958.3	NA	0.0000		9999	4400	0	0	0
2019/08/04 06:33:00	BASE	12.54	114	15.28	99	-2.3	68	-7.3	0	0	958.3	NA	0.0000		9999	4040	0	0	0
2019/08/04 06:34:00	BASE	13.82	115	15.74	116	-2.2	68	-7.3	0	0	958.3	NA	0.0000		9999	4230	0	0	0
2019/08/04 06:35:00	BASE	15.15	117	17.54	117	-2.1	68	-7.3	0	0	958.3	NA	0.0000		9999	4360	0	0	0
2019/08/04 06:36:00	BASE	15.68	109	18.16	95	-2.1	67	-7.3	0	0	958.4	NA	0.0000		9999	3810	0	0	0
2019/08/04 06:37:00	BASE	14.68	103	18.16	95	-2.1	67	-7.4	0	0	958.4	NA	0.0000		9999	4040	0	0	0
2019/08/04 06:38:00	BASE	15.39	109	18.93	109	-2.1	67	-7.4	0	0	958.3	NA	0.0000		9999	3970	0	0	0
2019/08/04 06:39:00	BASE	15.92	106	18.93	109	-2.1	67	-7.4	0	0	958.3	NA	0.0000		9999	3710	0	0	0
2019/08/04 06:40:00	BASE	14.95	105	18.93	109	-2.1	67	-7.5	0	0	958.3	NA	0.0000		9999	3710	0	0	0
2019/08/04 06:41:00	BASE	14.19	104	18.93	109	-2.1	66	-7.5	0	0	958.4	NA	0.0000		9999	3810	0	0	0
2019/08/04 06:42:00	BASE	13.68	98	18.93	109	-2.1	66	-7.6	0	0	958.4	NA	0.0000		9999	4890	0	0	0
2019/08/04 06:43:00	BASE	14.51	93	18.93	109	-2.2	66	-7.7	0	0	958.4	NA	0.0000		9999	3900	0	0	0
2019/08/04 06:44:00	BASE	14.65	97	18.93	109	-2.2	66	-7.7	0	0	958.4	NA	0.0000		9999	4040	0	0	0
2019/08/04 06:45:00	BASE	15.15	101	18.93	109	-2.3	66	-7.7	0	0	958.3	NA	0.0000		9999	3180	0	0	0
2019/08/04 06:46:00	BASE	15.38	100	18.93	109	-2.3	66	-7.8	0	0	958.4	NA	0.0000		9999	2490	0	0	0
2019/08/04 06:47:00	BASE	14.61	99	18.93	109	-2.3	66	-7.8	0	0	958.4	NA	0.0000		9999	4560	0	0	0
2019/08/04 06:48:00	BASE	13.65	98	17.65	85	-2.3	66	-7.8	0	0	958.4	NA	0.0000		9999	4660	0	0	0
2019/08/04 06:49:00	BASE	13.16	101	17.65	85	-2.3	66	-7.8	0	0	958.3	NA	0.0000		9999	4890	0	0	0
2019/08/04 06:50:00	BASE	14.34	105	17.65	85	-2.3	66	-7.8	0	0	958.3	NA	0.0000		9999	4460	0	0	0
2019/08/04 06:51:00	BASE	16.79	110	20.01	120	-2.4	66	-7.9	0	0	958.1	NA	0.0000		9999	4400	0	0	0
2019/08/04 06:52:00	BASE	17.55	114	20.01	120	-2.4	66	-7.8	0	0	958.1	NA	0.0000		9999	4300	0	0	0
2019/08/04 06:53:00	BASE	14.94	111	20.01	120	-2.4	66	-7.8	0	0	958.2	NA	0.0000		9999	4460	0	0	0
2019/08/04 06:54:00	BASE	12.51	107	20.01	120	-2.4	67	-7.8	0	0	958.2	NA	0.0000		9999	4860	0	0	0
2019/08/04 06:55:00	BASE	13.59	106	20.01	120	-2.4	67	-7.7	0	0	958.1	NA	0.0000		9999	4820	0	0	0
2019/08/04 06:56:00	BASE	14.00	105	20.01	120	-2.3	67	-7.6	0	0	958.1	NA	0.0000		9999	4530	0	0	0
2019/08/04 06:57:00	BASE	12.71	108	20.01	120	-2.3	67	-7.6	0	0	958.1	NA	0.0000		9999	4760	0	0	0
2019/08/04 06:58:00	BASE	12.59	116	20.01	120	-2.2	67	-7.5	0	0	958.2	NA	0.0000		9999	4490	0	0	0
2019/08/04 06:59:00	BASE	11.66	122	20.01	120	-2.2	67	-7.5	0	0	958.2	NA	0.0000		9999	4430	0	0	0
2019/08/04 07:00:00	BASE	10.29	126	20.01	120	-2.2	67	-7.5	0	0	958.1	NA	0.0000		9999	4430	0	0	0
2019/08/04 07:01:00	BASE	10.45	123	18.67	115	-2.2	67	-7.5	0	0	958.1	NA	0.0000		9999	4460	0	0	0
2019/08/04 07:02:00	BASE	12.50	117	17.44	103	-2.2	67	-7.5	0	0	958.1	NA	0.0000		9999	4490	0	0	0
2019/08/04 07:03:00	BASE	13.08	112	17.44	103	-2.2	68	-7.4	0	0	958.1	NA	0.0000		9999	4230	0	0	0
2019/08/04 07:04:00	BASE	11.56	118	17.44	103	-2.2	68	-7.4	0	0	958.1	NA	0.0000		9999	4400	0	0	0
2019/08/04 07:05:00	BASE	11.61	129	16.20	113	-2.2	68	-7.3	0	0	958.1	NA	0.0000		9999	4460	0	0	0
2019/08/04 07:06:00	BASE	12.57	125	16.20	113	-2.1	68	-7.3	0	0	958.0	NA	0.0000		9999	4530	0	0	0
2019/08/04 07:07:00	BASE	12.43	114	16.20	113	-2.1	67	-7.4	0	0	958.0	NA	0.0000		9999	4070	0	0	0
2019/08/04 07:08:00	BASE	12.69	112	18.47	121	-2.1	67	-7.5	0	0	958.0	NA	0.0000		9999	4200	0	0	0
2019/08/04 07:09:00	BASE	15.70	117	20.78	115	-2.1	67	-7.5	0	0	957.8	NA	0.0000		9999	4000	0	0	0
2019/08/04 07:10:00	BASE	17.97	111	20.78	115	-2.1	66	-7.6	0	0	957.8	NA	0.0000	UP	9999	3940	0	0	0
2019/08/04 07:11:00	BASE	15.59	97	20.78	115	-2.0	65	-7.7	0	0	958.0	NA	0.0000	UP	9999	4360	0	0	0
2019/08/04 07:12:00	BASE	11.51	96	20.78	115	-2.0	64	-7.8	0	0	958.0	NA	0.0000	UP	9999	4070	0	0	0
2019/08/04 07:13:00	BASE	10.71	112	20.78	115	-1.9	64	-7.9	0	0	958.0	NA	0.0000	UP	9999	4360	0	0	0
2019/08/04 07:14:00	BASE	11.40	122	20.78	115	-1.9	63	-8.0	0	0	958.0	NA	0.0000	UP	9999	4130	0	0	0
2019/08/04 07:15:00	BASE	11.52	124	20.78	115	-2.0	64	-8.0	0	0	957.9	NA	0.0000	UP	9999	4430	0	0	0
2019/08/04 07:16:00	BASE	11.91	123	20.78	115	-2.2	65	-7.9	0	0	958.0	NA	0.0000	UP	9999	4720	0	0	0
2019/08/04 07:17:00	BASE	10.92	114	20.78	115	-2.3	66	-7.8	0	0	958.0	NA	0.0000	UP	9999	4860	0	0	0
2019/08/04 07:18:00	BASE	11.49	104	20.78	115	-2.3	66	-7.7	0	0	957.9	NA	0.0000	UP	9999	4530	0	0	0
2019/08/04 07:19:00	BASE	12.23	96	20.11	113	-2.3	67	-7.6	0	0	957.9	NA	0.0000		9999	4720	0	0	0
2019/08/04 07:20:00	BASE	11.41	100	16.05	102	-2.2	67	-7.6	0	0	958.0	NA	0.0000		9999	4660	0	0	0
2019/08/04 07:21:00	BASE	11.71	111	15.18	91	-2.2	66	-7.6	0	0	957.9	NA	0.0000		9999	4860	0	0	0
2019/08/04 07:22:00	BASE	13.01	113	16.36	112	-2.1	66	-7.7	0	0	957.9	NA	0.0000		9999	4920	0	0	0
2019/08/04 07:23:00	BASE	14.06	115	16.36	112	-2.1	65	-7.7	0	0	957.9	NA	0.0000		9999	4790	0	0	0
2019/08/04 07:24:00	BASE	14.11	115	16.36	112	-2.0	64	-7.8	0	0	958.0	NA	0.0000		9999	4920	0	0	0
2019/08/04 07:25:00	BASE	13.30	110	16.36	112	-2.0	64	-7.9	0	0	958.0	NA	0.0000		9999	5220	0	0	0
2019/08/04 07:26:00	BASE	14.17	109	17.23	109	-2.0	64	-8.0	0	0	957.9	NA	0.0000		9999	5250	0	0	0
2019/08/04 07:27:00	BASE	14.86	112	17.23	109	-2.0	63	-8.1	0	0	958.0	NA	0.0000		9999	5450	0	0	0
2019/08/04 07:28:00	BASE	13.14	118	17.23	109	-2.1	62	-8.3	0	0	958.0	NA	0.0000		9999	5410	0	0	0
2019/08/04 07:29:00	BASE	11.81	121	17.23	109	-2.1	62	-8.5	0	0	958.0	NA	0.0000		9999	5710	0	0	0
2019/08/04 07:30:00	BASE	12.24	127	17.23	109	-2.2	62	-8.6	0	0	957.9	NA	0.0000		9999	6960	0	0	0
2019/08/04 07:31:00	BASE	14.38	125	19.24	115	-2.2	62	-8.6	0	0	957.9	NA	0.0000		9999	5770	0	0	0
2019/08/04 07:32:00	BASE	16.30	117	19.24	115	-2.2	62	-8.6	0	0	957.9	NA	0.0000		9999	5970	0	0	0
2019/08/04 07:33:00	BASE	18.75	118	22.53	118	-2.2	62	-8.6	0	0	957.8	NA	0.0000		9999	6630	0	0	0
2019/08/04 07:34:00	BASE	19.47	119	22.53	118	-2.2	62	-8.6	0	0	957.8	NA	0.0000		9999	6660	0	0	0
2019/08/04 07:35:00	BASE	18.28	121	22.53	118	-2.2	61	-8.7	0	0	957.9	NA	0.0000		9999	6270	0	0	0
2019/08/04 07:36:00	BASE	16.33	128	22.53	118	-2.2	60	-8.9	0	0	957.9	NA	0.0000		9999	6530	0	0	0
2019/08/04 07:37:00	BASE	14.24	133	22.53	118	-2.2	60	-9.0	0	0	957.9	NA	0.0000		9999	6730	0	0	0
2019/08/04 07:38:00	BASE	14.50	130	22.53	118	-2.3	59	-9.1	0	0	957.9	NA	0.0000		9999	6920	0	0	0
2019/08/04 07:39:00	BASE	14.92	132	22.53	118	-2.3	59	-9.2	0	0	957.9	NA	0.0000		9999	7120	0	0	0
2019/08/04 07:40:00	BASE	15.13	138	22.53	118	-2.3	59	-9.2	0	0	957.8	NA	0.0000		9999	7250	0	0	0
2019/08/04 07:41:00	BASE	15.78	142	22.53	118	-2.2	59	-9.2	0	0	957.8	NA	0.0000		9999	4560	0	0	0
2019/08/04 07:42:00	BASE	16.07	144	22.53	118	-2.2	59	-9.2	0	0	957.8	NA	0.0000		9999	5580	0	0	0
2019/08/04 07:43:00	BASE	17.20	140	21.56	144	-2.1	59	-9.2	0	0	957.7	NA	0.0000		9999	6500	0	0	0
2019/08/04 07:44:00	BASE	18.73	136	21.66	137	-2.1	58	-9.2	0	0	957.7	NA	0.0000		9999	6530	0	0	0
2019/08/04 07:45:00	BASE	19.51	133	22.64	139	-2.1	58	-9.2	0	0	957.7	NA	0.0000		9999	5640	0	0	0
2019/08/04 07:46:00	BASE	18.59	132	22.64	139	-2.1	58	-9.2	0	0	957.8	NA	0.0000		9999	4300	0	0	0
2019/08/04 07:47:00	BASE	17.01	132	22.64	139	-2.1	58	-9.2	0	0	957.9	NA	0.0000		9999	4170	0	0	0
2019/08/04 07:48:00	BASE	15.60	130	22.64	139	-2.0	58	-9.2	0	0	957.9	NA	0.0000		9999	5410	0	0	0
2019/08/04 07:49:00	BASE	15.16	130	22.64	139	-2.1	58	-9.1	0	0	957.9	NA	0.0000		9999	5280	0	0	0
2019/08/04 07:50:00	BASE	16.18	132	22.64	139	-2.1	59	-9.1	0	0	957.8	NA	0.0000		9999	5180	0	0	0
2019/08/04 07:51:00	BASE	17.02	134	22.64	139	-2.1	59	-9.0	0	0	957.7	NA	0.0000		9999	4400	0	0	0
2019/08/04 07:52:00	BASE	17.02	138	22.64	139	-2.1	59	-9.1	0	0	957.7	NA	0.0000		9999	5050	0	0	0
2019/08/04 07:53:00	BASE	16.92	138	22.64	139	-2.2	59	-9.1	0	0	957.7	NA	0.0000		9999	4860	0	0	0
2019/08/04 07:54:00	BASE	17.75	134	22.64	139	-2.2	59	-9.2	0	0	957.6	NA	0.0000		9999	4630	0	0	0
2019/08/04 07:55:00	BASE	18.52	133	21.30	134	-2.2	59	-9.3	0	0	957.6	NA	0.0000		9999	6070	0	0	0
2019/08/04 07:56:00	BASE	17.99	135	21.30	134	-2.3	58	-9.3	0	0	957.6	NA	0.0000		9999	6230	0	0	0
2019/08/04 07:57:00	BASE	17.81	137	21.97	132	-2.3	59	-9.3	0	0	957.5	NA	0.0000		9999	6200	0	0	0
2019/08/04 07:58:00	BASE	18.82	140	21.97	132	-2.4	59	-9.3	0	0	957.5	NA	0.0000		9999	6270	0	0	0
2019/08/04 07:59:00	BASE	19.18	140	21.97	132	-2.4	59	-9.4	0	0	957.4	NA	0.0000		9999	6230	0	0	0
2019/08/04 08:00:00	BASE	19.91	138	22.84	148	-2.4	59	-9.4	0	0	957.4	NA	0.0000		9999	6000	0	0	0
2019/08/04 08:01:00	BASE	20.29	140	22.84	148	-2.4	59	-9.3	0	0	957.4	NA	0.0000		9999	5770	0	0	0
2019/08/04 08:02:00	BASE	19.90	137	22.84	148	-2.4	59	-9.3	0	0	957.4	NA	0.0000		9999	5410	0	0	0
2019/08/04 08:03:00	BASE	20.00	133	22.84	148	-2.4	59	-9.3	0	0	957.4	NA	0.0000		9999	5450	0	0	0
2019/08/04 08:04:01	BASE	20.18	131	22.84	148	-2.3	59	-9.2	0	0	957.4	NA	0.0000		9999	5480	0	0	0
2019/08/04 08:05:01	BASE	19.87	133	22.84	148	-2.3	59	-9.2	0	0	957.4	NA	0.0000		9999	5540	0	0	0
2019/08/04 08:06:01	BASE	20.16	136	22.84	148	-2.3	59	-9.3	0	0	957.4	NA	0.0000		9999	5410	0	0	0
2019/08/04 08:07:01	BASE	20.29	136	22.84	148	-2.3	58	-9.4	0	0	957.4	NA	0.0000		9999	5510	0	0	0
2019/08/04 08:08:01	BASE	20.07	137	22.84	148	-2.2	58	-9.5	0	0	957.3	NA	0.0000		9999	5320	0	0	0
2019/08/04 08:09:01	BASE	19.14	138	22.84	148	-2.2	57	-9.6	0	0	957.4	NA	0.0000		9999	5350	0	0	0
2019/08/04 08:10:01	BASE	17.53	136	22.64	144	-2.3	57	-9.7	0	0	957.4	NA	0.0000		9999	5220	0	0	0
2019/08/04 08:11:01	BASE	19.37	133	24.54	131	-2.3	57	-9.7	0	0	957.3	NA	0.0000		9999	4990	0	0	0
2019/08/04 08:12:01	BASE	21.51	132	24.54	131	-2.3	57	-9.7	0	0	957.2	NA	0.0000		9999	5150	0	0	0
2019/08/04 08:13:01	BASE	20.54	134	24.54	131	-2.3	57	-9.7	0	0	957.2	NA	0.0000		9999	5150	0	0	0
2019/08/04 08:14:01	BASE	19.35	134	24.54	131	-2.3	56	-9.8	0	0	957.2	NA	0.0000		9999	5050	0	0	0
2019/08/04 08:15:01	BASE	19.07	133	24.54	131	-2.3	56	-9.9	0	0	957.2	NA	0.0000		9999	5320	0	0	0
2019/08/04 08:16:01	BASE	18.78	136	24.54	131	-2.3	55	-10.0	0	0	957.2	NA	0.0000		9999	5450	0	0	0
2019/08/04 08:17:01	BASE	17.41	139	24.54	131	-2.2	55	-10.0	0	0	957.3	NA	0.0000		9999	5250	0	0	0
2019/08/04 08:18:01	BASE	17.42	141	24.54	131	-2.2	56	-9.9	0	0	957.2	NA	0.0000		9999	4920	0	0	0
2019/08/04 08:19:01	BASE	17.98	143	24.54	131	-2.2	56	-9.8	0	0	957.3	NA	0.0000		9999	5150	0	0	0
2019/08/04 08:20:01	BASE	18.97	142	24.54	131	-2.2	57	-9.7	0	0	957.2	NA	0.0000		9999	5320	0	0	0
2019/08/04 08:21:01	BASE	19.46	142	22.94	132	-2.2	57	-9.6	0	0	957.2	NA	0.0000		9999	5450	0	0	0
2019/08/04 08:22:01	BASE	18.68	138	22.38	132	-2.2	57	-9.5	0	0	957.2	NA	0.0000		9999	5740	0	0	0
2019/08/04 08:23:01	BASE	18.85	136	22.38	132	-2.2	57	-9.5	0	0	957.2	NA	0.0000		9999	5770	0	0	0
2019/08/04 08:24:01	BASE	18.31	139	22.38	132	-2.2	57	-9.5	0	0	957.2	NA	0.0000		9999	5540	0	0	0
2019/08/04 08:25:01	BASE	17.95	141	22.38	132	-2.2	57	-9.5	0	0	957.2	NA	0.0000		9999	5450	0	0	0
2019/08/04 08:26:01	BASE	17.09	139	22.38	132	-2.1	57	-9.5	0	0	957.3	NA	0.0000		9999	5810	0	0	0
2019/08/04 08:27:01	BASE	15.54	135	22.38	132	-2.1	57	-9.5	0	0	957.3	NA	0.0000		9999	5540	0	0	0
2019/08/04 08:28:01	BASE	14.45	135	22.38	132	-2.2	57	-9.5	0	0	957.3	NA	0.0000		9999	5320	0	0	0
2019/08/04 08:29:01	BASE	14.73	138	22.38	132	-2.2	58	-9.4	0	0	957.3	NA	0.0000		9999	4690	0	0	0
2019/08/04 08:30:01	BASE	16.75	139	22.38	132	-2.2	58	-9.3	0	0	957.2	NA	0.0000		9999	3410	0	0	0
2019/08/04 08:31:01	BASE	18.49	142	22.38	132	-2.2	59	-9.2	0	0	957.1	NA	0.0000		9999	3640	0	0	0
2019/08/04 08:32:01	BASE	19.93	141	22.48	139	-2.2	59	-9.1	0	0	957.0	NA	0.0000		9999	4890	0	0	0
2019/08/04 08:33:01	BASE	20.70	141	22.48	139	-2.2	60	-9.0	0	0	957.0	NA	0.0000		9999	3380	0	0	0
2019/08/04 08:34:01	BASE	20.38	141	22.48	139	-2.2	60	-8.9	0	0	957.1	NA	0.0000		9999	5120	0	0	0
2019/08/04 08:35:01	BASE	19.11	136	22.48	139	-2.2	60	-9.0	0	0	957.2	NA	0.0000		9999	5220	0	0	0
2019/08/04 08:36:00	BASE	16.55	135	22.48	139	-2.2	60	-9.0	0	0	957.2	NA	0.0000		9999	4400	0	0	0
2019/08/04 08:37:00	BASE	15.39	141	22.48	139	-2.2	60	-8.9	0	0	957.2	NA	0.0000		9999	4270	0	0	0
2019/08/04 08:38:00	BASE	15.48	138	22.48	139	-2.3	61	-8.9	0	0	957.3	NA	0.0000		9999	3900	0	0	0
2019/08/04 08:39:00	BASE	15.97	136	22.48	139	-2.3	61	-8.8	0	0	957.2	NA	0.0000		9999	3840	0	0	0
2019/08/04 08:40:00	BASE	16.91	137	22.48	139	-2.3	62	-8.7	0	0	957.1	NA	0.0000		9999	3610	0	0	0
2019/08/04 08:41:00	BASE	17.49	136	22.48	139	-2.3	62	-8.5	0	0	957.1	NA	0.0000		9999	3740	0	0	0
2019/08/04 08:42:00	BASE	18.33	137	21.97	144	-2.3	63	-8.5	0	0	957.1	NA	0.0000		9999	3510	0	0	0
2019/08/04 08:43:00	BASE	17.95	138	21.92	135	-2.4	62	-8.6	0	0	957.2	NA	0.0000		9999	3580	0	0	0
2019/08/04 08:44:00	BASE	16.73	139	21.40	133	-2.4	62	-8.7	0	0	957.2	NA	0.0000		9999	3810	0	0	0
2019/08/04 08:45:00	BASE	16.15	143	21.40	133	-2.4	62	-8.8	0	0	957.1	NA	0.0000		9999	3610	0	0	0
2019/08/04 08:46:00	BASE	16.27	145	21.40	133	-2.4	61	-8.8	0	0	957.1	NA	0.0000		9999	3450	0	0	0
2019/08/04 08:47:00	BASE	16.17	140	21.40	133	-2.3	62	-8.7	0	0	957.1	NA	0.0000		9999	1770	0	0	0
2019/08/04 08:48:00	BASE	14.58	140	21.40	133	-2.3	62	-8.6	0	0	957.2	NA	0.0000		9999	3580	0	0	0
2019/08/04 08:49:00	BASE	13.60	139	21.40	133	-2.2	61	-8.6	0	0	957.2	NA	0.0000		9999	4270	0	0	0
2019/08/04 08:50:00	BASE	13.98	132	21.40	133	-2.1	61	-8.5	0	0	957.2	NA	0.0000		9999	4400	0	0	0
2019/08/04 08:51:00	BASE	14.34	132	21.40	133	-2.0	61	-8.5	0	0	957.2	NA	0.0000		9999	4360	0	0	0
2019/08/04 08:52:00	BASE	14.31	138	20.01	136	-2.0	61	-8.5	0	0	957.3	NA	0.0000		9999	4590	0	0	0
2019/08/04 08:53:00	BASE	13.72	140	20.01	136	-2.0	61	-8.6	0	0	957.3	NA	0.0000		9999	4990	0	0	0
2019/08/04 08:54:00	BASE	14.56	139	20.01	136	-2.0	61	-8.5	0	0	957.3	NA	0.0000		9999	6200	0	0	0
2019/08/04 08:55:00	BASE	15.47	137	20.01	136	-2.0	61	-8.6	0	0	957.3	NA	0.0000		9999	6070	0	0	0
2019/08/04 08:56:00	BASE	13.84	136	18.31	134	-2.1	61	-8.7	0	0	957.4	NA	0.0000		9999	5710	0	0	0
2019/08/04 08:57:00	BASE	12.47	133	18.31	134	-2.2	61	-8.7	0	0	957.4	NA	0.0000		9999	5870	0	0	0
2019/08/04 08:58:00	BASE	12.41	130	18.31	134	-2.2	61	-8.6	0	0	957.4	NA	0.0000		9999	5970	0	0	0
2019/08/04 08:59:00	BASE	13.31	124	18.31	134	-2.3	62	-8.6	0	0	957.4	NA	0.0000		9999	6070	0	0	0
2019/08/04 09:00:00	BASE	12.81	113	18.31	134	-2.3	62	-8.6	0	0	957.5	NA	0.0000		9999	6040	0	0	0
2019/08/04 09:01:00	BASE	10.39	103	18.31	134	-2.2	62	-8.5	0	0	957.6	NA	0.0000		9999	5740	0	0	0
2019/08/04 09:02:00	BASE	9.50	105	18.31	134	-2.2	62	-8.6	0	0	957.5	NA	0.0000		9999	5250	0	0	0
2019/08/04 09:03:00	BASE	10.57	112	18.31	134	-2.3	61	-8.7	0	0	957.5	NA	0.0000		9999	5150	0	0	0
2019/08/04 09:04:00	BASE	10.75	112	17.90	138	-2.3	61	-8.8	0	0	957.5	NA	0.0000		9999	4890	0	0	0
2019/08/04 09:05:00	BASE	10.24	111	15.02	130	-2.3	61	-8.9	0	0	957.5	NA	0.0000		9999	4990	0	0	0
2019/08/04 09:06:00	BASE	10.56	120	15.02	130	-2.3	61	-8.9	0	0	957.5	NA	0.0000		9999	4920	0	0	0
2019/08/04 09:07:00	BASE	9.89	129	15.02	130	-2.3	61	-8.8	0	0	957.6	NA	0.0000		9999	5050	0	0	0
2019/08/04 09:08:00	BASE	8.88	135	14.87	121	-2.3	61	-8.9	0	0	957.6	NA	0.0000		9999	4860	0	0	0
2019/08/04 09:09:00	BASE	8.51	137	12.91	120	-2.3	60	-8.9	0	0	957.6	NA	0.0000		9999	3310	0	0	0
2019/08/04 09:10:00	BASE	8.18	129	12.91	120	-2.3	60	-8.9	0	0	957.6	NA	0.0000		9999	3350	0	0	0
2019/08/04 09:11:00	BASE	9.98	124	13.68	119	-2.3	60	-8.9	0	0	957.5	NA	0.0000		9999	4630	0	0	0
2019/08/04 09:12:00	BASE	11.15	121	13.68	119	-2.3	60	-8.9	0	0	957.6	NA	0.0000		9999	4490	0	0	0
2019/08/04 09:13:00	BASE	10.80	115	13.68	119	-2.3	60	-8.9	0	0	957.6	NA	0.0000		9999	4330	0	0	0
2019/08/04 09:14:00	BASE	11.26	109	13.68	119	-2.3	60	-8.9	0	0	957.6	NA	0.0000		9999	4300	0	0	0
2019/08/04 09:15:00	BASE	11.62	106	13.68	119	-2.3	61	-8.9	0	0	957.6	NA	0.0000		9999	4400	0	0	0
2019/08/04 09:16:00	BASE	13.24	112	16.93	119	-2.3	61	-8.8	0	0	957.5	NA	0.0000		9999	4230	0	0	0
2019/08/04 09:17:00	BASE	14.78	115	16.93	119	-2.4	61	-8.8	0	0	957.5	NA	0.0000		9999	4170	0	0	0
2019/08/04 09:18:00	BASE	14.58	109	16.93	119	-2.4	62	-8.8	0	0	957.6	NA	0.0000		9999	4300	0	0	0
2019/08/04 09:19:00	BASE	13.62	107	16.93	119	-2.4	62	-8.7	0	0	957.6	NA	0.0000		9999	4270	0	0	0
2019/08/04 09:20:00	BASE	11.60	115	16.93	119	-2.4	62	-8.7	0	0	957.7	NA	0.0000		9999	4460	0	0	0
2019/08/04 09:21:00	BASE	9.75	122	16.93	119	-2.4	62	-8.6	0	0	957.6	NA	0.0000		9999	4490	0	0	0
2019/08/04 09:22:00	BASE	9.20	119	16.93	119	-2.5	62	-8.7	0	0	957.6	NA	0.0000		9999	4170	0	0	0
2019/08/04 09:23:00	BASE	8.75	120	16.93	119	-2.5	62	-8.7	0	0	957.5	NA	0.0000		9999	4070	0	0	0
2019/08/04 09:24:00	BASE	9.41	121	16.93	119	-2.5	62	-8.7	0	0	957.5	NA	0.0000		9999	3900	0	0	0
2019/08/04 09:25:00	BASE	11.44	116	16.93	119	-2.5	62	-8.7	0	0	957.5	NA	0.0000		9999	3940	0	0	0
2019/08/04 09:26:00	BASE	14.13	118	17.49	126	-2.5	62	-8.7	0	0	957.4	NA	0.0000		9999	4330	0	0	0
2019/08/04 09:27:00	BASE	15.16	127	17.49	126	-2.4	63	-8.6	0	0	957.4	NA	0.0000		9999	4430	0	0	0
2019/08/04 09:28:00	BASE	14.68	126	17.49	126	-2.4	63	-8.6	0	0	957.3	NA	0.0000		9999	4490	0	0	0
2019/08/04 09:29:00	BASE	15.84	119	19.55	117	-2.4	62	-8.6	0	0	957.3	NA	0.0000		9999	4170	0	0	0
2019/08/04 09:30:00	BASE	15.54	115	19.55	117	-2.4	62	-8.7	0	0	957.3	NA	0.0000		9999	4170	0	0	0
2019/08/04 09:31:00	BASE	14.15	116	19.55	117	-2.3	62	-8.7	0	0	957.3	NA	0.0000		9999	4330	0	0	0
2019/08/04 09:32:00	BASE	13.43	110	19.55	117	-2.3	61	-8.8	0	0	957.4	NA	0.0000		9999	4590	0	0	0
2019/08/04 09:33:00	BASE	11.64	93	19.55	117	-2.3	62	-8.7	0	0	957.5	NA	0.0000		9999	5220	0	0	0
2019/08/04 09:34:00	BASE	11.24	84	19.55	117	-2.3	62	-8.5	0	0	957.5	NA	0.0000		9999	5280	0	0	0
2019/08/04 09:35:00	BASE	11.24	83	19.55	117	-2.3	63	-8.4	0	0	957.5	NA	0.0000		9999	4920	0	0	0
2019/08/04 09:36:00	BASE	10.16	85	19.55	117	-2.4	65	-8.1	0	0	957.5	NA	0.0000		9999	5050	0	0	0
2019/08/04 09:37:00	BASE	9.64	99	19.55	117	-2.4	66	-8.0	0	0	957.5	NA	0.0000		9999	4790	0	0	0
2019/08/04 09:38:00	BASE	10.34	113	19.55	117	-2.5	67	-7.8	0	0	957.5	NA	0.0000		9999	4760	0	0	0
2019/08/04 09:39:00	BASE	11.32	113	16.26	116	-2.5	67	-7.7	0	0	957.5	NA	0.0000		9999	4950	0	0	0
2019/08/04 09:40:00	BASE	11.25	112	16.26	116	-2.5	68	-7.7	0	0	957.5	NA	0.0000		9999	5180	0	0	0
2019/08/04 09:41:00	BASE	11.28	118	14.20	119	-2.6	68	-7.7	0	0	957.5	NA	0.0000		9999	5250	0	0	0
2019/08/04 09:42:00	BASE	12.98	118	16.67	116	-2.7	69	-7.6	0	0	957.5	NA	0.0000		9999	4990	0	0	0
2019/08/04 09:43:00	BASE	14.05	121	16.67	116	-2.7	70	-7.5	0	0	957.5	NA	0.0000		9999	5120	0	0	0
2019/08/04 09:44:00	BASE	12.62	124	16.67	116	-2.7	70	-7.4	0	0	957.6	NA	0.0000		9999	5250	0	0	0
2019/08/04 09:45:01	BASE	12.32	116	16.67	116	-2.7	70	-7.4	0	0	957.6	NA	0.0000		9999	5320	0	0	0
2019/08/04 09:46:01	BASE	15.58	106	21.71	110	-2.8	71	-7.4	0	0	957.5	NA	0.0000		9999	5250	0	0	0
2019/08/04 09:47:01	BASE	17.62	102	21.71	110	-2.9	71	-7.5	0	0	957.5	NA	0.0000		9999	5050	0	0	0
2019/08/04 09:48:01	BASE	17.24	96	21.71	110	-3.1	71	-7.6	0	0	957.4	NA	0.0000	UP	9999	4690	0	0	0
2019/08/04 09:49:01	BASE	18.28	87	21.71	110	-3.2	72	-7.6	0	0	957.3	NA	0.0000	UP	9999	4430	0	0	0
2019/08/04 09:50:01	BASE	18.57	84	21.71	110	-3.3	72	-7.6	0	0	957.4	NA	0.0000	UP	9999	4490	0	0	0
2019/08/04 09:51:01	BASE	16.75	87	21.71	110	-3.4	73	-7.6	0	0	957.4	NA	0.0000	UP	9999	4590	0	0	0
2019/08/04 09:52:01	BASE	16.11	92	21.71	110	-3.4	73	-7.5	0	0	957.4	NA	0.0000	UP	9999	4460	0	0	0
2019/08/04 09:53:01	BASE	16.81	97	21.71	110	-3.3	73	-7.5	0	0	957.4	NA	0.0000	UP	9999	4330	0	0	0
2019/08/04 09:54:01	BASE	17.07	98	21.71	110	-3.2	73	-7.5	0	0	957.4	NA	0.0000	UP	9999	4400	0	0	0
2019/08/04 09:55:01	BASE	16.04	107	21.71	110	-3.2	72	-7.5	0	0	957.5	NA	0.0000	UP	9999	4430	0	0	0
2019/08/04 09:56:01	BASE	15.35	103	21.35	81	-3.0	72	-7.4	0	0	957.6	NA	0.0000	UP	9999	4590	0	0	0
2019/08/04 09:57:01	BASE	15.96	93	21.35	81	-3.0	72	-7.4	0	0	957.6	NA	0.0000	UP	9999	4330	0	0	0
2019/08/04 09:58:01	BASE	15.38	99	21.35	81	-2.9	71	-7.4	0	0	957.6	NA	0.0000	UP	9999	4560	0	0	0
2019/08/04 09:59:01	BASE	13.17	109	20.17	86	-3.0	71	-7.4	0	0	957.7	NA	0.0000	UP	9999	4590	0	0	0
2019/08/04 10:00:01	BASE	10.80	122	20.11	103	-3.1	72	-7.4	0	0	957.6	NA	0.0000	UP	9999	4430	0	0	0
2019/08/04 10:01:01	BASE	10.22	115	20.11	103	-3.1	73	-7.4	0	0	957.7	NA	0.0000	UP	9999	4590	0	0	0
2019/08/04 10:02:01	BASE	12.03	95	20.11	103	-3.2	73	-7.3	0	0	957.6	NA	0.0000	UP	9999	4690	0	0	0
2019/08/04 10:03:01	BASE	13.82	88	20.11	103	-3.1	73	-7.3	0	0	957.5	NA	0.0000	UP	9999	4720	0	0	0
2019/08/04 10:04:01	BASE	15.56	84	18.93	87	-3.1	74	-7.1	0	0	957.5	NA	0.0000	UP	9999	4430	0	0	0
2019/08/04 10:05:01	BASE	15.04	87	18.93	87	-3.0	74	-7.0	0	0	957.6	NA	0.0000	UP	9999	4270	0	0	0
2019/08/04 10:06:01	BASE	12.93	98	18.93	87	-2.9	74	-6.9	0	0	957.6	NA	0.0000	UP	9999	4170	0	0	0
2019/08/04 10:07:01	BASE	12.81	112	18.93	87	-2.8	74	-6.9	0	0	957.7	NA	0.0000	UP	9999	4230	0	0	0
2019/08/04 10:08:01	BASE	12.18	128	18.93	87	-2.8	74	-6.8	0	0	957.6	NA	0.0000	UP	9999	4360	0	0	0
2019/08/04 10:09:01	BASE	10.82	136	18.93	87	-2.8	74	-6.8	0	0	957.7	NA	0.0000	UP	9999	4270	0	0	0
2019/08/04 10:10:01	BASE	9.45	133	18.93	87	-2.9	74	-6.9	0	0	957.7	NA	0.0000	UP	9999	4170	0	0	0
2019/08/04 10:11:01	BASE	8.77	125	18.93	87	-3.0	73	-7.1	0	0	957.7	NA	0.0000	UP	9999	0	0	0	890
2019/08/04 10:12:01	BASE	7.64	118	18.93	87	-3.0	72	-7.3	0	0	957.7	NA	0.0000	UP	9999	0	0	0	560
2019/08/04 10:13:01	BASE	8.90	101	18.93	87	-3.0	71	-7.5	0	0	957.6	NA	0.0000	UP	9999	0	0	0	330
2019/08/04 10:14:01	BASE	14.03	87	19.39	94	-3.0	70	-7.6	0	0	957.5	NA	0.0000	UP	9999	4100	0	0	0
2019/08/04 10:15:01	BASE	15.65	91	19.39	94	-3.0	70	-7.6	0	0	957.5	NA	0.0000	UP	9000	4170	0	0	0
2019/08/04 10:16:01	BASE	14.88	91	19.39	94	-3.0	71	-7.5	0	0	957.5	NA	0.0000	UP	9999	4230	0	0	0
2019/08/04 10:17:01	BASE	16.02	84	20.42	65	-3.0	72	-7.3	0	0	957.5	NA	0.0000	UP	9999	4400	0	0	0
2019/08/04 10:18:01	BASE	16.50	81	20.42	65	-3.0	73	-7.2	0	0	957.6	NA	0.0000	UP	9999	4460	0	0	0
2019/08/04 10:19:01	BASE	16.28	79	20.42	65	-3.0	73	-7.1	0	0	957.6	NA	0.0000	UP	9999	4070	0	0	0
2019/08/04 10:20:01	BASE	16.32	84	20.42	65	-2.9	73	-7.0	0	0	957.7	NA	0.0000	UP	9999	4040	0	0	0
2019/08/04 10:21:01	BASE	16.34	90	20.42	65	-2.8	73	-7.0	0	0	957.8	NA	0.0000	UP	9999	4100	0	0	0
2019/08/04 10:22:01	BASE	16.98	96	20.99	85	-2.9	73	-7.1	0	0	957.8	NA	0.0000	UP	8000	4300	0	0	0
2019/08/04 10:23:01	BASE	14.72	103	20.99	85	-2.9	72	-7.2	0	0	958.0	NA	0.0000	UP	7000	0	0	0	750
2019/08/04 10:24:01	BASE	13.20	97	20.99	85	-3.0	72	-7.4	0	0	958.0	NA	0.0000	UP	8000	0	0	0	560
2019/08/04 10:25:01	BASE	14.30	89	20.99	85	-3.2	72	-7.6	0	0	958.0	NA	0.0000	UP	9999	0	0	0	460
2019/08/04 10:26:01	BASE	14.57	102	20.99	85	-3.3	71	-7.8	0	0	958.0	NA	0.0000	UP	9999	1670	0	0	0
2019/08/04 10:27:01	BASE	15.79	100	20.99	85	-3.4	71	-7.8	0	0	958.0	NA	0.0000	UP	9999	3940	0	0	0
2019/08/04 10:28:01	BASE	15.02	96	20.99	85	-3.4	71	-7.8	0	0	958.1	NA	0.0000	UP	9999	3480	0	0	0
2019/08/04 10:29:01	BASE	13.25	107	20.99	85	-3.4	72	-7.8	0	0	958.2	NA	0.0000	UP	9999	3670	0	0	0
2019/08/04 10:30:01	BASE	11.11	114	20.99	85	-3.4	72	-7.7	0	0	958.3	NA	0.0000	UP	9999	2000	0	0	0
2019/08/04 10:31:01	BASE	9.69	116	20.99	85	-3.3	72	-7.7	0	0	958.2	NA	0.0000	UP	9999	3710	0	0	0
2019/08/04 10:32:01	BASE	12.15	111	19.86	86	-3.2	71	-7.7	0	0	958.2	NA	0.0000	UP	9999	3810	0	0	0
2019/08/04 10:33:01	BASE	13.19	114	19.86	86	-3.2	71	-7.8	0	0	958.2	NA	0.0000	UP	9999	3670	0	0	0
2019/08/04 10:34:01	BASE	12.10	118	19.86	86	-3.2	70	-7.9	0	0	958.1	NA	0.0000	UP	9999	3710	0	0	0
2019/08/04 10:35:01	BASE	13.03	109	19.86	86	-3.2	70	-8.0	0	0	958.1	NA	0.0000		9999	3310	0	0	0
2019/08/04 10:36:01	BASE	14.55	97	19.86	86	-3.3	69	-8.2	0	0	958.1	NA	0.0000		9999	3250	0	0	0
2019/08/04 10:37:01	BASE	14.15	97	18.52	108	-3.3	69	-8.3	0	0	958.1	NA	0.0000		9999	790	0	0	0
2019/08/04 10:38:01	BASE	12.76	99	16.46	110	-3.3	68	-8.3	0	0	958.2	NA	0.0000	-SN	9999	0	0	0	3610
2019/08/04 10:39:01	BASE	10.84	101	16.36	100	-3.2	68	-8.3	0	0	958.3	NA	0.0000	-SN	9999	1410	0	0	0
2019/08/04 10:40:01	BASE	8.41	100	16.36	100	-3.2	68	-8.3	0	0	958.3	NA	0.0000	-SN	9999	0	0	0	3840
2019/08/04 10:41:01	BASE	8.18	98	16.36	100	-3.2	68	-8.3	0	0	958.3	NA	0.0000	-SN	9999	0	0	0	3670
2019/08/04 10:42:00	BASE	10.82	99	16.36	100	-3.2	68	-8.3	0	0	958.3	NA	0.0000	-SN	9999	0	0	0	3280
2019/08/04 10:43:01	BASE	12.48	105	16.36	100	-3.2	68	-8.2	0	0	958.3	NA	0.0000	-SN	9999	0	0	0	3380
2019/08/04 10:44:01	BASE	12.39	110	16.36	100	-3.2	69	-8.2	0	0	958.3	NA	0.0000	-SN	9999	0	0	0	3610
2019/08/04 10:45:01	BASE	13.20	121	16.36	100	-3.3	69	-8.1	0	0	958.3	NA	0.0000	-SN	9999	0	0	0	3350
2019/08/04 10:46:00	BASE	12.76	130	15.12	93	-3.2	69	-8.1	0	0	958.3	NA	0.0000	-SN	9999	0	0	0	3510
2019/08/04 10:47:00	BASE	12.89	122	15.84	111	-3.2	69	-8.1	0	0	958.3	NA	0.0000	-SN	9999	0	0	0	3480
2019/08/04 10:48:00	BASE	14.28	115	16.15	117	-3.1	68	-8.3	0	0	958.3	NA	0.0000	-SN	9999	0	0	0	3540
2019/08/04 10:49:00	BASE	12.88	111	16.15	117	-3.1	67	-8.4	0	0	958.4	NA	0.0000	-SN	9999	3050	0	0	0
2019/08/04 10:50:00	BASE	10.46	105	16.15	117	-3.1	66	-8.6	0	0	958.4	NA	0.0000	-SN	9999	2920	0	0	0
2019/08/04 10:51:00	BASE	10.94	104	16.15	117	-3.2	66	-8.7	0	0	958.4	NA	0.0000	-SN	9999	0	0	0	3410
2019/08/04 10:52:01	BASE	11.85	108	16.15	117	-3.3	66	-8.7	0	0	958.4	NA	0.0000	-SN	9999	1540	0	0	0
2019/08/04 10:53:00	BASE	11.08	110	16.15	117	-3.3	66	-8.7	0	0	958.5	NA	0.0000	-SN	9999	1670	0	0	0
2019/08/04 10:54:00	BASE	9.83	115	16.15	117	-3.3	67	-8.6	0	0	958.5	NA	0.0000	-SN	9999	2100	0	0	0
2019/08/04 10:55:00	BASE	9.20	124	16.15	117	-3.3	67	-8.5	0	0	958.5	NA	0.0000	-SN	9999	2170	0	0	0
2019/08/04 10:56:00	BASE	9.58	120	16.15	117	-3.2	66	-8.6	0	0	958.4	NA	0.0000	-SN	9999	2130	0	0	0
2019/08/04 10:57:00	BASE	9.16	114	16.15	117	-3.2	66	-8.7	0	0	958.4	NA	0.0000	-SN	9999	2430	0	0	0
2019/08/04 10:58:01	BASE	9.37	113	14.51	114	-3.2	65	-8.9	0	0	958.4	NA	0.0000	-SN	9999	0	0	0	3350
2019/08/04 10:59:00	BASE	9.92	106	13.38	112	-3.2	65	-8.9	0	0	958.5	NA	0.0000	-SN	9999	1670	0	0	0
2019/08/04 11:00:00	BASE	9.69	101	13.38	112	-3.2	64	-9.0	0	0	958.5	NA	0.0000	-SN	9999	0	0	0	3180
2019/08/04 11:01:00	BASE	9.36	103	12.24	110	-3.1	64	-8.9	0	0	958.6	NA	0.0000	-SN	9999	0	0	0	3310
2019/08/04 11:02:01	BASE	9.56	102	13.17	98	-3.2	65	-8.8	0	0	958.5	NA	0.0000	-SN	9999	0	0	0	1280
2019/08/04 11:03:00	BASE	11.29	99	13.74	96	-3.2	65	-8.7	0	0	958.5	NA	0.0000	-SN	9999	0	0	0	720
2019/08/04 11:04:00	BASE	12.06	102	13.74	96	-3.2	65	-8.7	0	0	958.5	NA	0.0000	-SN	9999	4170	0	0	0
2019/08/04 11:05:00	BASE	10.02	111	13.74	96	-3.2	65	-8.8	0	0	958.5	NA	0.0000	-SN	9999	4330	0	0	0
2019/08/04 11:06:00	BASE	9.67	119	13.74	96	-3.2	65	-8.8	0	0	958.4	NA	0.0000	-SN	9999	3670	0	0	0
2019/08/04 11:07:00	BASE	10.13	123	13.74	96	-3.2	65	-8.9	0	0	958.4	NA	0.0000	-SN	9999	1840	0	0	0
2019/08/04 11:08:00	BASE	11.70	122	16.10	112	-3.2	64	-9.1	0	0	958.4	NA	0.0000	-SN	9999	3480	0	0	0
2019/08/04 11:09:00	BASE	14.34	121	16.87	119	-3.2	63	-9.2	0	0	958.4	NA	0.0000	-SN	9999	3770	0	0	0
2019/08/04 11:10:00	BASE	14.29	111	16.87	119	-3.3	63	-9.3	0	0	958.5	NA	0.0000		9999	2360	0	0	0
2019/08/04 11:11:00	BASE	12.71	96	16.87	119	-3.3	63	-9.4	0	0	958.6	NA	0.0000		9999	5250	0	0	0
2019/08/04 11:12:00	BASE	10.78	98	16.87	119	-3.4	63	-9.3	0	0	958.6	NA	0.0000		9999	5320	0	0	0
2019/08/04 11:13:00	BASE	9.63	109	16.87	119	-3.4	64	-9.3	0	0	958.5	NA	0.0000		9999	6140	0	0	0
2019/08/04 11:14:00	BASE	11.72	118	16.87	119	-3.5	65	-9.2	0	0	958.4	NA	0.0000		9999	6230	0	0	0
2019/08/04 11:15:00	BASE	14.46	121	19.50	118	-3.5	65	-9.1	0	0	958.3	NA	0.0000		9999	6200	0	0	0
2019/08/04 11:16:00	BASE	16.14	121	19.60	118	-3.4	64	-9.2	0	0	958.1	NA	0.0000		9999	5740	0	0	0
2019/08/04 11:17:00	BASE	14.68	114	19.60	118	-3.3	63	-9.3	0	0	958.4	NA	0.0000		9999	6040	0	0	0
2019/08/04 11:18:00	BASE	12.33	97	19.60	118	-3.3	62	-9.4	0	0	958.5	NA	0.0000		9999	2100	0	0	0
2019/08/04 11:19:00	BASE	12.44	83	19.60	118	-3.3	62	-9.5	0	0	958.5	NA	0.0000		9999	0	0	0	360
2019/08/04 11:20:00	BASE	11.29	79	19.60	118	-3.3	63	-9.5	0	0	958.5	NA	0.0000	-SN	9999	5510	0	0	0
2019/08/04 11:21:00	BASE	10.99	84	19.60	118	-3.4	64	-9.3	0	0	958.5	NA	0.0000	-SN	9999	6730	0	0	0
2019/08/04 11:22:00	BASE	10.58	92	19.60	118	-3.5	65	-9.1	0	0	958.5	NA	0.0000	-SN	9999	2490	0	0	0
2019/08/04 11:23:00	BASE	8.63	103	19.60	118	-3.6	67	-8.9	0	0	958.6	NA	0.0000	-SN	9999	5150	0	0	0
2019/08/04 11:24:00	BASE	7.22	109	19.60	118	-3.7	68	-8.8	0	0	958.6	NA	0.0000	-SN	9999	4890	0	0	0
2019/08/04 11:25:00	BASE	6.46	110	19.60	118	-3.7	68	-8.7	0	0	958.5	NA	0.0000	-SN	9999	4760	0	0	0
2019/08/04 11:26:00	BASE	7.21	110	16.00	121	-3.7	69	-8.6	0	0	958.4	NA	0.0000	-SN	9999	4790	0	0	0
2019/08/04 11:27:00	BASE	8.63	125	14.10	88	-3.7	69	-8.5	0	0	958.4	NA	0.0000	-SN	9999	4720	0	0	0
2019/08/04 11:28:00	BASE	8.70	131	13.17	89	-3.6	69	-8.5	0	0	958.5	NA	0.0000	-SN	9999	4690	0	0	0
2019/08/04 11:29:00	BASE	8.24	118	13.02	90	-3.5	68	-8.6	0	0	958.5	NA	0.0000	-SN	9999	4820	0	0	0
2019/08/04 11:30:00	BASE	7.86	115	13.02	90	-3.4	67	-8.7	0	0	958.5	NA	0.0000		9999	4920	0	0	0
2019/08/04 11:31:00	BASE	8.09	119	11.88	111	-3.3	66	-8.8	0	0	958.5	NA	0.0000		9999	5020	0	0	0
2019/08/04 11:32:00	BASE	9.36	125	12.14	124	-3.3	65	-8.9	0	0	958.5	NA	0.0000		9999	4990	0	0	0
2019/08/04 11:33:00	BASE	12.27	125	16.62	117	-3.3	65	-9.0	0	0	958.4	NA	0.0000		9999	4860	0	0	0
2019/08/04 11:34:00	BASE	14.49	118	17.34	116	-3.3	65	-8.9	0	0	958.4	NA	0.0000		9999	4890	0	0	0
2019/08/04 11:35:00	BASE	12.80	115	17.34	116	-3.3	66	-8.9	0	0	958.5	NA	0.0000		9999	4790	0	0	0
2019/08/04 11:36:00	BASE	9.41	112	17.34	116	-3.3	66	-8.9	0	0	958.5	NA	0.0000		9999	4630	0	0	0
2019/08/04 11:37:00	BASE	9.76	112	17.34	116	-3.3	65	-8.9	0	0	958.4	NA	0.0000		9999	4130	0	0	0
2019/08/04 11:38:00	BASE	11.31	118	17.34	116	-3.3	65	-9.0	0	0	958.4	NA	0.0000		9999	4460	0	0	0
2019/08/04 11:39:00	BASE	10.77	125	17.34	116	-3.2	63	-9.2	0	0	958.4	NA	0.0000		9999	4460	0	0	0
2019/08/04 11:40:00	BASE	10.84	128	17.34	116	-3.2	62	-9.5	0	0	958.4	NA	0.0000		9999	4560	0	0	0
2019/08/04 11:41:00	BASE	12.15	124	17.34	116	-3.1	60	-9.8	0	0	958.4	NA	0.0000		9999	4660	0	0	0
2019/08/04 11:42:00	BASE	13.28	121	17.34	116	-3.1	59	-10.0	0	0	958.4	NA	0.0000		9999	4760	6330	0	0
2019/08/04 11:43:00	BASE	13.41	116	17.34	116	-3.0	59	-10.0	0	0	958.5	NA	0.0000		9999	4790	0	0	0
2019/08/04 11:44:00	BASE	12.35	110	14.82	121	-3.1	59	-9.9	0	0	958.6	NA	0.0000		9999	4820	0	0	0
2019/08/04 11:45:00	BASE	11.36	111	14.82	121	-3.1	61	-9.7	0	0	958.6	NA	0.0000		9999	4790	6270	0	0
2019/08/04 11:46:00	BASE	10.13	115	14.82	121	-3.2	62	-9.4	0	0	958.7	NA	0.0000		9999	4790	0	0	0
2019/08/04 11:47:00	BASE	8.36	113	14.82	121	-3.2	63	-9.2	0	0	958.7	NA	0.0000		9999	4760	0	0	0
2019/08/04 11:48:00	BASE	7.05	109	14.82	121	-3.3	64	-9.1	0	0	958.7	NA	0.0000		9999	4690	0	0	0
2019/08/04 11:49:00	BASE	6.32	108	14.82	121	-3.3	65	-8.9	0	0	958.7	NA	0.0000		9999	4660	0	0	0
2019/08/04 11:50:00	BASE	6.13	114	14.82	121	-3.3	65	-8.8	0	0	958.8	NA	0.0000		9999	4790	0	0	0
2019/08/04 11:51:00	BASE	6.15	119	14.82	121	-3.3	66	-8.8	0	0	958.8	NA	0.0000		9999	4430	0	0	0
2019/08/04 11:52:00	BASE	7.26	126	14.30	116	-3.3	66	-8.7	0	0	958.7	NA	0.0000		9999	4200	0	0	0
2019/08/04 11:53:01	BASE	9.36	130	13.12	111	-3.3	66	-8.7	0	0	958.6	NA	0.0000		9999	4130	5020	0	0
2019/08/04 11:54:00	BASE	10.61	131	12.96	130	-3.4	66	-8.9	0	0	958.6	NA	0.0000		9999	4100	0	0	0
2019/08/04 11:55:00	BASE	11.56	135	14.10	134	-3.4	64	-9.2	0	0	958.6	NA	0.0000		9999	3310	0	0	0
2019/08/04 11:56:00	BASE	13.17	138	15.02	137	-3.4	63	-9.5	0	0	958.6	NA	0.0000		9999	3870	4990	0	0
2019/08/04 11:57:00	BASE	13.37	137	15.02	137	-3.4	61	-9.9	0	0	958.7	NA	0.0000		9999	3840	0	0	0
2019/08/04 11:58:00	BASE	12.78	134	15.02	137	-3.3	59	-10.2	0	0	958.7	NA	0.0000		9999	3280	0	0	0
2019/08/04 11:59:00	BASE	13.14	132	15.07	138	-3.3	58	-10.3	0	0	958.7	NA	0.0000		9999	3280	0	0	0
2019/08/04 12:00:00	BASE	13.84	133	16.82	133	-3.3	58	-10.4	0	0	958.7	NA	0.0000		9999	3940	0	0	0
2019/08/04 12:01:00	BASE	13.42	134	16.82	133	-3.3	57	-10.5	0	0	958.7	NA	0.0000		9999	2990	5120	0	0
2019/08/04 12:02:00	BASE	11.99	131	16.82	133	-3.3	57	-10.6	0	0	958.8	NA	0.0000		9999	2950	5050	0	0
2019/08/04 12:03:00	BASE	11.82	128	16.82	133	-3.2	56	-10.7	0	0	958.8	NA	0.0000		9999	2720	0	0	0
2019/08/04 12:04:00	BASE	11.73	128	16.82	133	-3.2	56	-10.8	0	0	958.9	NA	0.0000		9999	3020	4890	0	0
2019/08/04 12:05:00	BASE	11.86	130	16.82	133	-3.3	56	-10.9	0	0	958.8	NA	0.0000		9999	3020	0	0	0
2019/08/04 12:06:00	BASE	13.03	132	16.82	133	-3.3	56	-10.8	0	0	958.7	NA	0.0000		9999	2820	0	0	0
2019/08/04 12:07:00	BASE	12.80	137	16.82	133	-3.3	57	-10.7	0	0	958.7	NA	0.0000		9999	2790	0	0	0
2019/08/04 12:08:00	BASE	12.52	142	16.82	133	-3.3	56	-10.8	0	0	958.7	NA	0.0000		9999	2720	0	0	0
2019/08/04 12:09:00	BASE	12.08	140	16.82	133	-3.3	56	-10.9	0	0	958.8	NA	0.0000		9999	2720	0	0	0
2019/08/04 12:10:00	BASE	11.26	134	14.61	138	-3.2	55	-11.1	0	0	958.9	NA	0.0000		9999	2890	0	0	0
2019/08/04 12:11:00	BASE	11.42	129	14.61	138	-3.2	54	-11.2	0	0	958.9	NA	0.0000		9999	5320	0	0	0
2019/08/04 12:12:00	BASE	11.14	127	14.61	138	-3.2	54	-11.2	0	0	958.9	NA	0.0000		9999	3020	0	0	0
2019/08/04 12:13:00	BASE	10.63	128	14.61	138	-3.2	54	-11.2	0	0	959.0	NA	0.0000		9999	2890	0	0	0
2019/08/04 12:14:00	BASE	10.06	124	14.61	138	-3.2	55	-11.0	0	0	959.0	NA	0.0000		9999	2720	4330	0	0
2019/08/04 12:15:00	BASE	9.72	119	14.40	143	-3.3	56	-10.7	0	0	959.0	NA	0.0000		9999	2720	4270	0	0
2019/08/04 12:16:00	BASE	10.55	116	14.15	140	-3.3	58	-10.5	0	0	959.0	NA	0.0000		9999	2990	0	0	0
2019/08/04 12:17:00	BASE	11.16	118	14.15	140	-3.3	58	-10.4	0	0	959.0	NA	0.0000		9999	2820	0	0	0
2019/08/04 12:18:00	BASE	11.45	125	13.84	132	-3.3	59	-10.3	0	0	959.0	NA	0.0000		9999	2430	4040	0	0
2019/08/04 12:19:00	BASE	11.81	131	13.84	132	-3.3	59	-10.2	0	0	959.0	NA	0.0000		9999	3900	0	0	0
2019/08/04 12:20:00	BASE	11.86	131	14.15	131	-3.3	58	-10.3	0	0	958.9	NA	0.0000		9999	2720	0	0	0
2019/08/04 12:21:00	BASE	12.11	123	14.15	131	-3.3	58	-10.4	0	0	958.9	NA	0.0000		9999	2720	0	0	0
2019/08/04 12:22:00	BASE	12.39	117	14.15	131	-3.3	58	-10.4	0	0	959.0	NA	0.0000		9999	4130	0	0	0
2019/08/04 12:23:00	BASE	11.94	117	14.15	131	-3.3	58	-10.5	0	0	959.0	NA	0.0000		9999	2920	4270	0	0
2019/08/04 12:24:00	BASE	11.15	124	14.15	131	-3.4	57	-10.6	0	0	959.0	NA	0.0000		9999	2490	0	0	0
2019/08/04 12:25:00	BASE	10.96	133	14.15	131	-3.4	57	-10.8	0	0	959.0	NA	0.0000		9999	2890	0	0	0
2019/08/04 12:26:00	BASE	10.26	139	14.15	131	-3.4	56	-10.9	0	0	959.0	NA	0.0000		9999	2890	0	0	0
2019/08/04 12:27:00	BASE	9.38	141	14.15	131	-3.5	56	-11.1	0	0	959.0	NA	0.0000		9999	3050	4660	0	0
2019/08/04 12:28:00	BASE	9.96	142	14.15	131	-3.5	55	-11.2	0	0	959.0	NA	0.0000		9999	3900	0	0	0
2019/08/04 12:29:00	BASE	10.26	144	14.15	131	-3.5	55	-11.3	0	0	959.0	NA	0.0000		9999	2820	0	0	0
2019/08/04 12:30:00	BASE	9.65	145	13.48	130	-3.5	54	-11.4	0	0	959.0	NA	0.0000		9999	2990	0	0	0
2019/08/04 12:31:00	BASE	10.37	144	13.84	146	-3.5	54	-11.4	0	0	958.9	NA	0.0000		9999	5870	0	0	0
2019/08/04 12:32:00	BASE	11.72	143	13.84	146	-3.5	55	-11.3	0	0	958.9	NA	0.0000		9999	3020	5380	0	0
2019/08/04 12:33:00	BASE	11.69	143	13.84	146	-3.5	55	-11.2	0	0	959.0	NA	0.0000		9999	2890	0	0	0
2019/08/04 12:34:00	BASE	11.47	141	13.84	146	-3.5	56	-11.1	0	0	958.9	NA	0.0000		9999	4950	0	0	0
2019/08/04 12:35:00	BASE	10.87	139	13.84	146	-3.5	56	-11.0	1	0	959.0	NA	0.0000		9999	4920	0	0	0
2019/08/04 12:36:00	BASE	10.76	141	13.84	146	-3.5	56	-11.0	1	0	959.0	NA	0.0000		9999	3450	0	0	0
2019/08/04 12:37:00	BASE	12.22	142	14.30	139	-3.5	56	-10.9	1	0	959.0	NA	0.0000		9999	3510	0	0	0
2019/08/04 12:38:00	BASE	11.54	140	14.30	139	-3.4	57	-10.8	1	0	959.0	NA	0.0000		9999	3510	0	0	0
2019/08/04 12:39:00	BASE	10.03	139	14.30	139	-3.4	57	-10.7	1	0	959.0	NA	0.0000		9999	4720	0	0	0
2019/08/04 12:40:00	BASE	11.93	136	15.18	138	-3.4	58	-10.6	1	0	959.0	NA	0.0000		9999	4560	0	0	0
2019/08/04 12:41:00	BASE	13.74	134	15.18	138	-3.4	58	-10.5	1	0	959.0	NA	0.0000		9999	4400	0	0	0
2019/08/04 12:42:00	BASE	13.24	133	15.18	138	-3.4	58	-10.5	1	0	959.0	NA	0.0000		9999	4460	0	0	0
2019/08/04 12:43:00	BASE	12.17	130	15.18	138	-3.3	58	-10.5	1	0	959.1	NA	0.0000		9999	4430	0	0	0
2019/08/04 12:44:00	BASE	11.28	124	15.18	138	-3.3	57	-10.5	1	0	959.1	NA	0.0000		9999	4130	0	0	0
2019/08/04 12:45:00	BASE	10.74	122	15.18	138	-3.2	57	-10.5	1	0	959.1	NA	0.0000		9999	4070	0	0	0
2019/08/04 12:46:00	BASE	10.57	126	15.18	138	-3.1	56	-10.6	1	0	959.1	NA	0.0000		9999	4230	0	0	0
2019/08/04 12:47:00	BASE	10.55	129	15.18	138	-3.1	56	-10.6	1	0	959.2	NA	0.0000		9999	4530	0	0	0
2019/08/04 12:48:00	BASE	10.83	131	15.18	138	-3.1	56	-10.7	1	0	959.1	NA	0.0000		9999	4270	4920	0	0
2019/08/04 12:49:00	BASE	10.97	132	15.18	138	-3.2	56	-10.7	1	0	959.2	NA	0.0000		9999	4530	0	0	0
2019/08/04 12:50:00	BASE	10.37	130	14.46	134	-3.2	55	-10.9	1	0	959.2	NA	0.0000		9999	4000	4890	0	0
2019/08/04 12:51:00	BASE	9.74	125	13.94	130	-3.2	55	-11.0	1	0	959.2	NA	0.0000		9999	4790	0	0	0
2019/08/04 12:52:00	BASE	8.28	118	13.43	119	-3.2	55	-11.1	1	0	959.2	NA	0.0000		9999	3450	0	0	0
2019/08/04 12:53:00	BASE	6.47	108	13.43	119	-3.2	55	-11.1	1	0	959.2	NA	0.0000		9999	5680	0	0	0
2019/08/04 12:54:00	BASE	5.90	91	12.71	134	-3.2	55	-11.0	2	0	959.2	NA	0.0000		9999	4890	0	0	0
2019/08/04 12:55:00	BASE	5.71	78	12.71	134	-3.2	56	-10.8	2	0	959.2	NA	0.0000		9999	4990	0	0	0
2019/08/04 12:56:00	BASE	4.64	83	12.71	134	-3.2	56	-10.7	2	0	959.2	NA	0.0000		9999	4990	0	0	0
2019/08/04 12:57:00	BASE	3.86	102	12.71	134	-3.2	56	-10.7	2	0	959.2	NA	0.0000		9999	5020	0	0	0
2019/08/04 12:58:00	BASE	3.68	107	11.57	132	-3.2	56	-10.7	2	0	959.2	NA	0.0000		9999	5050	0	0	0
2019/08/04 12:59:00	BASE	3.45	113	10.80	130	-3.2	56	-10.8	2	0	959.3	NA	0.0000		9999	5150	0	0	0
2019/08/04 13:00:00	BASE	3.11	118	10.24	125	-3.2	55	-10.9	2	0	959.4	NA	0.0000		9999	5770	0	0	0
2019/08/04 13:01:00	BASE	5.01	121	10.75	129	-3.2	55	-10.9	2	0	959.4	NA	0.0000		9999	5220	0	0	0
2019/08/04 13:02:00	BASE	8.53	128	11.11	129	-3.2	55	-10.9	2	0	959.3	NA	0.0000		9999	5220	0	0	0
2019/08/04 13:03:00	BASE	9.61	126	11.11	129	-3.2	56	-10.8	3	0	959.3	NA	0.0000		9999	5250	0	0	0
2019/08/04 13:04:00	BASE	9.38	124	11.11	129	-3.2	57	-10.6	3	0	959.3	NA	0.0000		9999	5680	0	0	0
2019/08/04 13:05:00	BASE	10.12	126	12.35	130	-3.2	57	-10.5	3	0	959.3	NA	0.0000		9999	5150	0	0	0
2019/08/04 13:06:00	BASE	10.33	125	12.35	130	-3.2	57	-10.4	3	0	959.3	NA	0.0000		9999	5480	0	0	0
2019/08/04 13:07:00	BASE	9.55	123	12.35	130	-3.2	58	-10.3	3	0	959.4	NA	0.0000		9999	5320	0	0	0
2019/08/04 13:08:00	BASE	9.86	129	12.35	130	-3.2	58	-10.4	3	0	959.4	NA	0.0000		9999	5250	0	0	0
2019/08/04 13:09:00	BASE	10.97	131	12.35	130	-3.2	57	-10.4	4	0	959.4	NA	0.0000		9999	5510	0	0	0
2019/08/04 13:10:00	BASE	10.42	130	12.35	130	-3.2	57	-10.5	4	0	959.4	NA	0.0000		9999	5870	0	0	0
2019/08/04 13:11:00	BASE	10.61	130	13.17	133	-3.2	57	-10.5	4	0	959.3	NA	0.0000		9999	5150	0	0	0
2019/08/04 13:12:00	BASE	11.97	130	13.84	133	-3.2	57	-10.5	5	0	959.3	NA	0.0000		9999	5150	0	0	0
2019/08/04 13:13:00	BASE	11.18	129	13.84	133	-3.2	56	-10.7	5	0	959.4	NA	0.0000		9999	5840	0	0	0
2019/08/04 13:14:01	BASE	9.87	126	13.84	133	-3.1	55	-10.8	5	0	959.4	NA	0.0000		9999	5770	0	0	0
2019/08/04 13:15:01	BASE	9.46	121	13.84	133	-3.2	55	-11.0	6	0	959.4	NA	0.0000		9999	5810	0	0	0
2019/08/04 13:16:01	BASE	10.04	118	13.84	133	-3.2	54	-11.2	6	0	959.4	NA	0.0000		9999	6230	0	0	0
2019/08/04 13:17:01	BASE	10.79	121	13.84	133	-3.2	54	-11.3	7	0	959.4	NA	0.0000		9999	5480	0	0	0
2019/08/04 13:18:01	BASE	10.50	123	13.84	133	-3.2	54	-11.3	7	0	959.4	NA	0.0000		9999	5480	0	0	0
2019/08/04 13:19:01	BASE	10.73	122	13.84	133	-3.2	54	-11.2	8	0	959.3	NA	0.0000		9999	5150	0	0	0
2019/08/04 13:20:01	BASE	11.20	122	13.84	133	-3.2	54	-11.2	8	0	959.3	NA	0.0000		9999	4270	5450	0	0
2019/08/04 13:21:01	BASE	10.95	122	13.84	133	-3.1	54	-11.1	9	0	959.3	NA	0.0000		9999	4820	5840	0	0
2019/08/04 13:22:01	BASE	10.45	122	12.81	127	-3.1	54	-11.1	10	0	959.4	NA	0.0000		9999	4820	5840	0	0
2019/08/04 13:23:01	BASE	9.72	118	12.81	127	-3.1	54	-11.0	10	0	959.4	NA	0.0000		9999	4720	6100	0	0
2019/08/04 13:24:01	BASE	9.57	109	12.81	127	-3.1	54	-11.0	11	0	959.4	NA	0.0000		9999	5220	0	0	0
2019/08/04 13:25:01	BASE	9.71	103	12.81	127	-3.1	55	-10.9	12	0	959.4	NA	0.0000		9999	5640	0	0	0
2019/08/04 13:26:01	BASE	9.42	106	12.81	127	-3.1	55	-10.8	12	0	959.5	NA	0.0000		9999	5410	0	0	0
2019/08/04 13:27:01	BASE	8.77	110	12.81	127	-3.2	56	-10.7	13	0	959.5	NA	0.0000		9999	5410	0	0	0
2019/08/04 13:28:01	BASE	7.93	107	12.81	127	-3.3	57	-10.7	13	0	959.5	NA	0.0000		9999	5280	0	0	0
2019/08/04 13:29:01	BASE	7.62	98	12.45	125	-3.4	57	-10.6	14	0	959.5	NA	0.0000		9999	5480	0	0	0
2019/08/04 13:30:01	BASE	7.93	92	12.45	125	-3.4	57	-10.6	14	0	959.5	NA	0.0000		9999	12700	0	0	0
2019/08/04 13:31:01	BASE	7.94	88	10.91	100	-3.4	57	-10.6	14	0	959.5	NA	0.0000		9999	9190	0	0	0
2019/08/04 13:32:01	BASE	7.26	90	10.91	100	-3.3	57	-10.7	15	0	959.5	NA	0.0000		9999	9090	0	0	0
2019/08/04 13:33:01	BASE	6.99	101	10.91	100	-3.3	56	-10.8	15	0	959.5	NA	0.0000		9999	8920	0	0	0
2019/08/04 13:34:01	BASE	7.04	111	10.44	106	-3.4	57	-10.8	16	0	959.5	NA	0.0000		9999	8760	0	0	0
2019/08/04 13:35:01	BASE	6.85	114	10.24	116	-3.4	57	-10.7	16	0	959.6	NA	0.0000		9999	8690	0	0	0
2019/08/04 13:36:01	BASE	7.01	117	9.77	87	-3.4	58	-10.6	16	0	959.6	NA	0.0000		9999	6370	0	0	0
2019/08/04 13:37:01	BASE	7.05	120	9.77	87	-3.4	58	-10.6	17	0	959.6	NA	0.0000		9999	6270	0	0	0
2019/08/04 13:38:01	BASE	6.83	124	9.77	87	-3.4	58	-10.5	17	0	959.6	NA	0.0000		9999	6140	0	0	0
2019/08/04 13:39:01	BASE	6.69	130	8.80	89	-3.3	57	-10.6	18	0	959.6	NA	0.0000		9999	6040	0	0	0
2019/08/04 13:40:01	BASE	6.65	135	8.80	89	-3.3	57	-10.6	18	0	959.6	NA	0.0000		9999	6100	0	0	0
2019/08/04 13:41:01	BASE	6.07	138	8.13	118	-3.3	57	-10.7	18	0	959.7	NA	0.0000		9999	6140	0	0	0
2019/08/04 13:42:01	BASE	5.22	140	8.13	118	-3.4	57	-10.7	19	0	959.7	NA	0.0000		9999	0	0	0	0
2019/08/04 13:43:01	BASE	4.57	138	7.82	127	-3.5	58	-10.6	19	0	959.7	NA	0.0000		9999	6040	0	0	0
2019/08/04 13:44:01	BASE	4.91	139	7.82	127	-3.6	59	-10.5	20	0	959.7	NA	0.0000		9999	5870	0	0	0
2019/08/04 13:45:01	BASE	5.60	141	7.41	128	-3.7	60	-10.3	20	0	959.7	NA	0.0000		9999	6000	0	0	0
2019/08/04 13:46:01	BASE	5.49	139	7.41	128	-3.7	61	-10.1	20	0	959.7	NA	0.0000		9999	6070	0	0	0
2019/08/04 13:47:01	BASE	5.04	139	7.31	141	-3.6	61	-10.0	21	0	959.8	NA	0.0000		9999	5970	0	0	0
2019/08/04 13:48:01	BASE	4.69	139	7.31	141	-3.6	61	-10.0	21	0	959.8	NA	0.0000		9999	5940	0	0	0
2019/08/04 13:49:01	BASE	4.53	141	7.05	143	-3.6	62	-9.9	22	0	959.8	NA	0.0000		9999	5940	0	0	0
2019/08/04 13:50:01	BASE	4.45	144	7.05	143	-3.7	62	-9.9	22	0	959.8	NA	0.0000		9999	5540	0	0	0
2019/08/04 13:51:01	BASE	4.36	144	7.05	143	-3.7	62	-9.9	22	0	959.8	NA	0.0000		9999	5580	0	0	0
2019/08/04 13:52:01	BASE	3.93	153	7.05	143	-3.7	63	-9.8	23	0	959.8	NA	0.0000		9999	5640	0	0	0
2019/08/04 13:53:01	BASE	3.73	165	7.05	143	-3.7	63	-9.7	23	0	959.8	NA	0.0000		9999	5710	0	0	0
2019/08/04 13:54:01	BASE	4.20	169	6.48	137	-3.6	63	-9.7	23	0	959.9	NA	0.0000		9999	5710	0	0	0
2019/08/04 13:55:01	BASE	4.33	170	5.56	140	-3.5	62	-9.7	24	0	960.0	NA	0.0000		9999	5640	6140	0	0
2019/08/04 13:56:01	BASE	4.26	171	5.25	168	-3.4	62	-9.7	24	0	960.0	NA	0.0000		9999	6170	0	0	0
2019/08/04 13:57:01	BASE	4.67	175	5.86	187	-3.3	61	-9.7	25	0	960.0	NA	0.0000		9999	6040	0	0	0
2019/08/04 13:58:01	BASE	5.47	177	6.53	178	-3.3	61	-9.8	25	0	960.0	NA	0.0000		9999	5970	0	0	0
2019/08/04 13:59:01	BASE	6.19	175	7.41	175	-3.2	60	-9.9	26	0	960.0	NA	0.0000		9999	6000	0	0	0
2019/08/04 14:00:00	BASE	6.17	171	7.41	175	-3.2	60	-9.9	27	0	960.0	NA	0.0000		9999	6040	0	0	0
2019/08/04 14:01:00	BASE	5.31	170	7.41	175	-3.2	60	-9.9	28	0	960.0	NA	0.0000		9999	5970	0	0	0
2019/08/04 14:02:00	BASE	5.19	172	7.41	175	-3.1	60	-9.9	28	0	960.0	NA	0.0000		9999	6040	0	0	0
2019/08/04 14:03:00	BASE	5.58	170	7.41	175	-3.1	60	-9.9	29	0	960.1	NA	0.0000		9999	5870	0	0	0
2019/08/04 14:04:01	BASE	5.64	164	7.41	175	-3.1	60	-9.8	30	0	960.1	NA	0.0000		9999	5940	0	0	0
2019/08/04 14:05:00	BASE	5.03	157	7.41	175	-3.2	61	-9.7	31	0	960.1	NA	0.0000		9999	6000	0	0	0
2019/08/04 14:06:01	BASE	4.23	150	7.41	175	-3.2	62	-9.6	32	0	960.1	NA	0.0000		9999	6100	0	0	0
2019/08/04 14:07:00	BASE	4.16	144	7.41	175	-3.3	63	-9.4	32	0	960.1	NA	0.0000		9999	6000	0	0	0
2019/08/04 14:08:01	BASE	3.40	134	7.41	175	-3.4	63	-9.3	33	0	960.2	NA	0.0000		9999	5810	0	0	0
2019/08/04 14:09:00	BASE	2.84	119	7.00	164	-3.5	64	-9.3	34	0	960.2	NA	0.0000		9999	5740	0	0	0
2019/08/04 14:10:00	BASE	3.11	114	7.00	164	-3.5	64	-9.3	35	0	960.2	NA	0.0000		9999	5540	0	0	0
2019/08/04 14:11:00	BASE	3.44	124	7.00	164	-3.5	65	-9.2	36	0	960.2	NA	0.0000		9999	5540	0	0	0
2019/08/04 14:12:01	BASE	3.99	125	7.00	164	-3.6	65	-9.2	36	0	960.3	NA	0.0000		9999	5610	0	0	0
2019/08/04 14:13:00	BASE	4.13	128	7.00	164	-3.6	65	-9.3	37	0	960.2	NA	0.0000		9999	4920	5610	0	0
2019/08/04 14:14:01	BASE	4.71	148	6.84	168	-3.7	65	-9.3	37	0	960.2	NA	0.0000		9999	4990	5610	0	0
2019/08/04 14:15:00	BASE	4.81	155	6.84	168	-3.7	65	-9.3	38	0	960.2	NA	0.0000		9999	4860	5580	0	0
2019/08/04 14:16:00	BASE	4.77	158	7.31	169	-3.7	65	-9.3	38	0	960.2	NA	0.0000		9999	4950	0	0	0
2019/08/04 14:17:00	BASE	5.57	173	7.31	169	-3.7	66	-9.2	38	0	960.3	NA	0.0000		9999	4950	0	0	0
2019/08/04 14:18:00	BASE	6.23	179	7.31	178	-3.6	66	-9.1	38	0	960.3	NA	0.0000		9999	4950	0	0	0
2019/08/04 14:19:00	BASE	6.87	181	7.67	187	-3.5	65	-9.0	38	0	960.3	NA	0.0000		9999	4820	0	0	0
2019/08/04 14:20:00	BASE	7.59	182	9.00	181	-3.4	65	-9.1	38	0	960.3	NA	0.0000		9999	4630	5180	0	0
2019/08/04 14:21:01	BASE	7.84	182	9.00	181	-3.3	64	-9.1	38	0	960.3	NA	0.0000		9999	4590	5120	0	0
2019/08/04 14:22:00	BASE	8.08	183	10.24	181	-3.2	63	-9.2	37	0	960.2	NA	0.0000		9999	4430	0	0	0
2019/08/04 14:23:00	BASE	8.66	183	10.24	181	-3.2	63	-9.3	37	0	960.3	NA	0.0000		9999	4660	0	0	0
2019/08/04 14:24:01	BASE	9.22	181	10.85	174	-3.2	62	-9.3	37	0	960.2	NA	0.0000		9999	4560	0	0	0
2019/08/04 14:25:00	BASE	9.74	180	10.85	174	-3.1	62	-9.4	36	0	960.2	NA	0.0000		9999	4430	0	0	0
2019/08/04 14:26:00	BASE	9.39	181	10.85	174	-3.1	62	-9.4	36	0	960.3	NA	0.0000		9999	4300	0	0	0
2019/08/04 14:27:00	BASE	9.07	187	10.85	174	-3.1	62	-9.4	35	0	960.3	NA	0.0000		9999	4530	0	0	0
2019/08/04 14:28:00	BASE	8.68	191	10.85	174	-3.1	62	-9.3	34	0	960.3	NA	0.0000		9999	4890	0	0	0
2019/08/04 14:29:00	BASE	8.57	186	10.85	174	-3.1	62	-9.3	34	0	960.3	NA	0.0000		9999	4530	0	0	0
2019/08/04 14:30:00	BASE	8.77	178	10.85	174	-3.0	62	-9.2	33	0	960.3	NA	0.0000		9999	4560	0	0	0
2019/08/04 14:31:00	BASE	8.71	172	10.85	174	-3.0	62	-9.2	33	0	960.3	NA	0.0000		9999	4300	0	0	0
2019/08/04 14:32:00	BASE	8.31	170	10.85	174	-3.0	62	-9.2	32	0	960.3	NA	0.0000		9999	4530	0	0	0
2019/08/04 14:33:00	BASE	8.45	169	10.85	174	-3.0	62	-9.3	31	0	960.3	NA	0.0000		9999	4430	0	0	0
2019/08/04 14:34:00	BASE	9.02	166	10.75	194	-3.0	62	-9.3	31	0	960.3	NA	0.0000		9999	4130	0	0	0
2019/08/04 14:35:00	BASE	9.23	166	10.75	194	-3.0	62	-9.4	30	0	960.4	NA	0.0000		9999	4230	0	0	0
2019/08/04 14:36:00	BASE	9.67	170	10.75	194	-3.0	61	-9.4	30	0	960.4	NA	0.0000		9999	4330	0	0	0
2019/08/04 14:37:00	BASE	10.31	171	12.81	172	-3.0	61	-9.5	30	0	960.4	NA	0.0000		9999	4490	0	0	0
2019/08/04 14:38:00	BASE	10.47	170	12.81	172	-3.0	61	-9.5	30	0	960.4	NA	0.0000		9999	4490	0	0	0
2019/08/04 14:39:00	BASE	10.03	169	12.81	172	-3.0	61	-9.6	29	0	960.4	NA	0.0000		9999	4560	0	0	0
2019/08/04 14:40:00	BASE	10.26	172	12.81	172	-3.0	61	-9.5	29	0	960.4	NA	0.0000		9999	5410	0	0	0
2019/08/04 14:41:00	BASE	10.79	176	12.81	172	-3.1	62	-9.4	29	0	960.4	NA	0.0000		9999	2230	0	0	0
2019/08/04 14:42:00	BASE	10.59	180	13.48	185	-3.1	62	-9.4	29	0	960.4	NA	0.0000		9999	1870	0	0	0
2019/08/04 14:43:00	BASE	11.58	185	13.94	190	-3.1	62	-9.3	30	0	960.4	NA	0.0000		9999	2200	5510	0	0
2019/08/04 14:44:00	BASE	13.46	190	15.43	201	-3.2	63	-9.3	30	0	960.4	NA	0.0000		9999	5480	0	0	0
2019/08/04 14:45:00	BASE	13.98	194	15.43	201	-3.2	63	-9.2	31	0	960.3	NA	0.0000		9999	4070	0	0	0
2019/08/04 14:46:00	BASE	13.29	197	15.43	201	-3.2	63	-9.2	31	0	960.4	NA	0.0000		9999	2100	4130	0	0
2019/08/04 14:47:00	BASE	12.97	197	15.90	189	-3.1	63	-9.2	32	0	960.4	NA	0.0000		9999	4130	5480	0	0
2019/08/04 14:48:00	BASE	13.76	193	16.20	189	-3.1	63	-9.2	32	0	960.3	NA	0.0000		9999	4130	5410	0	0
2019/08/04 14:49:00	BASE	15.27	190	18.62	189	-3.1	63	-9.1	33	0	960.3	NA	0.0000		9999	5510	0	0	0
2019/08/04 14:50:00	BASE	15.59	188	18.62	189	-3.1	63	-9.1	33	0	960.4	NA	0.0000		9999	5580	0	0	0
2019/08/04 14:51:00	BASE	15.04	185	18.62	189	-3.1	63	-9.1	34	0	960.4	NA	0.0000		9999	5580	0	0	0
2019/08/04 14:52:00	BASE	15.77	183	18.62	189	-3.1	64	-9.0	34	0	960.3	NA	0.0000		9999	5770	0	0	0
2019/08/04 14:53:00	BASE	15.92	184	18.62	189	-3.1	63	-9.1	34	0	960.4	NA	0.0000		9999	5710	0	0	0
2019/08/04 14:54:00	BASE	15.61	183	18.62	189	-3.1	63	-9.2	34	0	960.4	NA	0.0000	UP	9999	5840	0	0	0
2019/08/04 14:55:00	BASE	15.28	178	18.62	189	-3.1	62	-9.5	34	0	960.4	NA	0.0000	UP	9999	5840	0	0	0
2019/08/04 14:56:00	BASE	14.88	178	18.62	189	-3.2	60	-9.8	34	0	960.5	NA	0.0000	UP	9000	5090	5640	0	0
2019/08/04 14:57:00	BASE	15.03	177	18.62	189	-3.2	59	-10.1	34	0	960.5	NA	0.0000	UP	9000	4890	5610	0	0
2019/08/04 14:58:00	BASE	15.11	172	18.62	189	-3.2	58	-10.4	34	0	960.5	NA	0.0000	UP	9999	4820	5580	0	0
2019/08/04 14:59:00	BASE	13.94	170	17.90	178	-3.2	57	-10.5	34	0	960.6	NA	0.0000	UP	9999	5540	0	0	0
2019/08/04 15:00:00	BASE	12.66	169	17.90	178	-3.2	57	-10.6	33	0	960.6	NA	0.0000	UP	9999	4230	0	0	0
2019/08/04 15:01:00	BASE	13.02	162	17.90	178	-3.2	57	-10.6	33	0	960.6	NA	0.0000	UP	9999	3710	0	0	0
2019/08/04 15:02:00	BASE	13.04	157	16.87	179	-3.2	57	-10.6	33	0	960.6	NA	0.0000	UP	9999	4200	0	0	0
2019/08/04 15:03:00	BASE	12.66	152	16.87	179	-3.2	56	-10.7	32	0	960.6	NA	0.0000	UP	9999	4170	0	0	0
2019/08/04 15:04:00	BASE	12.31	149	16.51	176	-3.2	56	-10.7	32	0	960.7	NA	0.0000	UP	9999	4040	0	0	0
2019/08/04 15:05:00	BASE	11.55	152	16.51	176	-3.2	56	-10.7	32	0	960.7	NA	0.0000	UP	9999	4170	0	0	0
2019/08/04 15:06:00	BASE	11.62	148	16.51	176	-3.1	56	-10.8	32	0	960.7	NA	0.0000	UP	9999	0	0	0	4950
2019/08/04 15:07:00	BASE	12.77	143	16.10	169	-3.1	55	-10.9	33	0	960.6	NA	0.0000	UP	9999	0	0	0	5680
2019/08/04 15:08:00	BASE	13.78	143	15.07	144	-3.1	55	-10.9	32	0	960.6	NA	0.0000	UP	9999	4530	0	0	0
2019/08/04 15:09:00	BASE	13.44	144	15.07	144	-3.1	54	-11.0	32	0	960.7	NA	0.0000	UP	9999	4000	0	0	0
2019/08/04 15:10:00	BASE	12.28	144	15.07	144	-3.1	54	-11.1	31	0	960.8	NA	0.0000	UP	9999	4990	0	0	0
2019/08/04 15:11:00	BASE	11.50	143	15.07	144	-3.1	54	-11.1	31	0	960.8	NA	0.0000	UP	9999	4360	0	0	0
2019/08/04 15:12:00	BASE	11.32	147	15.07	144	-3.1	54	-11.1	30	0	960.8	NA	0.0000	UP	9999	3840	0	0	0
2019/08/04 15:13:00	BASE	10.92	152	15.07	144	-3.1	55	-11.0	30	0	960.8	NA	0.0000	UP	9999	0	0	0	4590
2019/08/04 15:14:00	BASE	10.35	152	15.07	144	-3.2	55	-10.8	30	0	960.9	NA	0.0000		9999	4330	0	0	0
2019/08/04 15:15:00	BASE	10.57	146	15.07	144	-3.2	56	-10.7	30	0	960.8	NA	0.0000		9999	4360	0	0	0
2019/08/04 15:16:00	BASE	11.25	143	15.07	144	-3.2	57	-10.6	30	0	960.8	NA	0.0000		9999	0	0	0	4200
2019/08/04 15:17:00	BASE	10.87	147	15.07	144	-3.2	57	-10.4	30	0	960.9	NA	0.0000		9999	0	0	0	4590
2019/08/04 15:18:00	BASE	10.29	149	14.61	148	-3.2	58	-10.4	30	0	960.9	NA	0.0000		9999	0	0	0	5510
2019/08/04 15:19:00	BASE	10.08	147	12.81	135	-3.3	58	-10.3	29	0	960.9	NA	0.0000		9999	0	0	0	4660
2019/08/04 15:20:00	BASE	9.86	143	12.76	152	-3.3	58	-10.3	29	0	960.9	NA	0.0000		9999	0	0	0	4460
2019/08/04 15:21:00	BASE	9.96	141	12.76	152	-3.2	59	-10.2	29	0	961.0	NA	0.0000		9999	0	0	0	4590
2019/08/04 15:22:00	BASE	9.45	140	12.40	145	-3.2	59	-10.1	30	0	961.0	NA	0.0000		9999	0	0	0	5320
2019/08/04 15:23:00	BASE	9.01	138	12.40	145	-3.2	60	-9.9	30	0	961.0	NA	0.0000		9999	0	0	0	5090
2019/08/04 15:24:00	BASE	9.23	136	12.40	145	-3.2	61	-9.7	30	0	961.0	NA	0.0000		9999	0	0	0	5220
2019/08/04 15:25:00	BASE	9.17	136	12.40	145	-3.2	61	-9.6	30	0	961.0	NA	0.0000		9999	0	0	0	5180
2019/08/04 15:26:00	BASE	8.39	139	11.78	147	-3.2	62	-9.5	30	0	961.0	NA	0.0000		9999	0	0	0	4990
2019/08/04 15:27:00	BASE	8.74	134	11.78	147	-3.2	62	-9.4	31	0	961.0	NA	0.0000	UP	9999	4860	0	0	0
2019/08/04 15:28:00	BASE	9.64	131	11.11	144	-3.3	63	-9.4	31	0	961.0	NA	0.0000	UP	9999	4950	0	0	0
2019/08/04 15:29:00	BASE	9.06	131	11.11	144	-3.3	63	-9.4	32	0	961.0	NA	0.0000	UP	9999	5050	0	0	0
2019/08/04 15:30:00	BASE	9.30	131	10.91	146	-3.3	63	-9.4	32	0	961.0	NA	0.0000	UP	9999	5220	0	0	0
2019/08/04 15:31:00	BASE	9.85	134	10.80	128	-3.3	63	-9.5	33	0	961.0	NA	0.0000	UP	9999	5050	0	0	0
2019/08/04 15:32:00	BASE	9.42	133	10.80	128	-3.3	62	-9.5	33	0	961.0	NA	0.0000	UP	9999	4820	0	0	0
2019/08/04 15:33:00	BASE	8.94	131	10.80	128	-3.3	62	-9.7	34	0	961.0	NA	0.0000	UP	9999	5050	0	0	0
2019/08/04 15:34:00	BASE	8.74	131	10.80	128	-3.4	62	-9.6	34	0	961.0	NA	0.0000	UP	9999	0	0	0	520
2019/08/04 15:35:00	BASE	8.66	131	10.80	128	-3.4	62	-9.6	35	0	961.0	NA	0.0000	UP	9999	5220	0	0	0
2019/08/04 15:36:00	BASE	8.53	129	10.80	128	-3.4	62	-9.6	36	0	961.1	NA	0.0000	UP	9999	5250	0	0	0
2019/08/04 15:37:00	BASE	8.55	124	10.55	134	-3.4	62	-9.6	36	0	961.1	NA	0.0000	UP	9999	5350	0	0	0
2019/08/04 15:38:00	BASE	8.83	119	10.55	134	-3.5	63	-9.6	36	0	961.1	NA	0.0000	UP	9999	5510	0	0	0
2019/08/04 15:39:00	BASE	9.47	118	10.85	123	-3.5	62	-9.6	37	0	961.1	NA	0.0000		9999	4760	0	0	0
2019/08/04 15:40:00	BASE	9.46	118	10.85	123	-3.5	62	-9.7	37	0	961.1	NA	0.0000		9999	5120	0	0	0
2019/08/04 15:41:00	BASE	9.75	118	11.52	119	-3.4	62	-9.7	38	0	961.0	NA	0.0000		9999	5250	0	0	0
2019/08/04 15:42:00	BASE	10.57	120	11.52	119	-3.4	62	-9.7	38	0	961.0	NA	0.0000		9999	5450	0	0	0
2019/08/04 15:43:00	BASE	10.55	119	11.52	119	-3.4	61	-9.7	39	0	961.0	NA	0.0000		9999	5380	0	0	0
2019/08/04 15:44:00	BASE	9.87	116	11.52	119	-3.4	61	-9.8	39	0	961.1	NA	0.0000		9999	5450	0	0	0
2019/08/04 15:45:00	BASE	9.70	114	11.52	119	-3.4	61	-9.7	40	0	961.1	NA	0.0000		9999	5480	0	0	0
2019/08/04 15:46:00	BASE	9.72	113	11.52	119	-3.4	62	-9.7	40	0	961.1	NA	0.0000		9999	5350	0	0	0
2019/08/04 15:47:00	BASE	9.72	112	11.52	119	-3.4	62	-9.6	40	0	961.1	NA	0.0000		9999	5320	0	0	0
2019/08/04 15:48:00	BASE	10.11	115	11.52	119	-3.5	63	-9.5	40	0	961.1	NA	0.0000		9999	5350	0	0	0
2019/08/04 15:49:00	BASE	9.93	114	11.52	119	-3.5	64	-9.4	40	0	961.1	NA	0.0000		9999	5380	0	0	0
2019/08/04 15:50:00	BASE	9.36	110	11.52	119	-3.5	64	-9.3	41	0	961.1	NA	0.0000		9999	5410	0	0	0
2019/08/04 15:51:00	BASE	9.19	107	11.32	121	-3.6	65	-9.2	41	0	961.1	NA	0.0000		9999	5380	0	0	0
2019/08/04 15:52:00	BASE	9.43	106	10.85	117	-3.6	66	-9.1	41	0	961.1	NA	0.0000		9999	5090	0	0	0
2019/08/04 15:53:00	BASE	9.61	105	10.85	117	-3.6	66	-9.0	41	0	961.1	NA	0.0000		9999	5050	0	0	0
2019/08/04 15:54:00	BASE	9.39	104	10.85	117	-3.7	67	-8.9	42	0	961.1	NA	0.0000		9999	4890	0	0	0
2019/08/04 15:55:00	BASE	9.22	102	10.85	117	-3.8	68	-8.8	42	0	961.1	NA	0.0000		9999	4920	0	0	0
2019/08/04 15:56:00	BASE	9.28	103	10.85	117	-3.8	68	-8.8	42	0	961.1	NA	0.0000		9999	4920	0	0	0
2019/08/04 15:57:00	BASE	9.41	105	10.65	119	-3.8	69	-8.7	43	0	961.1	NA	0.0000		9999	5280	0	0	0
2019/08/04 15:58:00	BASE	9.36	102	10.44	112	-3.8	69	-8.7	43	0	961.1	NA	0.0000		9999	5020	0	0	0
2019/08/04 15:59:00	BASE	9.05	99	10.24	102	-3.8	69	-8.7	43	0	961.1	NA	0.0000		9999	5150	0	0	0
2019/08/04 16:00:00	BASE	8.98	97	10.24	102	-3.8	69	-8.6	44	0	961.1	NA	0.0000		9999	5020	0	0	0
2019/08/04 16:01:00	BASE	8.61	92	10.24	102	-3.8	69	-8.7	44	0	961.1	NA	0.0000		9999	4820	0	0	0
2019/08/04 16:02:00	BASE	8.50	90	10.24	102	-3.7	69	-8.7	44	0	961.1	NA	0.0000		9999	4720	0	0	0
2019/08/04 16:03:00	BASE	8.61	89	10.24	102	-3.7	68	-8.7	44	0	961.1	NA	0.0000		9999	4760	0	0	0
2019/08/04 16:04:00	BASE	8.13	87	10.24	102	-3.7	68	-8.7	44	0	961.1	NA	0.0000		9999	4590	0	0	0
2019/08/04 16:05:00	BASE	8.35	90	10.24	102	-3.7	68	-8.8	44	0	961.2	NA	0.0000		9999	4430	0	0	0
2019/08/04 16:06:00	BASE	8.82	95	10.24	102	-3.7	68	-8.7	45	0	961.2	NA	0.0000		9999	4200	0	0	0
2019/08/04 16:07:00	BASE	8.82	96	9.93	95	-3.7	68	-8.7	45	0	961.2	NA	0.0000		9999	3940	0	0	0
2019/08/04 16:08:00	BASE	8.70	96	9.93	95	-3.7	68	-8.7	45	0	961.2	NA	0.0000		9999	0	0	0	4790
2019/08/04 16:09:00	BASE	8.91	95	9.93	95	-3.7	68	-8.7	45	0	961.2	NA	0.0000		9999	0	0	0	4760
2019/08/04 16:10:00	BASE	9.55	95	10.13	98	-3.7	68	-8.7	45	0	961.2	NA	0.0000	-SN	9999	0	0	0	4630
2019/08/04 16:11:00	BASE	10.12	95	11.11	98	-3.7	68	-8.8	46	0	961.1	NA	0.0000	-SN	9999	0	0	0	4590
2019/08/04 16:12:00	BASE	9.89	96	11.11	98	-3.7	68	-8.8	46	0	961.2	NA	0.0000	-SN	9999	0	0	0	4530
2019/08/04 16:13:00	BASE	8.98	95	11.11	98	-3.7	67	-8.9	47	0	961.2	NA	0.0000	-SN	9999	0	0	0	4690
2019/08/04 16:14:00	BASE	8.51	95	11.11	98	-3.7	67	-8.9	48	0	961.2	NA	0.0000	-SN	9999	0	0	0	4720
2019/08/04 16:15:00	BASE	8.88	98	11.11	98	-3.7	67	-8.9	48	0	961.2	NA	0.0000	-SN	9999	0	0	0	4720
2019/08/04 16:16:00	BASE	9.22	98	11.11	98	-3.8	67	-8.9	49	0	961.2	NA	0.0000	-SN	9999	0	0	0	4820
2019/08/04 16:17:00	BASE	9.12	96	11.11	98	-3.8	68	-8.9	49	0	961.2	NA	0.0000	-SN	9999	0	0	0	4990
2019/08/04 16:18:00	BASE	8.96	95	11.11	98	-3.8	68	-8.8	50	0	961.2	NA	0.0000	-SN	9999	0	0	0	4890
2019/08/04 16:19:00	BASE	8.53	95	11.11	98	-3.8	69	-8.7	50	0	961.2	NA	0.0000	-SN	9999	0	0	0	4920
2019/08/04 16:20:00	BASE	8.71	94	11.11	98	-3.8	69	-8.6	51	0	961.2	NA	0.0000	-SN	9999	0	0	0	5090
2019/08/04 16:21:00	BASE	9.11	96	9.88	98	-3.9	70	-8.5	51	0	961.2	NA	0.0000	-SN	9999	0	0	0	5220
2019/08/04 16:22:00	BASE	8.95	97	9.67	96	-3.9	70	-8.5	52	0	961.2	NA	0.0000	-SN	9999	0	0	0	4990
2019/08/04 16:23:00	BASE	8.86	98	9.67	96	-3.9	71	-8.4	52	0	961.2	NA	0.0000	-SN	9999	0	0	0	5090
2019/08/04 16:24:00	BASE	7.04	100	9.67	96	-3.8	71	-8.2	53	0	961.4	NA	0.0000	-SN	9000	0	0	0	5320
2019/08/04 16:25:00	BASE	6.46	97	9.67	96	-3.8	71	-8.2	54	0	961.4	NA	0.0000	-SN	9000	0	0	0	5280
2019/08/04 16:26:00	BASE	8.01	92	9.67	96	-3.7	71	-8.1	54	0	961.4	NA	0.0000	-SN	9000	0	0	0	5250
2019/08/04 16:27:00	BASE	7.76	92	9.52	94	-3.7	72	-8.1	55	0	961.4	NA	0.0000	-SN	9000	0	0	0	5580
2019/08/04 16:28:00	BASE	7.40	95	9.52	94	-3.7	72	-8.1	55	0	961.4	NA	0.0000	-SN	9000	0	0	0	5410
2019/08/04 16:29:00	BASE	7.61	99	9.52	94	-3.8	72	-8.1	55	0	961.4	NA	0.0000	-SN	9000	0	0	0	5250
2019/08/04 16:30:00	BASE	6.68	107	9.52	94	-3.8	73	-8.0	55	0	961.5	NA	0.0000	-SN	9000	4000	21720	0	0
2019/08/04 16:31:00	BASE	5.80	107	9.52	94	-3.7	73	-7.8	55	0	961.5	NA	0.0000	-SN	9999	4100	0	0	0
2019/08/04 16:32:00	BASE	5.78	97	9.52	94	-3.7	74	-7.7	55	0	961.5	NA	0.0000	-SN	9999	0	0	0	5250
2019/08/04 16:33:00	BASE	6.02	94	8.69	100	-3.7	74	-7.7	56	0	961.5	NA	0.0000	-SN	9000	0	0	0	5320
2019/08/04 16:34:00	BASE	6.35	93	8.69	100	-3.6	74	-7.6	56	0	961.5	NA	0.0000	-SN	9000	0	0	0	4950
2019/08/04 16:35:00	BASE	5.85	96	8.69	100	-3.6	74	-7.6	57	0	961.5	NA	0.0000	-SN	9000	0	0	0	4990
2019/08/04 16:36:00	BASE	4.87	105	8.69	100	-3.7	74	-7.6	57	0	961.5	NA	0.0000	-SN	9000	0	0	0	4820
2019/08/04 16:37:00	BASE	3.36	102	8.69	100	-3.6	75	-7.4	57	0	961.6	NA	0.0000	-SN	8000	0	0	0	4860
2019/08/04 16:38:00	BASE	3.42	94	8.39	99	-3.5	75	-7.3	58	0	961.6	NA	0.0000	-SN	8000	0	0	0	4270
2019/08/04 16:39:00	BASE	4.29	93	7.51	96	-3.5	75	-7.2	58	0	961.6	NA	0.0000	-SN	9000	0	0	0	4790
2019/08/04 16:40:00	BASE	4.50	96	7.51	96	-3.5	75	-7.2	59	0	961.6	NA	0.0000	-SN	9000	0	0	0	4920
2019/08/04 16:41:00	BASE	4.98	95	6.94	90	-3.5	75	-7.2	59	0	961.7	NA	0.0000	-SN	9999	0	0	0	5220
2019/08/04 16:42:00	BASE	5.24	92	6.94	90	-3.5	75	-7.3	60	0	961.7	NA	0.0000	-SN	9000	2360	0	0	0
2019/08/04 16:43:00	BASE	5.31	93	6.74	113	-3.6	76	-7.3	60	0	961.7	NA	0.0000	-SN	9000	0	0	0	6500
2019/08/04 16:44:00	BASE	5.12	97	6.74	113	-3.6	76	-7.2	60	0	961.7	NA	0.0000	-SN	8000	0	0	0	5810
2019/08/04 16:45:00	BASE	4.22	98	6.22	95	-3.6	76	-7.2	61	0	961.7	NA	0.0000	-SN	9000	0	0	0	5250
2019/08/04 16:46:00	BASE	3.41	101	6.22	95	-3.6	77	-7.1	61	0	961.7	NA	0.0000	-SN	9000	0	0	0	5680
2019/08/04 16:47:00	BASE	3.11	95	6.22	95	-3.6	77	-7.0	61	0	961.7	NA	0.0000	-SN	9999	0	0	0	5540
2019/08/04 16:48:00	BASE	2.42	86	6.22	95	-3.6	77	-7.0	61	0	961.7	NA	0.0000	-SN	9999	0	0	0	5710
2019/08/04 16:49:00	BASE	1.66	92	6.22	95	-3.6	78	-6.9	61	0	961.7	NA	0.0000	-SN	9999	0	0	0	6140
2019/08/04 16:50:00	BASE	0.67	139	6.22	95	-3.6	78	-6.9	62	0	961.7	NA	0.0000	-SN	9999	0	0	0	5910
2019/08/04 16:51:00	BASE	0.23	139	6.22	95	-3.6	78	-6.8	62	0	961.7	NA	0.0000	-SN	8000	0	0	0	6000
2019/08/04 16:52:00	BASE	1.13	88	6.17	92	-3.5	79	-6.7	63	0	961.7	NA	0.0000	-SN	7000	0	0	0	5940
2019/08/04 16:53:00	BASE	1.73	97	6.17	92	-3.5	79	-6.6	63	0	961.7	NA	0.0000	-SN	7000	0	0	0	5840
2019/08/04 16:54:00	BASE	1.62	121	4.58	93	-3.4	79	-6.6	63	0	961.7	NA	0.0000	-SN	7000	2430	0	0	0
2019/08/04 16:55:00	BASE	1.63	138	4.01	94	-3.4	79	-6.5	63	0	961.7	NA	0.0000	-SN	7000	3310	0	0	0
2019/08/04 16:56:00	BASE	1.57	128	3.45	88	-3.4	79	-6.5	63	0	961.8	NA	0.0000	-SN	7000	3510	0	0	0
2019/08/04 16:57:00	BASE	1.09	99	2.42	93	-3.4	79	-6.5	63	0	961.8	NA	0.0000	-SN	9000	2300	0	0	0
2019/08/04 16:58:00	BASE	1.14	75	2.42	93	-3.5	79	-6.5	62	0	961.8	NA	0.0000	-SN	9000	2230	3480	0	0
2019/08/04 16:59:00	BASE	1.60	67	2.42	93	-3.5	80	-6.5	62	0	961.8	NA	0.0000	-SN	9000	2200	3840	0	0
2019/08/04 17:00:00	BASE	0.91	99	2.42	93	-3.5	80	-6.4	61	0	961.8	NA	0.0000	-SN	9000	2200	3380	0	0
2019/08/04 17:01:00	BASE	0.20	108	2.42	93	-3.5	80	-6.4	60	0	961.8	NA	0.0000	-SN	9000	2100	0	0	0
2019/08/04 17:02:00	BASE	0.86	74	2.31	52	-3.5	81	-6.4	59	0	961.8	NA	0.0000	-SN	9000	2030	0	0	0
2019/08/04 17:03:00	BASE	1.67	58	2.31	52	-3.5	81	-6.3	57	0	961.8	NA	0.0000	-SN	9000	2030	0	0	0
2019/08/04 17:04:00	BASE	1.57	52	2.31	52	-3.5	81	-6.3	56	0	961.8	NA	0.0000	-SN	9000	2000	21490	0	0
2019/08/04 17:05:00	BASE	1.24	71	2.31	52	-3.6	82	-6.3	55	0	961.7	NA	0.0000	HZ	9000	2000	0	0	0
2019/08/04 17:06:00	BASE	1.20	87	2.31	52	-3.6	82	-6.3	54	0	961.8	NA	0.0000	HZ	9000	2000	0	0	0
2019/08/04 17:07:00	BASE	1.08	89	2.31	52	-3.6	82	-6.2	53	0	961.8	NA	0.0000	HZ	9000	1940	0	0	0
2019/08/04 17:08:00	BASE	0.61	70	2.31	52	-3.6	82	-6.2	52	0	961.8	NA	0.0000	HZ	9000	1900	0	0	0
2019/08/04 17:09:00	BASE	0.60	62	2.21	28	-3.6	83	-6.2	51	0	961.8	NA	0.0000	HZ	9000	2000	0	0	0
2019/08/04 17:10:00	BASE	1.13	78	2.21	28	-3.6	83	-6.1	50	0	961.8	NA	0.0000	HZ	9000	1970	0	0	0
2019/08/04 17:11:00	BASE	1.32	90	2.21	28	-3.6	83	-6.1	49	0	961.8	NA	0.0000	HZ	9000	2100	0	0	0
2019/08/04 17:12:00	BASE	0.82	92	2.21	28	-3.6	83	-6.0	48	0	961.8	NA	0.0000	HZ	9000	2130	0	0	0
2019/08/04 17:13:00	BASE	0.36	89	1.85	41	-3.6	84	-6.0	48	0	961.8	NA	0.0000	HZ	9000	2130	0	0	0
2019/08/04 17:14:00	BASE	0.83	100	1.59	64	-3.7	84	-6.0	47	0	961.8	NA	0.0000	HZ	9000	2170	0	0	0
2019/08/04 17:15:00	BASE	0.85	114	1.59	64	-3.7	84	-6.0	46	0	961.8	NA	0.0000	HZ	9000	2200	0	0	0
2019/08/04 17:16:00	BASE	0.21	126	1.59	64	-3.7	84	-6.0	46	0	961.8	NA	0.0000	HZ	9000	2200	0	0	0
2019/08/04 17:17:00	BASE	0.00	127	1.59	64	-3.6	84	-6.0	45	0	961.8	NA	0.0000	HZ	8000	2230	0	0	0
2019/08/04 17:18:00	BASE	0.00	117	1.59	64	-3.6	84	-5.9	45	0	961.8	NA	0.0000	HZ	8000	2260	0	0	0
2019/08/04 17:19:00	BASE	0.00	109	1.49	92	-3.6	84	-5.9	44	0	961.8	NA	0.0000	HZ	8000	2260	0	0	0
2019/08/04 17:20:00	BASE	0.00	107	1.49	92	-3.6	84	-5.9	44	0	961.8	NA	0.0000	-SN	8000	2260	0	0	0
2019/08/04 17:21:00	BASE	0.00	103	1.44	104	-3.6	85	-5.8	43	0	961.8	NA	0.0000	-SN BR	8000	2260	0	0	0
2019/08/04 17:22:00	BASE	0.00	100	1.44	104	-3.6	85	-5.8	42	0	961.9	NA	0.0000	-SN BR	8000	2300	0	0	0
2019/08/04 17:23:00	BASE	0.00	103	1.44	104	-3.6	85	-5.8	42	0	961.9	NA	0.0000	-SN BR	8000	430	0	0	0
2019/08/04 17:24:00	BASE	0.00	107	1.29	116	-3.6	85	-5.8	41	0	962.0	NA	0.0000	-SN BR	8000	2400	0	0	0
2019/08/04 17:25:00	BASE	0.00	109	M	M	-3.6	85	-5.8	41	0	962.0	NA	0.0000	-SN BR	7000	430	0	0	0
2019/08/04 17:26:00	BASE	0.00	108	M	M	-3.7	85	-5.8	41	0	962.0	NA	0.0000	-SN BR	7000	2400	0	0	0
2019/08/04 17:27:00	BASE	0.00	108	M	M	-3.7	85	-5.8	41	0	962.0	NA	0.0000	-SN BR	8000	390	0	0	0
2019/08/04 17:28:00	BASE	0.00	108	M	M	-3.7	85	-5.8	41	0	962.0	NA	0.0000	-SN BR	7000	390	0	0	0
2019/08/04 17:29:00	BASE	0.00	108	M	M	-3.7	86	-5.8	41	0	962.0	NA	0.0000	-SN BR	6000	390	0	0	0
2019/08/04 17:30:00	BASE	0.00	108	M	M	-3.7	86	-5.7	41	0	962.0	NA	0.0000	-SN BR	6000	390	0	0	0
2019/08/04 17:31:00	BASE	0.00	108	M	M	-3.7	86	-5.7	41	0	962.1	NA	0.0000	-SN BR	7000	2460	0	0	0
2019/08/04 17:32:00	BASE	0.00	108	M	M	-3.7	86	-5.7	41	0	962.0	NA	0.0000	-SN BR	7000	390	0	0	0
2019/08/04 17:33:00	BASE	0.00	108	M	M	-3.8	86	-5.7	40	0	962.0	NA	0.0000	-SN BR	6000	390	0	0	0
2019/08/04 17:34:00	BASE	0.00	108	M	M	-3.8	87	-5.7	40	0	962.0	NA	0.0000	-SN BR	6000	2490	0	0	0
2019/08/04 17:35:00	BASE	0.00	108	M	M	-3.8	87	-5.6	40	0	962.0	NA	0.0000	-SN BR	6000	0	0	0	5450
2019/08/04 17:36:00	BASE	0.00	108	M	M	-3.8	87	-5.6	39	0	962.0	NA	0.0000	-SN BR	7000	0	0	0	5540
2019/08/04 17:37:00	BASE	0.00	108	M	M	-3.8	88	-5.6	38	0	962.0	NA	0.0000	-SN BR	7000	0	0	0	5580
2019/08/04 17:38:00	BASE	0.00	108	M	M	-3.8	88	-5.5	38	0	962.0	NA	0.0000	-SN BR	8000	0	0	0	5740
2019/08/04 17:39:00	BASE	0.00	95	M	M	-3.9	88	-5.5	37	0	962.1	NA	0.0000	-SN BR	8000	0	0	0	5640
2019/08/04 17:40:00	BASE	0.00	73	M	M	-3.9	89	-5.5	37	0	962.1	NA	0.0000	-SN BR	8000	0	0	0	5610
2019/08/04 17:41:00	BASE	0.00	64	M	M	-3.9	89	-5.4	36	0	962.1	NA	0.0000	-SN BR	7000	0	0	0	5480
2019/08/04 17:42:00	BASE	0.00	63	M	M	-3.9	89	-5.4	35	0	962.1	NA	0.0000	-SN BR	8000	0	0	0	3540
2019/08/04 17:43:00	BASE	0.00	61	M	M	-3.9	90	-5.4	35	0	962.1	NA	0.0000	-SN BR	7000	300	0	0	0
2019/08/04 17:44:00	BASE	0.00	62	M	M	-3.9	90	-5.3	35	0	962.1	NA	0.0000	-SN BR	6000	300	0	0	0
2019/08/04 17:45:00	BASE	0.27	61	1.13	52	-3.9	90	-5.3	34	0	962.1	NA	0.0000	-SN BR	6000	0	0	0	3540
2019/08/04 17:46:00	BASE	0.63	55	1.18	52	-4.0	91	-5.3	34	0	962.1	NA	0.0000	-SN BR	5000	0	0	0	3450
2019/08/04 17:47:00	BASE	0.78	44	1.44	27	-4.0	91	-5.2	34	0	962.1	NA	0.0000	-SN BR	5000	300	0	0	0
2019/08/04 17:48:00	BASE	1.19	27	1.65	11	-4.0	91	-5.2	34	0	962.2	NA	0.0000	-SN BR	5000	260	1310	0	0
2019/08/04 17:49:00	BASE	1.71	5	2.31	326	-4.0	92	-5.1	34	0	962.2	NA	0.0000	-SN BR	4500	300	0	0	0
2019/08/04 17:50:00	BASE	2.96	337	5.09	322	-4.0	92	-5.1	34	0	962.1	NA	0.0000	-SN BR	5000	300	0	0	0
2019/08/04 17:51:00	BASE	4.86	327	6.12	326	-4.0	93	-5.0	34	0	962.1	NA	0.0000	-SN BR	5000	300	890	0	0
2019/08/04 17:52:00	BASE	5.79	326	6.17	323	-3.9	93	-4.8	34	0	962.1	NA	0.0000	-SN BR	7000	0	0	0	5050
2019/08/04 17:53:00	BASE	6.00	327	6.48	322	-3.9	94	-4.7	34	0	962.2	NA	0.0000	-SN BR	7000	230	0	0	0
2019/08/04 17:54:00	BASE	6.19	330	6.48	332	-3.8	95	-4.6	34	0	962.2	NA	0.0000	-SN BR	7000	0	0	0	4820
2019/08/04 17:55:00	BASE	6.28	333	6.48	332	-3.8	96	-4.4	34	0	962.2	NA	0.0000	-SN BR	7000	0	0	0	3580
2019/08/04 17:56:00	BASE	6.29	335	6.58	334	-3.8	96	-4.3	34	0	962.1	NA	0.0000	-SN BR	7000	0	0	0	4890
2019/08/04 17:57:00	BASE	6.13	338	6.58	334	-3.9	97	-4.3	33	0	962.1	NA	0.0000	-SN BR	6000	230	0	0	0
2019/08/04 17:58:00	BASE	6.08	338	6.58	334	-3.9	98	-4.2	33	0	962.2	NA	0.0000	-SN BR	6000	230	0	0	0
2019/08/04 17:59:00	BASE	5.97	335	6.58	334	-4.0	99	-4.1	33	0	962.2	NA	0.0000	-SN BR	6000	230	0	0	0
2019/08/04 18:00:00	BASE	5.73	334	6.58	334	-4.0	99	-4.1	32	0	962.1	NA	0.0000	-SN BR	7000	230	0	0	0
2019/08/04 18:01:00	BASE	5.78	333	6.58	334	-4.0	100	-4.0	32	0	962.1	NA	0.0000	-SN BR	8000	0	0	0	4200
2019/08/04 18:02:00	BASE	5.82	331	6.58	334	-4.0	100	-4.0	32	0	962.1	NA	0.0000	-SN BR	8000	300	0	0	0
2019/08/04 18:03:00	BASE	5.64	331	6.58	334	-4.0	100	-4.0	32	0	962.2	NA	0.0000	-SN BR	8000	300	0	0	0
2019/08/04 18:04:01	BASE	5.57	331	6.58	334	-4.0	100	-4.0	32	0	962.2	NA	0.0000	-SN BR	9000	300	0	0	0
2019/08/04 18:05:00	BASE	5.87	330	6.58	334	-4.0	100	-4.0	32	0	962.2	NA	0.0000	-SN BR	9000	330	0	0	0
2019/08/04 18:06:00	BASE	6.09	331	6.48	336	-4.0	100	-4.0	32	0	962.2	NA	0.0000	-SN BR	9000	330	0	0	0
2019/08/04 18:07:00	BASE	6.06	331	6.48	336	-4.1	100	-4.1	32	0	962.2	NA	0.0000	-SN BR	9000	300	0	0	0
2019/08/04 18:08:00	BASE	6.06	332	6.43	330	-4.1	100	-4.1	33	0	962.2	NA	0.0000	-SN BR	9000	260	0	0	0
2019/08/04 18:09:00	BASE	5.94	332	6.43	330	-4.1	100	-4.1	33	0	962.2	NA	0.0000	-SN BR	7000	0	0	0	3510
2019/08/04 18:10:00	BASE	5.75	334	6.43	330	-4.1	100	-4.1	33	0	962.2	NA	0.0000	-SN BR	5000	300	2230	0	0
2019/08/04 18:11:00	BASE	5.58	332	6.43	330	-4.1	100	-4.1	33	0	962.3	NA	0.0000	-SN BR	5000	300	2170	0	0
2019/08/04 18:12:00	BASE	5.37	329	6.43	330	-4.1	100	-4.1	33	0	962.3	NA	0.0000	-SN BR	5000	300	2130	0	0
2019/08/04 18:13:00	BASE	5.12	327	6.43	330	-4.1	100	-4.1	33	0	962.3	NA	0.0000	-SN BR	5000	260	0	0	0
2019/08/04 18:14:00	BASE	5.14	326	6.43	330	-4.1	100	-4.1	33	0	962.3	NA	0.0000	-SN BR	5000	300	0	0	0
2019/08/04 18:15:00	BASE	5.27	328	6.43	330	-4.1	100	-4.1	33	0	962.3	NA	0.0000	-SN BR	5000	360	0	0	0
2019/08/04 18:16:00	BASE	5.17	332	6.43	330	-4.1	100	-4.1	32	0	962.3	NA	0.0000	-SN BR	5000	360	2260	0	0
2019/08/04 18:17:00	BASE	5.27	333	6.43	330	-4.1	100	-4.1	32	0	962.3	NA	0.0000	-SN BR	5000	360	2170	0	0
2019/08/04 18:18:00	BASE	5.64	333	6.28	337	-4.1	100	-4.1	31	0	962.3	NA	0.0000	-SN BR	5000	360	0	0	0
2019/08/04 18:19:00	BASE	6.12	336	6.74	339	-4.1	100	-4.1	30	0	962.3	NA	0.0000	BR	5000	300	2170	0	0
2019/08/04 18:20:00	BASE	6.51	340	7.05	344	-4.1	100	-4.1	30	0	962.3	NA	0.0000	BR	5000	230	0	0	0
2019/08/04 18:21:00	BASE	6.52	341	7.05	344	-4.1	100	-4.1	29	0	962.3	NA	0.0000	BR	5000	230	0	0	0
2019/08/04 18:22:00	BASE	6.29	338	7.05	344	-4.1	100	-4.1	28	0	962.3	NA	0.0000	-SN BR	5000	0	0	0	2260
2019/08/04 18:23:00	BASE	5.92	339	7.05	344	-4.1	100	-4.1	27	0	962.3	NA	0.0000	-SN BR	5000	0	0	0	2130
2019/08/04 18:24:00	BASE	5.75	339	7.05	344	-4.1	100	-4.1	26	0	962.3	NA	0.0000	-SN BR	7000	0	0	0	1970
2019/08/04 18:25:00	BASE	5.88	337	7.05	344	-4.1	100	-4.1	25	0	962.3	NA	0.0000	-SN BR	8000	0	0	0	1740
2019/08/04 18:26:00	BASE	6.03	340	7.05	344	-4.1	100	-4.1	25	0	962.3	NA	0.0000	-SN BR	9000	0	0	0	1080
2019/08/04 18:27:00	BASE	6.44	344	7.10	346	-4.1	100	-4.1	24	0	962.3	NA	0.0000	-SN BR	9000	0	0	0	1120
2019/08/04 18:28:00	BASE	6.52	347	7.10	346	-4.1	100	-4.1	24	0	962.4	NA	0.0000	-SN BR	9999	0	0	0	1440
2019/08/04 18:29:00	BASE	6.40	349	7.15	352	-4.1	100	-4.1	24	0	962.4	NA	0.0000	-SN BR	9999	0	0	0	1710
2019/08/04 18:30:00	BASE	6.28	355	7.15	352	-4.2	100	-4.2	24	0	962.5	NA	0.0000	-SN BR	9999	260	0	0	0
2019/08/04 18:31:00	BASE	6.27	1	7.15	352	-4.2	100	-4.2	23	0	962.5	NA	0.0000	-SN BR	9999	0	0	0	1840
2019/08/04 18:32:00	BASE	6.40	360	7.15	352	-4.3	100	-4.3	23	0	962.5	NA	0.0000	-SN BR	9999	0	0	0	1800
2019/08/04 18:33:00	BASE	6.17	356	7.15	352	-4.3	100	-4.3	22	0	962.5	NA	0.0000	-SN BR	9999	0	0	0	1840
2019/08/04 18:34:00	BASE	6.06	355	7.15	352	-4.3	100	-4.4	21	0	962.5	NA	0.0000	-SN BR	9000	0	0	0	1870
2019/08/04 18:35:00	BASE	6.10	351	7.15	352	-4.3	100	-4.3	21	0	962.5	NA	0.0000	-SN BR	8000	0	0	0	1670
2019/08/04 18:36:00	BASE	6.23	348	7.15	352	-4.3	100	-4.3	20	0	962.5	NA	0.0000	-SN BR	9000	0	0	0	2660
2019/08/04 18:37:00	BASE	6.08	349	7.15	352	-4.3	100	-4.3	19	0	962.5	NA	0.0000	-SN BR	9000	0	0	0	2690
2019/08/04 18:38:00	BASE	6.10	351	7.15	352	-4.3	100	-4.3	19	0	962.5	NA	0.0000	-SN BR	8000	0	0	0	2530
2019/08/04 18:39:00	BASE	6.55	347	7.10	2	-4.3	100	-4.3	19	0	962.5	NA	0.0000	-SN BR	9999	0	0	0	2230
2019/08/04 18:40:00	BASE	6.75	344	7.10	2	-4.3	100	-4.3	19	0	962.4	NA	0.0000	-SN BR	9999	0	0	0	2070
2019/08/04 18:41:00	BASE	6.78	345	7.10	2	-4.3	100	-4.3	18	0	962.5	NA	0.0000	-SN BR	9999	0	0	0	2490
2019/08/04 18:42:00	BASE	6.68	344	7.10	2	-4.3	100	-4.3	18	0	962.5	NA	0.0000	-SN BR	9999	0	0	0	2070
2019/08/04 18:43:00	BASE	6.35	344	7.05	344	-4.3	100	-4.3	18	0	962.6	NA	0.0000	-SN BR	9999	0	0	0	2070
2019/08/04 18:44:00	BASE	6.15	345	7.05	344	-4.3	100	-4.3	18	0	962.6	NA	0.0000	-SN	9999	0	0	0	2430
2019/08/04 18:45:00	BASE	5.97	343	7.05	344	-4.3	100	-4.3	18	0	962.6	NA	0.0000	-SN	9999	260	1640	0	0
2019/08/04 18:46:00	BASE	5.66	341	7.05	344	-4.3	100	-4.3	18	0	962.6	NA	0.0000	-SN	9999	260	0	0	0
2019/08/04 18:47:00	BASE	5.58	341	7.05	344	-4.3	100	-4.3	18	0	962.6	NA	0.0000	-SN	9999	300	0	0	0
2019/08/04 18:48:00	BASE	5.51	343	7.05	344	-4.3	100	-4.3	17	0	962.6	NA	0.0000	-SN	9999	260	0	0	0
2019/08/04 18:49:00	BASE	5.18	347	7.05	344	-4.3	100	-4.3	17	0	962.6	NA	0.0000	-SN	9999	300	0	0	0
2019/08/04 18:50:00	BASE	4.45	351	6.94	342	-4.3	100	-4.3	17	0	962.6	NA	0.0000		9999	260	1410	0	0
2019/08/04 18:51:00	BASE	4.01	358	6.94	342	-4.3	100	-4.3	17	0	962.6	NA	0.0000		9999	260	0	0	0
2019/08/04 18:52:00	BASE	3.77	355	6.48	344	-4.3	100	-4.4	17	0	962.6	NA	0.0000		9999	260	1410	0	0
2019/08/04 18:53:00	BASE	3.95	348	6.48	344	-4.3	100	-4.3	17	0	962.6	NA	0.0000		9999	300	0	0	0
2019/08/04 18:54:00	BASE	4.94	346	6.02	344	-4.3	100	-4.3	16	0	962.6	NA	0.0000		9999	300	0	0	0
2019/08/04 18:55:00	BASE	5.40	347	6.02	352	-4.3	100	-4.3	15	0	962.6	NA	0.0000		9999	300	0	0	0
2019/08/04 18:56:00	BASE	5.31	347	6.43	339	-4.3	100	-4.3	15	0	962.7	NA	0.0000		9999	300	0	0	0
2019/08/04 18:57:00	BASE	5.56	341	6.58	335	-4.3	100	-4.3	14	0	962.7	NA	0.0000		9999	330	0	0	0
2019/08/04 18:58:00	BASE	5.94	338	6.58	331	-4.3	100	-4.3	14	0	962.7	NA	0.0000		9999	300	0	0	0
2019/08/04 18:59:00	BASE	6.48	337	7.46	330	-4.3	100	-4.3	14	0	962.7	NA	0.0000		9999	300	0	0	0
2019/08/04 19:00:00	BASE	7.74	339	10.65	341	-4.2	100	-4.2	13	0	962.7	NA	0.0000		9999	260	0	0	0
2019/08/04 19:01:00	BASE	7.63	340	10.65	341	-4.2	100	-4.2	13	0	962.7	NA	0.0000		9999	260	0	0	0
2019/08/04 19:02:00	BASE	6.64	341	10.65	341	-4.2	100	-4.2	12	0	962.8	NA	0.0000		9999	260	0	0	0
2019/08/04 19:03:00	BASE	6.69	337	10.65	341	-4.1	100	-4.1	12	0	962.8	NA	0.0000		9999	260	0	0	0
2019/08/04 19:04:00	BASE	6.63	336	10.65	341	-4.0	100	-4.0	11	0	962.8	NA	0.0000		9999	260	0	0	0
2019/08/04 19:05:00	BASE	6.68	339	10.65	341	-4.0	100	-4.0	10	0	962.8	NA	0.0000		9999	260	0	0	0
2019/08/04 19:06:00	BASE	6.89	341	10.65	341	-4.0	100	-4.0	10	0	962.8	NA	0.0000		9999	230	1250	0	0
2019/08/04 19:07:00	BASE	7.36	331	10.65	341	-4.0	100	-4.0	10	0	962.8	NA	0.0000		9999	230	0	0	0
2019/08/04 19:08:00	BASE	7.73	319	10.65	341	-4.0	100	-4.0	10	0	962.9	NA	0.0000		9999	0	0	0	2330
2019/08/04 19:09:00	BASE	6.56	323	10.65	341	-4.0	100	-4.0	9	0	962.9	NA	0.0000		9999	0	0	0	4760
2019/08/04 19:10:00	BASE	5.67	331	8.85	314	-4.0	100	-4.0	9	0	962.9	NA	0.0000	-SN	9999	0	0	0	4860
2019/08/04 19:11:00	BASE	6.18	333	8.85	314	-4.0	100	-4.0	9	0	962.9	NA	0.0000	-SN	9999	300	0	0	0
2019/08/04 19:12:00	BASE	6.43	329	8.85	314	-3.9	100	-3.9	8	0	962.9	NA	0.0000		9999	0	0	0	4950
2019/08/04 19:13:00	BASE	6.63	327	8.85	314	-3.9	100	-3.9	8	0	963.0	NA	0.0000		9999	330	0	0	0
2019/08/04 19:14:00	BASE	6.97	327	8.85	314	-3.9	100	-3.9	7	0	963.0	NA	0.0000		9999	330	0	0	0
2019/08/04 19:15:00	BASE	6.63	328	8.85	314	-3.9	100	-3.9	7	0	963.1	NA	0.0000		9999	330	0	0	0
2019/08/04 19:16:00	BASE	6.34	330	8.85	314	-3.8	100	-3.8	7	0	963.1	NA	0.0000		9999	330	0	0	0
2019/08/04 19:17:00	BASE	6.21	324	8.59	322	-3.8	100	-3.8	6	0	963.2	NA	0.0000		9999	330	0	0	0
2019/08/04 19:18:00	BASE	5.58	318	8.18	324	-3.8	100	-3.8	7	0	963.2	NA	0.0000		9999	330	0	0	0
2019/08/04 19:19:00	BASE	5.25	318	8.18	324	-3.8	100	-3.8	6	0	963.2	NA	0.0000		9999	330	1480	0	0
2019/08/04 19:20:00	BASE	5.02	309	8.18	324	-3.8	100	-3.8	7	0	963.2	NA	0.0000		9999	360	1640	0	0
2019/08/04 19:21:00	BASE	5.17	298	8.18	324	-3.8	100	-3.8	6	0	963.2	NA	0.0000		9999	460	1770	0	0
2019/08/04 19:22:00	BASE	6.36	286	8.75	286	-3.8	100	-3.8	6	0	963.2	NA	0.0000		9999	430	0	0	0
2019/08/04 19:23:00	BASE	6.68	256	8.75	286	-3.8	100	-3.8	6	0	963.3	NA	0.0000		9999	360	0	0	0
2019/08/04 19:24:00	BASE	6.06	244	8.75	286	-3.8	100	-3.8	6	0	963.3	NA	0.0000		9999	390	0	0	0
2019/08/04 19:25:00	BASE	6.50	246	8.75	286	-3.8	100	-3.8	6	0	963.3	NA	0.0000		9999	390	0	0	0
2019/08/04 19:26:00	BASE	7.02	245	8.75	286	-3.8	100	-3.8	6	0	963.3	NA	0.0000		9999	330	0	0	0
2019/08/04 19:27:00	BASE	7.35	248	8.80	251	-3.8	100	-3.8	5	0	963.3	NA	0.0000		9999	330	0	0	0
2019/08/04 19:28:00	BASE	7.71	248	8.80	251	-3.8	100	-3.8	5	0	963.4	NA	0.0000		9999	1410	0	0	0
2019/08/04 19:29:00	BASE	7.49	251	8.80	251	-3.8	100	-3.8	5	0	963.4	NA	0.0000		9999	0	0	0	3020
2019/08/04 19:30:00	BASE	6.88	264	8.80	251	-3.8	100	-3.8	5	0	963.4	NA	0.0000	-SN	9999	0	0	0	3020
2019/08/04 19:31:00	BASE	5.93	269	8.80	251	-3.8	100	-3.8	5	0	963.4	NA	0.0000	-SN	9999	0	0	0	2820
2019/08/04 19:32:00	BASE	6.00	267	8.80	251	-3.8	100	-3.8	4	0	963.4	NA	0.0000	-SN	9999	0	0	0	2720
2019/08/04 19:33:00	BASE	6.89	268	8.80	251	-3.7	100	-3.7	4	0	963.4	NA	0.0000	-SN	9999	0	0	0	2620
2019/08/04 19:34:00	BASE	6.70	268	8.80	251	-3.7	100	-3.7	4	0	963.4	NA	0.0000	-SN	9999	0	0	0	2620
2019/08/04 19:35:00	BASE	6.53	268	8.80	251	-3.7	100	-3.7	4	0	963.4	NA	0.0000	-SN	8000	0	0	0	2620
2019/08/04 19:36:00	BASE	7.05	262	8.80	251	-3.6	100	-3.6	4	0	963.5	NA	0.0000	-SN BR	5000	0	0	0	2590
2019/08/04 19:37:00	BASE	6.66	262	8.44	265	-3.6	100	-3.6	3	0	963.5	NA	0.0000	-SN BR	4400	0	0	0	2620
2019/08/04 19:38:00	BASE	5.47	270	8.44	265	-3.6	100	-3.6	3	0	963.5	NA	0.0000	-SN BR	3400	330	0	0	0
2019/08/04 19:39:00	BASE	5.20	269	8.44	265	-3.5	100	-3.6	3	0	963.5	NA	0.0000	-SN BR	4000	300	0	0	0
2019/08/04 19:40:00	BASE	5.12	271	8.44	265	-3.5	100	-3.5	2	0	963.5	NA	0.0000	-SN BR	3300	260	0	0	0
2019/08/04 19:41:00	BASE	5.38	279	8.44	265	-3.5	100	-3.5	2	0	963.5	NA	0.0000	-SN BR	2500	300	0	0	0
2019/08/04 19:42:00	BASE	6.34	281	8.44	265	-3.4	100	-3.4	2	0	963.6	NA	0.0000	-SN BR	2700	330	0	0	0
2019/08/04 19:43:00	BASE	6.94	286	8.33	261	-3.4	100	-3.4	2	0	963.6	NA	0.0000	-SN BR	2300	0	0	0	2260
2019/08/04 19:44:00	BASE	7.22	285	8.33	261	-3.4	100	-3.4	2	0	963.6	NA	0.0000	-SN BR	1700	0	0	0	2260
2019/08/04 19:45:00	BASE	6.69	282	8.13	276	-3.5	100	-3.5	1	0	963.6	NA	0.0000	-SN BR	1700	0	0	0	2300
2019/08/04 19:46:00	BASE	6.09	284	8.13	276	-3.5	100	-3.5	1	0	963.6	NA	0.0000	-SN BR	2000	0	0	0	2230
2019/08/04 19:47:00	BASE	5.91	290	8.13	276	-3.6	100	-3.6	1	0	963.6	NA	0.0000	-SN BR	1500	0	0	0	2460
2019/08/04 19:48:00	BASE	5.69	295	8.13	276	-3.7	100	-3.7	1	0	963.6	NA	0.0000	-SN BR	1900	0	0	0	2360
2019/08/04 19:49:00	BASE	5.28	300	8.13	276	-3.7	100	-3.7	1	0	963.6	NA	0.0000	-SN BR	2300	0	0	0	2100
2019/08/04 19:50:00	BASE	4.78	307	8.13	276	-3.8	100	-3.8	1	0	963.6	NA	0.0000	-SN BR	1800	0	0	0	1210
2019/08/04 19:51:00	BASE	4.25	320	8.13	276	-3.8	100	-3.8	1	0	963.6	NA	0.0000	-SN BR	1900	0	0	0	1210
2019/08/04 19:52:00	BASE	4.17	322	7.97	287	-3.8	100	-3.8	1	0	963.6	NA	0.0000	-SN BR	2500	0	0	0	1020
2019/08/04 19:53:00	BASE	5.61	306	8.69	261	-3.8	100	-3.8	1	0	963.6	NA	0.0000	-SN BR	2100	0	0	0	1050
2019/08/04 19:54:00	BASE	6.68	278	8.69	261	-3.8	100	-3.8	1	0	963.6	NA	0.0000	-SN BR	2600	0	0	0	1050
2019/08/04 19:55:00	BASE	6.94	253	8.69	261	-3.7	100	-3.7	1	0	963.6	NA	0.0000	-SN BR	2400	0	0	0	1120
2019/08/04 19:56:00	BASE	7.45	247	9.52	245	-3.6	100	-3.6	1	0	963.6	NA	0.0000	-SN BR	2700	0	0	0	980
2019/08/04 19:57:00	BASE	8.14	247	9.93	237	-3.4	100	-3.4	1	0	963.6	NA	0.0000	-SN BR	3500	0	0	0	1480
2019/08/04 19:58:00	BASE	9.76	248	12.91	253	-3.3	100	-3.3	1	0	963.6	NA	0.0000	-SN BR	5000	0	0	0	2400
2019/08/04 19:59:00	BASE	10.98	253	13.22	260	-3.2	100	-3.2	1	0	963.6	NA	0.0000	-SN BR	9999	230	0	0	0
2019/08/04 20:00:00	BASE	11.51	259	13.94	259	-3.2	100	-3.2	1	0	963.6	NA	0.0000	-SN BR	9999	300	0	0	0
2019/08/04 20:01:00	BASE	12.50	261	13.94	259	-3.1	100	-3.1	1	0	963.6	NA	0.0000	-SN BR	9999	260	0	0	0
2019/08/04 20:02:00	BASE	12.35	258	13.94	259	-3.1	100	-3.1	1	0	963.6	NA	0.0000	-SN BR	9999	330	0	0	0
2019/08/04 20:03:00	BASE	12.19	260	13.94	259	-3.1	100	-3.1	1	0	963.6	NA	0.0000	-SN BR	9999	0	0	0	3080
2019/08/04 20:04:00	BASE	11.92	261	13.94	259	-3.1	100	-3.1	1	0	963.6	NA	0.0000	-SN BR	9999	330	0	0	0
2019/08/04 20:05:00	BASE	11.49	260	13.94	259	-3.1	100	-3.1	1	0	963.6	NA	0.0000	-SN BR	9999	330	0	0	0
2019/08/04 20:06:00	BASE	11.51	262	13.94	259	-3.1	100	-3.1	1	0	963.6	NA	0.0000	-SN BR	9999	0	0	0	3250
2019/08/04 20:07:00	BASE	11.79	262	14.04	249	-3.1	100	-3.1	1	0	963.6	NA	0.0000	-SN	9999	360	0	0	0
2019/08/04 20:08:00	BASE	12.95	257	14.61	253	-3.1	100	-3.1	1	0	963.6	NA	0.0000		9999	430	0	0	0
2019/08/04 20:09:00	BASE	12.72	254	14.61	253	-3.2	100	-3.2	0	0	963.7	NA	0.0000		9999	390	0	0	0
2019/08/04 20:10:00	BASE	12.05	254	14.61	253	-3.2	100	-3.2	0	0	963.7	NA	0.0000		9999	0	0	0	3450
2019/08/04 20:11:00	BASE	11.28	255	14.61	253	-3.2	100	-3.2	0	0	963.7	NA	0.0000		9999	0	0	0	3380
2019/08/04 20:12:00	BASE	10.82	256	14.61	253	-3.2	100	-3.2	0	0	963.7	NA	0.0000		9999	360	0	0	0
2019/08/04 20:13:00	BASE	11.56	257	14.61	253	-3.2	100	-3.2	0	0	963.7	NA	0.0000		9999	360	0	0	0
2019/08/04 20:14:00	BASE	12.21	254	14.61	253	-3.2	100	-3.2	0	0	963.7	NA	0.0000		9999	360	0	0	0
2019/08/04 20:15:00	BASE	12.37	252	14.61	253	-3.2	100	-3.2	0	0	963.7	NA	0.0000		9999	300	0	0	0
2019/08/04 20:16:00	BASE	11.98	253	14.61	253	-3.2	100	-3.2	0	0	963.7	NA	0.0000		9999	260	0	0	0
2019/08/04 20:17:00	BASE	12.36	253	14.61	253	-3.2	100	-3.2	0	0	963.8	NA	0.0000	-SN	9999	0	0	0	1250
2019/08/04 20:18:00	BASE	12.51	257	14.82	256	-3.2	100	-3.2	0	0	963.8	NA	0.2540	-SN	9000	0	0	0	1080
2019/08/04 20:19:00	BASE	12.76	260	15.18	262	-3.2	100	-3.2	0	0	963.8	NA	0.0000	-SN	9000	0	0	0	1210
2019/08/04 20:20:00	BASE	14.35	257	16.77	262	-3.2	100	-3.2	0	0	963.8	NA	0.0000	-SN	9000	260	0	0	0
2019/08/04 20:21:00	BASE	15.06	257	17.65	260	-3.2	100	-3.2	0	0	963.8	NA	0.0000	-SN	9000	0	0	0	1540
2019/08/04 20:22:00	BASE	14.49	259	17.65	260	-3.2	100	-3.2	0	0	963.8	NA	0.0000	-SN	9000	260	0	0	0
2019/08/04 20:23:00	BASE	13.95	261	17.65	260	-3.3	100	-3.3	0	0	963.8	NA	0.0000	-SN BR	9000	360	0	0	0
2019/08/04 20:24:00	BASE	13.81	261	17.65	260	-3.3	100	-3.3	0	0	963.9	NA	0.0000	-SN BR	8000	260	0	0	0
2019/08/04 20:25:00	BASE	14.47	260	17.65	260	-3.3	100	-3.3	0	0	963.9	NA	0.0000	-SN BR	8000	0	0	0	1510
2019/08/04 20:26:00	BASE	15.27	262	17.65	260	-3.3	100	-3.3	0	0	963.9	NA	0.0000	-SN BR	8000	0	0	0	1120
2019/08/04 20:27:00	BASE	15.06	261	17.65	260	-3.3	100	-3.3	0	0	963.9	NA	0.0000	-SN BR	9000	0	0	0	1900
2019/08/04 20:28:00	BASE	14.48	260	17.65	260	-3.3	100	-3.3	0	0	963.9	NA	0.0000	-SN BR	9000	300	0	0	0
2019/08/04 20:29:00	BASE	14.55	261	17.65	260	-3.3	100	-3.3	0	0	963.9	NA	0.0000	-SN BR	9000	300	0	0	0
2019/08/04 20:30:00	BASE	12.90	263	17.65	260	-3.3	100	-3.3	0	0	964.0	NA	0.0000	-SN BR	9000	260	0	0	0
2019/08/04 20:31:00	BASE	12.35	264	17.34	259	-3.3	100	-3.3	0	0	964.0	NA	0.0000	-SN BR	9000	260	0	0	0
2019/08/04 20:32:00	BASE	13.30	262	17.34	259	-3.3	100	-3.3	0	0	964.0	NA	0.0000	-SN BR	9000	330	0	0	0
2019/08/04 20:33:00	BASE	13.48	264	17.34	259	-3.3	100	-3.3	0	0	964.0	NA	0.0000	-SN BR	8000	360	0	0	0
2019/08/04 20:34:00	BASE	14.42	265	17.34	259	-3.3	100	-3.3	0	0	964.0	NA	0.0000	-SN BR	8000	330	0	0	0
2019/08/04 20:35:00	BASE	13.81	263	17.34	259	-3.3	100	-3.3	0	0	963.9	NA	0.0000	BR	8000	360	0	0	0
2019/08/04 20:36:00	BASE	14.25	260	17.08	255	-3.4	100	-3.4	0	0	964.0	NA	0.0000	BR	8000	360	0	0	0
2019/08/04 20:37:00	BASE	14.84	262	17.08	255	-3.4	100	-3.4	0	0	964.0	NA	0.0000	BR	8000	360	0	0	0
2019/08/04 20:38:00	BASE	13.86	263	17.08	255	-3.4	100	-3.4	0	0	964.0	NA	0.0000	BR	8000	360	0	0	0
2019/08/04 20:39:00	BASE	13.21	262	17.08	255	-3.4	100	-3.4	0	0	964.0	NA	0.0000	BR	8000	390	0	0	0
2019/08/04 20:40:00	BASE	12.75	265	17.08	255	-3.4	100	-3.4	0	0	964.0	NA	0.0000	BR	8000	360	0	0	0
2019/08/04 20:41:00	BASE	12.88	265	17.08	255	-3.4	100	-3.4	0	0	964.0	NA	0.0000	BR	7000	390	0	0	0
2019/08/04 20:42:00	BASE	12.86	265	17.08	255	-3.4	100	-3.4	0	0	964.1	NA	0.0000	BR	7000	360	0	0	0
2019/08/04 20:43:00	BASE	12.46	264	17.08	255	-3.4	100	-3.4	0	0	964.1	NA	0.0000	BR	7000	360	0	0	0
2019/08/04 20:44:00	BASE	11.41	263	17.08	255	-3.4	100	-3.4	0	0	964.2	NA	0.0000	BR	7000	330	0	0	0
2019/08/04 20:45:00	BASE	12.33	268	17.08	255	-3.4	100	-3.4	0	0	964.1	NA	0.0000	-SN BR	7000	330	0	0	0
2019/08/04 20:46:00	BASE	13.47	268	16.31	265	-3.4	100	-3.4	0	0	964.2	NA	0.0000	-SN BR	6000	260	0	0	0
2019/08/04 20:47:00	BASE	12.25	267	16.31	265	-3.4	100	-3.4	0	0	964.2	NA	0.0000	-SN BR	6000	300	0	0	0
2019/08/04 20:48:00	BASE	11.60	268	16.31	265	-3.5	100	-3.5	0	0	964.2	NA	0.0000	-SN BR	7000	330	0	0	0
2019/08/04 20:49:00	BASE	12.11	267	16.31	265	-3.5	100	-3.5	0	0	964.2	NA	0.0000	-SN BR	9999	330	0	0	0
2019/08/04 20:50:00	BASE	12.80	266	16.31	265	-3.5	100	-3.5	0	0	964.2	NA	0.0000	-SN BR	9999	360	0	0	0
2019/08/04 20:51:00	BASE	12.18	267	16.31	265	-3.5	100	-3.5	0	0	964.3	NA	0.0000	-SN BR	9999	330	0	0	0
2019/08/04 20:52:00	BASE	11.66	269	16.31	265	-3.5	100	-3.5	0	0	964.3	NA	0.0000	-SN BR	9000	390	0	0	0
2019/08/04 20:53:00	BASE	11.44	268	16.31	265	-3.5	100	-3.5	0	0	964.3	NA	0.0000	-SN BR	9000	560	0	0	0
2019/08/04 20:54:00	BASE	10.92	266	16.31	265	-3.5	100	-3.5	0	0	964.3	NA	0.0000	-SN BR	9000	1080	0	0	0
2019/08/04 20:55:00	BASE	11.62	265	16.41	260	-3.5	100	-3.5	0	0	964.3	NA	0.0000	-SN BR	9000	1150	0	0	0
2019/08/04 20:56:00	BASE	12.21	268	16.41	260	-3.4	100	-3.4	0	0	964.4	NA	0.0000	-SN BR	9000	1080	0	0	0
2019/08/04 20:57:00	BASE	12.13	271	16.46	264	-3.4	100	-3.4	0	0	964.4	NA	0.0000	-SN BR	9999	1120	0	0	0
2019/08/04 20:58:00	BASE	11.52	274	16.46	264	-3.4	100	-3.4	0	0	964.4	NA	0.0000	-SN BR	9999	1050	0	0	0
2019/08/04 20:59:00	BASE	11.67	276	16.46	264	-3.4	100	-3.4	0	0	964.4	NA	0.0000	-SN	9999	1120	0	0	0
2019/08/04 21:00:00	BASE	12.55	274	16.46	264	-3.4	100	-3.4	0	0	964.4	NA	0.0000	-SN	9999	1150	0	0	0
2019/08/04 21:01:00	BASE	11.92	274	16.46	264	-3.4	100	-3.4	0	0	964.4	NA	0.0000		9999	1280	0	0	0
2019/08/04 21:02:00	BASE	11.17	271	16.46	264	-3.4	100	-3.4	0	0	964.5	NA	0.0000		9999	1210	0	0	0
2019/08/04 21:03:00	BASE	11.24	273	16.46	264	-3.4	100	-3.4	0	0	964.5	NA	0.0000		9999	1150	0	0	0
2019/08/04 21:04:00	BASE	11.95	275	16.46	264	-3.4	100	-3.4	0	0	964.5	NA	0.0000		9999	1120	0	0	0
2019/08/04 21:05:00	BASE	12.06	272	16.46	264	-3.4	100	-3.4	0	0	964.5	NA	0.0000		9999	1150	0	0	0
2019/08/04 21:06:00	BASE	11.42	269	16.46	264	-3.4	100	-3.4	0	0	964.5	NA	0.0000		9999	1210	0	0	0
2019/08/04 21:07:00	BASE	10.59	272	15.48	274	-3.3	100	-3.3	0	0	964.6	NA	0.0000		9999	1150	0	0	0
2019/08/04 21:08:00	BASE	10.19	276	15.48	274	-3.3	100	-3.3	0	0	964.6	NA	0.0000		9999	1180	0	0	0
2019/08/04 21:09:00	BASE	11.11	271	15.48	274	-3.3	100	-3.3	0	0	964.5	NA	0.0000		9999	1150	0	0	0
2019/08/04 21:10:00	BASE	11.91	268	14.92	273	-3.3	100	-3.3	0	0	964.5	NA	0.0000		9999	1150	0	0	0
2019/08/04 21:11:00	BASE	11.47	269	14.92	273	-3.3	100	-3.3	0	0	964.6	NA	0.0000		9999	1180	0	0	0
2019/08/04 21:12:00	BASE	10.95	273	14.92	273	-3.3	100	-3.3	0	0	964.6	NA	0.0000		9999	1150	0	0	0
2019/08/04 21:13:00	BASE	11.50	272	14.92	273	-3.3	100	-3.3	0	0	964.6	NA	0.0000		9999	1150	0	0	0
2019/08/04 21:14:00	BASE	12.37	268	15.69	269	-3.3	100	-3.3	0	0	964.6	NA	0.0000		9999	1180	0	0	0
2019/08/04 21:15:00	BASE	12.74	271	15.69	269	-3.3	100	-3.3	0	0	964.6	NA	0.0000		9999	1180	0	0	0
2019/08/04 21:16:00	BASE	12.98	272	15.69	269	-3.3	100	-3.3	0	0	964.6	NA	0.0000		9999	1180	0	0	0
2019/08/04 21:17:00	BASE	12.87	271	15.69	269	-3.3	100	-3.3	0	0	964.7	NA	0.0000		9999	1210	0	0	0
2019/08/04 21:18:00	BASE	11.64	267	15.69	269	-3.3	100	-3.3	0	0	964.7	NA	0.0000		9999	1250	0	0	0
2019/08/04 21:19:00	BASE	10.95	266	15.69	269	-3.3	100	-3.3	0	0	964.7	NA	0.0000		9999	1280	0	0	0
2019/08/04 21:20:00	BASE	10.94	275	15.69	269	-3.3	100	-3.3	0	0	964.7	NA	0.0000		9999	1280	0	0	0
2019/08/04 21:21:00	BASE	11.10	280	15.69	269	-3.3	100	-3.3	0	0	964.7	NA	0.0000		9999	1310	0	0	0
2019/08/04 21:22:00	BASE	12.03	279	15.69	269	-3.3	100	-3.3	0	0	964.8	NA	0.0000		9999	1380	0	0	0
2019/08/04 21:23:00	BASE	12.33	280	15.69	269	-3.3	100	-3.3	0	0	964.8	NA	0.0000		9999	1350	0	0	0
2019/08/04 21:24:00	BASE	12.01	278	15.07	272	-3.3	100	-3.3	0	0	964.8	NA	0.0000		9999	1250	0	0	0
2019/08/04 21:25:00	BASE	12.04	275	15.07	272	-3.3	100	-3.3	0	0	964.8	NA	0.0000		9999	1350	0	0	0
2019/08/04 21:26:00	BASE	12.18	276	14.61	276	-3.3	100	-3.3	0	0	964.8	NA	0.0000		9999	1350	0	0	0
2019/08/04 21:27:00	BASE	12.25	275	14.61	268	-3.3	100	-3.3	0	0	964.9	NA	0.0000		9999	1350	0	0	0
2019/08/04 21:28:00	BASE	11.26	269	14.61	268	-3.3	100	-3.3	0	0	964.9	NA	0.0000		9999	1350	0	0	0
2019/08/04 21:29:00	BASE	9.89	266	14.61	268	-3.3	100	-3.3	0	0	964.9	NA	0.0000		9999	1510	0	0	0
2019/08/04 21:30:00	BASE	9.72	270	14.61	268	-3.3	100	-3.3	0	0	965.0	NA	0.0000		9999	1480	0	0	0
2019/08/04 21:31:00	BASE	10.60	274	14.61	268	-3.2	100	-3.2	0	0	964.9	NA	0.0000		9999	1510	0	0	0
2019/08/04 21:32:00	BASE	11.69	274	14.61	268	-3.2	100	-3.2	0	0	965.0	NA	0.0000		9999	1540	0	0	0
2019/08/04 21:33:00	BASE	11.24	272	14.61	268	-3.2	100	-3.2	0	0	965.1	NA	0.0000		9999	1570	0	0	0
2019/08/04 21:34:00	BASE	10.52	269	14.61	268	-3.3	100	-3.3	0	0	965.1	NA	0.0000		9999	1510	0	0	0
2019/08/04 21:35:00	BASE	11.39	272	14.61	268	-3.3	100	-3.3	0	0	965.0	NA	0.0000		9999	1740	0	0	0
2019/08/04 21:36:00	BASE	12.13	276	14.61	268	-3.3	100	-3.3	0	0	965.0	NA	0.0000		9999	1900	0	0	0
2019/08/04 21:37:00	BASE	12.08	276	14.04	274	-3.3	100	-3.3	0	0	965.1	NA	0.0000		9999	2000	0	0	0
2019/08/04 21:38:00	BASE	11.90	275	14.04	270	-3.3	100	-3.3	0	0	965.1	NA	0.0000		9999	2100	0	0	0
2019/08/04 21:39:00	BASE	10.87	276	14.04	270	-3.3	100	-3.3	0	0	965.0	NA	0.0000		9999	2100	0	0	0
2019/08/04 21:40:00	BASE	10.30	275	14.04	270	-3.3	100	-3.3	0	0	965.1	NA	0.0000		9999	2130	0	0	0
2019/08/04 21:41:00	BASE	10.84	273	14.04	270	-3.3	100	-3.3	0	0	965.1	NA	0.0000		9999	2100	0	0	0
2019/08/04 21:42:00	BASE	11.61	278	14.04	270	-3.3	100	-3.3	0	0	965.1	NA	0.0000		9999	2000	0	0	0
2019/08/04 21:43:00	BASE	11.69	282	14.04	270	-3.3	100	-3.4	0	0	965.0	NA	0.0000		9999	1870	0	0	0
2019/08/04 21:44:00	BASE	10.62	281	14.04	270	-3.3	99	-3.4	0	0	965.1	NA	0.0000		9999	1970	0	0	0
2019/08/04 21:45:00	BASE	9.92	277	14.04	270	-3.2	99	-3.4	0	0	965.1	NA	0.0000		9999	1970	0	0	0
2019/08/04 21:46:00	BASE	9.89	274	14.04	270	-3.2	99	-3.4	0	0	965.1	NA	0.0000		9999	2000	3870	0	0
2019/08/04 21:47:00	BASE	9.68	270	14.04	270	-3.2	98	-3.5	0	0	965.1	NA	0.0000		9999	1870	0	0	0
2019/08/04 21:48:00	BASE	9.25	271	13.27	281	-3.2	98	-3.5	0	0	965.1	NA	0.0000		9999	1640	0	0	0
2019/08/04 21:49:00	BASE	8.80	272	13.27	281	-3.2	98	-3.6	0	0	965.2	NA	0.0000		9999	1970	0	0	0
2019/08/04 21:50:00	BASE	8.92	275	13.27	281	-3.2	97	-3.6	0	0	965.2	NA	0.0000		9999	1970	0	0	0
2019/08/04 21:51:00	BASE	9.33	277	13.27	281	-3.2	97	-3.6	0	0	965.2	NA	0.0000		9999	2170	0	0	0
2019/08/04 21:52:00	BASE	9.47	276	12.60	277	-3.2	97	-3.7	0	0	965.2	NA	0.0000		9999	2200	3580	0	0
2019/08/04 21:53:00	BASE	9.53	277	11.78	278	-3.2	97	-3.7	0	0	965.2	NA	0.0000		9999	2230	3580	0	0
2019/08/04 21:54:00	BASE	9.22	280	11.57	270	-3.2	96	-3.7	0	0	965.2	NA	0.0000		9999	3380	4200	0	0
2019/08/04 21:55:00	BASE	8.86	284	11.57	270	-3.2	96	-3.7	0	0	965.2	NA	0.0000		9999	2230	3120	0	0
2019/08/04 21:56:00	BASE	8.68	282	11.57	270	-3.2	96	-3.8	0	0	965.2	NA	0.0000		9999	2950	0	0	0
2019/08/04 21:57:00	BASE	8.62	280	11.57	270	-3.2	96	-3.8	0	0	965.2	NA	0.0000		9999	2200	2760	3640	0
2019/08/04 21:58:00	BASE	8.71	281	11.57	270	-3.2	96	-3.7	0	0	965.2	NA	0.0000		9999	2230	0	0	0
2019/08/04 21:59:00	BASE	8.36	280	11.42	284	-3.2	96	-3.7	0	0	965.2	NA	0.0000		9999	2260	0	0	0
2019/08/04 22:00:00	BASE	7.90	276	11.42	284	-3.2	96	-3.8	0	0	965.2	NA	0.0000		9999	2230	0	0	0
2019/08/04 22:01:00	BASE	7.69	275	11.42	284	-3.2	96	-3.8	0	0	965.2	NA	0.0000		9999	2460	0	0	0
2019/08/04 22:02:00	BASE	7.60	276	11.42	284	-3.2	96	-3.8	0	0	965.2	NA	0.0000		9999	2400	0	0	0
2019/08/04 22:03:00	BASE	7.40	278	11.42	284	-3.3	96	-3.8	0	0	965.2	NA	0.0000		9999	2360	0	0	0
2019/08/04 22:04:00	BASE	7.35	280	9.77	287	-3.3	96	-3.8	0	0	965.2	NA	0.0000		9999	7190	0	0	0
2019/08/04 22:05:00	BASE	7.20	284	9.77	287	-3.3	96	-3.8	0	0	965.2	NA	0.0000		9999	8040	0	0	0
2019/08/04 22:06:00	BASE	6.74	285	9.77	287	-3.3	96	-3.8	0	0	965.3	NA	0.0000		9999	2790	0	0	0
2019/08/04 22:07:00	BASE	6.64	285	9.77	287	-3.3	96	-3.8	0	0	965.3	NA	0.0000		9999	2760	0	0	0
2019/08/04 22:08:00	BASE	7.16	288	9.62	276	-3.3	96	-3.8	0	0	965.3	NA	0.0000		9999	2720	0	0	0
2019/08/04 22:09:00	BASE	7.13	286	9.62	276	-3.3	96	-3.8	0	0	965.3	NA	0.0000		9999	2690	0	0	0
2019/08/04 22:10:00	BASE	6.84	288	9.16	276	-3.2	96	-3.8	0	0	965.3	NA	0.0000		9999	2660	0	0	0
2019/08/04 22:11:00	BASE	7.41	292	8.39	277	-3.2	96	-3.8	0	0	965.3	NA	0.0000		9999	2620	0	0	0
2019/08/04 22:12:00	BASE	7.04	293	8.33	277	-3.2	96	-3.8	0	0	965.4	NA	0.0000		9999	2560	0	0	0
2019/08/04 22:13:00	BASE	6.67	297	8.28	285	-3.2	96	-3.8	0	0	965.4	NA	0.0000		9999	2530	0	0	0
2019/08/04 22:14:00	BASE	7.11	297	8.28	285	-3.2	96	-3.8	0	0	965.4	NA	0.0000		9999	2530	0	0	0
2019/08/04 22:15:00	BASE	7.03	295	8.28	285	-3.2	96	-3.8	0	0	965.4	NA	0.0000		9999	2590	0	0	0
2019/08/04 22:16:00	BASE	6.69	298	8.28	285	-3.2	96	-3.8	0	0	965.4	NA	0.0000		9999	2820	0	0	0
2019/08/04 22:17:00	BASE	6.31	304	8.28	285	-3.2	96	-3.8	0	0	965.4	NA	0.0000		9999	2660	0	0	0
2019/08/04 22:18:00	BASE	6.10	310	8.18	293	-3.2	96	-3.8	0	0	965.4	NA	0.0000		9999	2620	0	0	0
2019/08/04 22:19:00	BASE	6.36	307	8.18	293	-3.2	96	-3.8	0	0	965.4	NA	0.0000		9999	1510	2660	0	0
2019/08/04 22:20:00	BASE	6.89	302	8.18	293	-3.2	96	-3.8	0	0	965.4	NA	0.0000		9999	1540	2720	0	0
2019/08/04 22:21:00	BASE	7.10	300	7.77	302	-3.2	96	-3.8	0	0	965.4	NA	0.0000		9999	2690	0	0	0
2019/08/04 22:22:00	BASE	6.95	299	7.77	302	-3.2	96	-3.7	0	0	965.4	NA	0.0000		9999	2690	0	0	0
2019/08/04 22:23:00	BASE	6.65	297	7.77	302	-3.2	96	-3.7	0	0	965.4	NA	0.0000		9999	2720	0	0	0
2019/08/04 22:24:00	BASE	6.71	298	7.77	302	-3.2	97	-3.7	0	0	965.4	NA	0.0000		9999	8730	0	0	0
2019/08/04 22:25:00	BASE	6.80	304	8.18	304	-3.2	97	-3.7	0	0	965.5	NA	0.0000		9999	8790	0	0	0
2019/08/04 22:26:00	BASE	6.96	305	8.18	304	-3.2	97	-3.6	0	0	965.4	NA	0.0000		9999	8790	0	0	0
2019/08/04 22:27:00	BASE	7.42	300	8.18	304	-3.3	97	-3.7	0	0	965.4	NA	0.0000		9999	8730	0	0	0
2019/08/04 22:28:00	BASE	7.18	298	8.18	304	-3.3	97	-3.7	0	0	965.4	NA	0.0000		9999	8690	0	0	0
2019/08/04 22:29:00	BASE	7.19	301	8.39	299	-3.3	97	-3.7	0	0	965.4	NA	0.0000		9999	8660	0	0	0
2019/08/04 22:30:00	BASE	7.75	302	8.49	306	-3.3	96	-3.8	0	0	965.4	NA	0.0000		9999	8660	0	0	0
2019/08/04 22:31:00	BASE	8.20	304	9.05	305	-3.3	96	-3.8	0	0	965.4	NA	0.0000		9999	8730	0	0	0
2019/08/04 22:32:00	BASE	8.29	305	9.05	305	-3.3	96	-3.9	0	0	965.4	NA	0.0000		9999	8760	0	0	0
2019/08/04 22:33:00	BASE	7.82	304	9.05	305	-3.3	95	-3.9	0	0	965.4	NA	0.0000		9999	8730	0	0	0
2019/08/04 22:34:00	BASE	7.49	304	9.05	305	-3.3	95	-4.0	0	0	965.4	NA	0.0000		9999	8630	0	0	0
2019/08/04 22:35:00	BASE	7.61	303	9.05	305	-3.3	95	-4.0	0	0	965.4	NA	0.0000		9999	8690	0	0	0
2019/08/04 22:36:00	BASE	7.82	304	9.05	305	-3.3	94	-4.1	0	0	965.4	NA	0.0000		9999	8600	0	0	0
2019/08/04 22:37:00	BASE	7.97	305	9.05	305	-3.3	94	-4.1	0	0	965.5	NA	0.0000		9999	6040	0	0	0
2019/08/04 22:38:00	BASE	8.00	302	9.21	300	-3.3	93	-4.2	0	0	965.6	NA	0.0000		9999	7250	0	0	0
2019/08/04 22:39:00	BASE	7.92	301	9.21	300	-3.3	93	-4.2	0	0	965.6	NA	0.0000		9999	7250	0	0	0
2019/08/04 22:40:00	BASE	7.78	301	9.21	300	-3.3	93	-4.3	0	0	965.6	NA	0.0000		9999	1710	6000	0	0
2019/08/04 22:41:00	BASE	7.15	300	9.21	300	-3.3	93	-4.2	0	0	965.6	NA	0.0000		9999	1770	5910	0	0
2019/08/04 22:42:00	BASE	6.97	305	9.21	300	-3.3	93	-4.2	0	0	965.6	NA	0.0000		9999	5910	0	0	0
2019/08/04 22:43:00	BASE	7.68	309	9.21	300	-3.3	93	-4.2	0	0	965.6	NA	0.0000		9999	7350	0	0	0
2019/08/04 22:44:00	BASE	8.06	310	9.21	300	-3.2	93	-4.2	0	0	965.6	NA	0.0000		9999	1740	0	0	0
2019/08/04 22:45:00	BASE	8.04	310	9.21	300	-3.2	93	-4.2	0	0	965.6	NA	0.0000		9999	1670	0	0	0
2019/08/04 22:46:00	BASE	7.57	311	9.21	300	-3.2	93	-4.2	0	0	965.6	NA	0.0000		9999	1670	0	0	0
2019/08/04 22:47:00	BASE	7.89	313	9.21	300	-3.2	93	-4.2	0	0	965.6	NA	0.0000		9999	5540	0	0	0
2019/08/04 22:48:01	BASE	8.29	311	9.00	311	-3.3	93	-4.2	0	0	965.6	NA	0.0000		9999	5480	0	0	0
2019/08/04 22:49:00	BASE	8.25	311	9.00	311	-3.3	93	-4.2	0	0	965.6	NA	0.0000		9999	5410	0	0	0
2019/08/04 22:50:00	BASE	8.11	310	9.00	311	-3.3	93	-4.2	0	0	965.6	NA	0.0000		9999	6200	0	0	0
2019/08/04 22:51:00	BASE	7.58	309	9.00	311	-3.3	93	-4.2	0	0	965.6	NA	0.0000		9999	6300	0	0	0
2019/08/04 22:52:00	BASE	7.82	311	9.00	311	-3.3	93	-4.2	0	0	965.6	NA	0.0000		9999	1610	0	0	0
2019/08/04 22:53:00	BASE	8.23	311	9.00	308	-3.3	93	-4.2	0	0	965.6	NA	0.0000		9999	1610	7190	0	0
2019/08/04 22:54:00	BASE	8.12	310	9.00	308	-3.3	93	-4.2	0	0	965.6	NA	0.0000		9999	1640	7190	0	0
2019/08/04 22:55:00	BASE	7.89	306	9.00	308	-3.2	93	-4.2	0	0	965.7	NA	0.0000		9999	7120	0	0	0
2019/08/04 22:56:00	BASE	8.10	304	9.00	308	-3.2	93	-4.2	0	0	965.7	NA	0.0000		9999	1610	7150	0	0
2019/08/04 22:57:00	BASE	7.83	305	9.00	308	-3.2	93	-4.2	0	0	965.8	NA	0.0000		9999	6990	0	0	0
2019/08/04 22:58:00	BASE	7.27	304	9.00	308	-3.2	93	-4.2	0	0	965.8	NA	0.0000		9999	7090	0	0	0
2019/08/04 22:59:00	BASE	7.19	305	9.00	308	-3.2	93	-4.2	0	0	965.8	NA	0.0000		9999	7090	0	0	0
2019/08/04 23:00:00	BASE	6.92	306	9.00	308	-3.2	93	-4.2	0	0	965.8	NA	0.0000		9999	1710	7120	0	0
2019/08/04 23:01:00	BASE	6.73	306	9.00	308	-3.2	93	-4.2	0	0	965.8	NA	0.0000		9999	7090	7810	0	0
2019/08/04 23:02:00	BASE	6.76	308	9.00	308	-3.3	93	-4.2	0	0	965.9	NA	0.0000		9999	1710	6300	7190	0
2019/08/04 23:03:00	BASE	7.24	309	8.95	303	-3.3	93	-4.2	0	0	965.9	NA	0.0000		9999	1640	0	0	0
2019/08/04 23:04:00	BASE	8.09	309	8.95	303	-3.3	93	-4.2	0	0	965.9	NA	0.0000		9999	1670	0	0	0
2019/08/04 23:05:00	BASE	8.74	309	9.52	309	-3.2	93	-4.2	0	0	965.9	NA	0.0000		9999	1670	0	0	0
2019/08/04 23:06:00	BASE	8.64	307	9.52	309	-3.2	94	-4.1	0	0	965.9	NA	0.0000		9999	5380	6960	0	0
2019/08/04 23:07:00	BASE	7.79	306	9.52	309	-3.2	94	-4.1	0	0	965.9	NA	0.0000		9999	1610	0	0	0
2019/08/04 23:08:00	BASE	7.59	305	9.52	309	-3.2	94	-4.0	0	0	965.9	NA	0.0000		9999	1640	5180	6890	0
2019/08/04 23:09:00	BASE	7.81	306	9.52	309	-3.2	94	-4.0	0	0	965.9	NA	0.0000		9999	1640	5150	0	0
2019/08/04 23:10:00	BASE	7.62	307	9.52	309	-3.2	94	-4.0	0	0	965.9	NA	0.0000		9999	1710	0	0	0
2019/08/04 23:11:00	BASE	7.94	307	9.52	309	-3.2	94	-4.0	0	0	965.9	NA	0.0000		9999	1710	4990	0	0
2019/08/04 23:12:00	BASE	7.99	305	9.52	309	-3.2	94	-4.0	0	0	965.9	NA	0.0000		9999	1640	0	0	0
2019/08/04 23:13:00	BASE	7.74	306	9.52	309	-3.2	94	-4.0	0	0	965.9	NA	0.0000		9999	1540	4890	0	0
2019/08/04 23:14:00	BASE	7.74	311	9.52	309	-3.2	94	-4.0	0	0	965.9	NA	0.0000		9999	1540	4790	0	0
2019/08/04 23:15:00	BASE	7.51	311	8.75	310	-3.2	94	-4.0	0	0	965.9	NA	0.0000		9999	1540	4790	0	0
2019/08/04 23:16:00	BASE	7.29	307	8.75	310	-3.2	94	-4.0	0	0	965.9	NA	0.0000		9999	1540	0	0	0
2019/08/04 23:17:00	BASE	6.98	306	8.75	310	-3.2	94	-4.0	0	0	965.9	NA	0.0000		9999	1510	0	0	0
2019/08/04 23:18:00	BASE	6.96	310	8.75	310	-3.2	94	-4.0	0	0	965.9	NA	0.0000		9999	1570	4720	0	0
2019/08/04 23:19:00	BASE	7.59	316	8.75	310	-3.2	95	-3.9	0	0	965.9	NA	0.0000		9999	1640	0	0	0
2019/08/04 23:20:00	BASE	7.81	318	8.75	310	-3.2	95	-3.9	0	0	965.9	NA	0.0000		9999	1840	0	0	0
2019/08/04 23:21:00	BASE	7.59	316	8.75	317	-3.2	95	-3.9	0	0	966.0	NA	0.0000		9999	1670	0	0	0
2019/08/04 23:22:00	BASE	7.34	315	8.75	317	-3.2	95	-3.8	0	0	966.0	NA	0.0000		9999	1480	0	0	0
2019/08/04 23:23:00	BASE	6.91	315	8.75	317	-3.2	95	-3.8	0	0	966.0	NA	0.0000		9999	1570	0	0	0
2019/08/04 23:24:00	BASE	7.07	314	8.75	317	-3.2	96	-3.8	0	0	966.0	NA	0.0000		9999	1540	0	0	0
2019/08/04 23:25:00	BASE	7.39	314	8.75	317	-3.2	96	-3.8	0	0	966.0	NA	0.0000		9999	0	0	0	5840
2019/08/04 23:26:00	BASE	7.11	313	8.75	317	-3.2	96	-3.8	0	0	966.1	NA	0.0000		9999	1640	0	0	0
2019/08/04 23:27:00	BASE	6.43	308	8.75	317	-3.2	96	-3.8	0	0	966.1	NA	0.0000		9999	1540	0	0	0
2019/08/04 23:28:00	BASE	6.21	307	8.75	317	-3.2	96	-3.8	0	0	966.1	NA	0.0000		9999	1480	0	0	0
2019/08/04 23:29:00	BASE	6.73	311	8.75	317	-3.2	96	-3.8	0	0	966.1	NA	0.0000		9999	1570	0	0	0
2019/08/04 23:30:00	BASE	6.97	311	8.75	317	-3.2	96	-3.8	0	0	966.1	NA	0.0000		9999	1480	0	0	0
2019/08/04 23:31:00	BASE	6.61	309	7.97	309	-3.2	96	-3.7	0	0	966.1	NA	0.0000		9999	0	0	0	5710
2019/08/04 23:32:00	BASE	6.53	309	7.97	309	-3.2	96	-3.7	0	0	966.1	NA	0.0000		9999	0	0	0	5640
2019/08/04 23:33:00	BASE	6.46	311	7.97	309	-3.2	96	-3.7	0	0	966.1	NA	0.0000		9999	1840	0	0	0
2019/08/04 23:34:00	BASE	6.22	312	7.61	315	-3.2	97	-3.7	0	0	966.1	NA	0.0000		9999	0	0	0	5740
2019/08/04 23:35:00	BASE	6.20	312	7.56	316	-3.2	97	-3.7	0	0	966.1	NA	0.0000	-SN	9999	1770	0	0	0
2019/08/04 23:36:00	BASE	5.86	308	7.56	316	-3.2	97	-3.6	0	0	966.1	NA	0.0000	-SN	9999	0	0	0	5480
2019/08/04 23:37:00	BASE	5.67	313	7.56	316	-3.2	97	-3.6	0	0	966.1	NA	0.0000	-SN	9999	0	0	0	5410
2019/08/04 23:38:00	BASE	5.64	319	7.56	316	-3.2	97	-3.7	0	0	966.1	NA	0.0000	-SN	9999	0	0	0	5320
2019/08/04 23:39:00	BASE	5.29	313	7.20	314	-3.2	97	-3.6	0	0	966.1	NA	0.0000	-SN	9999	0	0	0	5050
2019/08/04 23:40:00	BASE	5.19	307	7.15	313	-3.2	97	-3.6	0	0	966.1	NA	0.0000	-SN	9999	0	0	0	5090
2019/08/04 23:41:00	BASE	5.32	310	7.15	313	-3.3	98	-3.6	0	0	966.1	NA	0.0000	-SN	8000	0	0	0	4990
2019/08/04 23:42:00	BASE	5.33	317	6.58	309	-3.3	98	-3.5	0	0	966.2	NA	0.0000	-SN	7000	0	0	0	5280
2019/08/04 23:43:00	BASE	5.13	317	6.58	309	-3.3	98	-3.5	0	0	966.2	NA	0.0000	-SN BR	8000	0	0	0	5380
2019/08/04 23:44:00	BASE	5.12	307	6.58	309	-3.3	99	-3.5	0	0	966.2	NA	0.0000	-SN BR	9000	390	0	0	0
2019/08/04 23:45:00	BASE	5.06	307	6.28	319	-3.3	99	-3.5	0	0	966.2	NA	0.0000	-SN BR	7000	0	0	0	4920
2019/08/04 23:46:00	BASE	4.71	315	6.28	319	-3.3	99	-3.4	0	0	966.2	NA	0.0000	-SN BR	7000	0	0	0	5150
2019/08/04 23:47:00	BASE	4.77	323	6.02	324	-3.4	100	-3.4	0	0	966.2	NA	0.0000	-SN BR	8000	0	0	0	5090
2019/08/04 23:48:00	BASE	5.03	331	6.02	324	-3.4	100	-3.4	0	0	966.2	NA	0.0000	-SN BR	9000	0	0	0	5050
2019/08/04 23:49:00	BASE	5.00	338	6.02	324	-3.4	100	-3.4	0	0	966.2	NA	0.0000	-SN BR	9999	360	0	0	0
2019/08/04 23:50:00	BASE	4.49	351	6.02	324	-3.4	100	-3.4	0	0	966.2	NA	0.0000	-SN BR	9999	360	0	0	0
2019/08/04 23:51:00	BASE	4.17	359	5.71	321	-3.5	100	-3.5	0	0	966.2	NA	0.0000	-SN BR	9999	390	0	0	0
2019/08/04 23:52:00	BASE	4.57	359	5.61	332	-3.5	100	-3.5	0	0	966.2	NA	0.0000	-SN BR	9999	0	0	0	5090
2019/08/04 23:53:00	BASE	4.97	360	5.61	332	-3.6	100	-3.6	0	0	966.2	NA	0.0000	-SN BR	9999	0	0	0	5050
2019/08/04 23:54:00	BASE	4.99	358	5.61	332	-3.6	100	-3.6	0	0	966.2	NA	0.0000	-SN BR	9999	360	0	0	0
2019/08/04 23:55:00	BASE	4.89	355	5.61	332	-3.7	100	-3.7	0	0	966.2	NA	0.0000	-SN BR	9999	330	0	0	0
2019/08/04 23:56:00	BASE	5.00	353	5.61	332	-3.7	100	-3.7	0	0	966.2	NA	0.0000	-SN BR	8000	390	0	0	0
2019/08/04 23:57:00	BASE	4.96	354	5.45	354	-3.8	100	-3.8	0	0	966.2	NA	0.0000	-SN	8000	0	0	0	5220
2019/08/04 23:58:00	BASE	4.83	356	5.45	354	-3.8	100	-3.8	0	0	966.2	NA	0.0000	-SN BR	8000	390	3220	0	0
2019/08/04 23:59:00	BASE	4.71	353	5.45	354	-3.8	100	-3.8	0	0	966.2	NA	0.0000	-SN BR	9000	330	0	0	0